<?xml version="1.0" encoding="UTF-8"?>
<gpx version="1.1" creator="2bulu-scraper" xmlns="http://www.topografix.com/GPX/1/1">
  <metadata><name>宜宾兴文仙峰山</name><desc>source: 2bulu.com trackId=83111326; exported 2026-08-31T01:49:45.499Z</desc>
    <bounds minlat="28.215369" minlon="105.051526" maxlat="28.242547" maxlon="105.067966"/>
    <link href="https://www.2bulu.com/track/t-808AGFrr8Vjp%252FR2KBg5Tzw%253D%253D.htm"><text>2bulu 源页面</text></link>
  </metadata>
  <wpt lat="28.2291" lon="105.064286"><ele>1263</ele><name></name></wpt>
  <wpt lat="28.217347" lon="105.066292"><ele>1008</ele><name></name></wpt>
  <wpt lat="28.217158" lon="105.066292"><ele>1002</ele><name></name></wpt>
  <wpt lat="28.216063" lon="105.065322"><ele>1000</ele><name></name></wpt>
  <wpt lat="28.216103" lon="105.065322"><ele>998</ele><name></name></wpt>
  <wpt lat="28.216417" lon="105.064256"><ele>1075</ele><name></name></wpt>
  <wpt lat="28.215763" lon="105.063614"><ele>1088</ele><name></name></wpt>
  <wpt lat="28.21565" lon="105.063697"><ele>1097</ele><name></name></wpt>
  <wpt lat="28.21588" lon="105.063422"><ele>1116</ele><name></name></wpt>
  <wpt lat="28.21582" lon="105.06343"><ele>1112</ele><name></name></wpt>
  <wpt lat="28.216122" lon="105.062125"><ele>1095</ele><name></name></wpt>
  <wpt lat="28.217678" lon="105.06282"><ele>1174</ele><name></name></wpt>
  <wpt lat="28.217572" lon="105.064911"><ele>1169</ele><name></name></wpt>
  <wpt lat="28.217922" lon="105.064811"><ele>1183</ele><name></name></wpt>
  <wpt lat="28.2186" lon="105.064628"><ele>1208</ele><name></name></wpt>
  <wpt lat="28.2212" lon="105.053764"><ele>1265</ele><name></name></wpt>
  <wpt lat="28.242512" lon="105.062989"><ele>1493</ele><name></name></wpt>
  <wpt lat="28.242517" lon="105.06298"><ele>1493</ele><name></name></wpt>
  <trk><name>宜宾兴文仙峰山</name>
      <trkseg>
        <trkpt lat="28.231135" lon="105.06098"><ele>1372.667</ele><time>2026-04-24T19:31:24.000Z</time></trkpt>
        <trkpt lat="28.231058" lon="105.060952"><ele>1369.226</ele><time>2026-04-24T19:31:29.000Z</time></trkpt>
        <trkpt lat="28.230994" lon="105.060949"><ele>1367.3678</ele><time>2026-04-24T19:31:31.000Z</time></trkpt>
        <trkpt lat="28.23097" lon="105.060914"><ele>1363.7865</ele><time>2026-04-24T19:31:36.000Z</time></trkpt>
        <trkpt lat="28.230919" lon="105.060942"><ele>1362.494</ele><time>2026-04-24T19:31:37.000Z</time></trkpt>
        <trkpt lat="28.230871" lon="105.060952"><ele>1360.8127</ele><time>2026-04-24T19:31:38.000Z</time></trkpt>
        <trkpt lat="28.2308" lon="105.06099"><ele>1349.3167</ele><time>2026-04-24T19:31:52.000Z</time></trkpt>
        <trkpt lat="28.230884" lon="105.060986"><ele>1349.675</ele><time>2026-04-24T19:31:56.000Z</time></trkpt>
        <trkpt lat="28.230934" lon="105.060986"><ele>1350.586</ele><time>2026-04-24T19:31:57.000Z</time></trkpt>
        <trkpt lat="28.230983" lon="105.060981"><ele>1352.243</ele><time>2026-04-24T19:32:01.000Z</time></trkpt>
        <trkpt lat="28.231034" lon="105.060979"><ele>1354.8191</ele><time>2026-04-24T19:32:05.000Z</time></trkpt>
        <trkpt lat="28.230982" lon="105.060984"><ele>1355.4987</ele><time>2026-04-24T19:32:11.000Z</time></trkpt>
        <trkpt lat="28.23093" lon="105.060969"><ele>1357.1415</ele><time>2026-04-24T19:32:15.000Z</time></trkpt>
        <trkpt lat="28.230975" lon="105.06095"><ele>1365.4426</ele><time>2026-04-24T19:32:36.000Z</time></trkpt>
        <trkpt lat="28.230914" lon="105.060986"><ele>1359.2285</ele><time>2026-04-24T19:32:44.000Z</time></trkpt>
        <trkpt lat="28.230951" lon="105.060953"><ele>1355.9594</ele><time>2026-04-24T19:33:11.000Z</time></trkpt>
        <trkpt lat="28.231036" lon="105.060931"><ele>1361.7141</ele><time>2026-04-24T19:33:18.000Z</time></trkpt>
        <trkpt lat="28.230984" lon="105.060925"><ele>1363.205</ele><time>2026-04-24T19:33:23.000Z</time></trkpt>
        <trkpt lat="28.231053" lon="105.060945"><ele>1365.1064</ele><time>2026-04-24T19:33:25.000Z</time></trkpt>
        <trkpt lat="28.231107" lon="105.060953"><ele>1368.3116</ele><time>2026-04-24T19:33:28.000Z</time></trkpt>
        <trkpt lat="28.231162" lon="105.060933"><ele>1373.9948</ele><time>2026-04-24T19:33:35.000Z</time></trkpt>
        <trkpt lat="28.231211" lon="105.060929"><ele>1377.7305</ele><time>2026-04-24T19:33:41.000Z</time></trkpt>
        <trkpt lat="28.231224" lon="105.060989"><ele>1379.2289</ele><time>2026-04-24T19:33:48.000Z</time></trkpt>
        <trkpt lat="28.23118" lon="105.060952"><ele>1369.5653</ele><time>2026-04-24T19:34:11.000Z</time></trkpt>
        <trkpt lat="28.23113" lon="105.060973"><ele>1357.1888</ele><time>2026-04-24T19:34:46.000Z</time></trkpt>
        <trkpt lat="28.23105" lon="105.060923"><ele>1344.923</ele><time>2026-04-24T19:35:05.000Z</time></trkpt>
        <trkpt lat="28.231005" lon="105.060915"><ele>1344.8698</ele><time>2026-04-24T19:35:15.000Z</time></trkpt>
        <trkpt lat="28.230947" lon="105.060933"><ele>1345.4552</ele><time>2026-04-24T19:35:18.000Z</time></trkpt>
        <trkpt lat="28.230902" lon="105.060951"><ele>1346.5004</ele><time>2026-04-24T19:35:20.000Z</time></trkpt>
        <trkpt lat="28.230883" lon="105.060902"><ele>1355.0526</ele><time>2026-04-24T19:35:29.000Z</time></trkpt>
        <trkpt lat="28.230967" lon="105.06093"><ele>1348.1506</ele><time>2026-04-24T19:35:57.000Z</time></trkpt>
        <trkpt lat="28.230999" lon="105.060974"><ele>1342.0419</ele><time>2026-04-24T19:36:12.000Z</time></trkpt>
        <trkpt lat="28.231011" lon="105.061034"><ele>1338.9651</ele><time>2026-04-24T19:36:17.000Z</time></trkpt>
        <trkpt lat="28.231022" lon="105.061087"><ele>1336.8768</ele><time>2026-04-24T19:36:22.000Z</time></trkpt>
        <trkpt lat="28.231032" lon="105.06114"><ele>1335.699</ele><time>2026-04-24T19:36:26.000Z</time></trkpt>
        <trkpt lat="28.23101" lon="105.061189"><ele>1334.7028</ele><time>2026-04-24T19:36:29.000Z</time></trkpt>
        <trkpt lat="28.230999" lon="105.061244"><ele>1333.1991</ele><time>2026-04-24T19:36:33.000Z</time></trkpt>
        <trkpt lat="28.231021" lon="105.061294"><ele>1332.5587</ele><time>2026-04-24T19:36:37.000Z</time></trkpt>
        <trkpt lat="28.23107" lon="105.0613"><ele>1330.459</ele><time>2026-04-24T19:36:45.000Z</time></trkpt>
        <trkpt lat="28.231121" lon="105.061315"><ele>1328.3643</ele><time>2026-04-24T19:36:51.000Z</time></trkpt>
        <trkpt lat="28.231129" lon="105.061257"><ele>1328.715</ele><time>2026-04-24T19:36:56.000Z</time></trkpt>
        <trkpt lat="28.231147" lon="105.061201"><ele>1326.1925</ele><time>2026-04-24T19:37:02.000Z</time></trkpt>
        <trkpt lat="28.231192" lon="105.061181"><ele>1325.4951</ele><time>2026-04-24T19:37:08.000Z</time></trkpt>
        <trkpt lat="28.231236" lon="105.061205"><ele>1324.968</ele><time>2026-04-24T19:37:12.000Z</time></trkpt>
        <trkpt lat="28.231278" lon="105.061236"><ele>1324.8077</ele><time>2026-04-24T19:37:16.000Z</time></trkpt>
        <trkpt lat="28.231333" lon="105.061265"><ele>1323.6138</ele><time>2026-04-24T19:37:22.000Z</time></trkpt>
        <trkpt lat="28.231386" lon="105.061274"><ele>1324.0697</ele><time>2026-04-24T19:37:26.000Z</time></trkpt>
        <trkpt lat="28.231433" lon="105.061288"><ele>1323.999</ele><time>2026-04-24T19:37:30.000Z</time></trkpt>
        <trkpt lat="28.231491" lon="105.061275"><ele>1324.378</ele><time>2026-04-24T19:37:35.000Z</time></trkpt>
        <trkpt lat="28.231545" lon="105.061275"><ele>1324.3558</ele><time>2026-04-24T19:37:40.000Z</time></trkpt>
        <trkpt lat="28.231591" lon="105.061269"><ele>1325.5416</ele><time>2026-04-24T19:37:44.000Z</time></trkpt>
        <trkpt lat="28.231638" lon="105.06126"><ele>1326.4907</ele><time>2026-04-24T19:37:48.000Z</time></trkpt>
        <trkpt lat="28.231688" lon="105.061257"><ele>1327.0511</ele><time>2026-04-24T19:37:52.000Z</time></trkpt>
        <trkpt lat="28.231738" lon="105.061254"><ele>1327.7053</ele><time>2026-04-24T19:37:56.000Z</time></trkpt>
        <trkpt lat="28.231784" lon="105.061258"><ele>1329.1693</ele><time>2026-04-24T19:38:00.000Z</time></trkpt>
        <trkpt lat="28.23183" lon="105.061263"><ele>1330.1509</ele><time>2026-04-24T19:38:04.000Z</time></trkpt>
        <trkpt lat="28.231875" lon="105.061276"><ele>1330.5131</ele><time>2026-04-24T19:38:08.000Z</time></trkpt>
        <trkpt lat="28.231928" lon="105.06129"><ele>1330.6182</ele><time>2026-04-24T19:38:12.000Z</time></trkpt>
        <trkpt lat="28.231975" lon="105.061308"><ele>1331.7986</ele><time>2026-04-24T19:38:16.000Z</time></trkpt>
        <trkpt lat="28.232023" lon="105.061327"><ele>1331.4331</ele><time>2026-04-24T19:38:20.000Z</time></trkpt>
        <trkpt lat="28.232079" lon="105.061333"><ele>1333.9032</ele><time>2026-04-24T19:38:25.000Z</time></trkpt>
        <trkpt lat="28.232124" lon="105.061351"><ele>1333.6515</ele><time>2026-04-24T19:38:29.000Z</time></trkpt>
        <trkpt lat="28.232176" lon="105.061357"><ele>1333.6039</ele><time>2026-04-24T19:38:34.000Z</time></trkpt>
        <trkpt lat="28.232219" lon="105.061384"><ele>1333.511</ele><time>2026-04-24T19:38:38.000Z</time></trkpt>
        <trkpt lat="28.232267" lon="105.061398"><ele>1335.3861</ele><time>2026-04-24T19:38:42.000Z</time></trkpt>
        <trkpt lat="28.232314" lon="105.061414"><ele>1335.7275</ele><time>2026-04-24T19:38:46.000Z</time></trkpt>
        <trkpt lat="28.232366" lon="105.061417"><ele>1337.6045</ele><time>2026-04-24T19:38:51.000Z</time></trkpt>
        <trkpt lat="28.232418" lon="105.061445"><ele>1336.9047</ele><time>2026-04-24T19:38:55.000Z</time></trkpt>
        <trkpt lat="28.232465" lon="105.061479"><ele>1336.1187</ele><time>2026-04-24T19:38:59.000Z</time></trkpt>
        <trkpt lat="28.232508" lon="105.061508"><ele>1335.9368</ele><time>2026-04-24T19:39:03.000Z</time></trkpt>
        <trkpt lat="28.232558" lon="105.061531"><ele>1335.1458</ele><time>2026-04-24T19:39:07.000Z</time></trkpt>
        <trkpt lat="28.232604" lon="105.061554"><ele>1334.1973</ele><time>2026-04-24T19:39:10.000Z</time></trkpt>
        <trkpt lat="28.232653" lon="105.061584"><ele>1332.366</ele><time>2026-04-24T19:39:14.000Z</time></trkpt>
        <trkpt lat="28.232689" lon="105.061628"><ele>1330.9314</ele><time>2026-04-24T19:39:19.000Z</time></trkpt>
        <trkpt lat="28.232731" lon="105.061669"><ele>1330.3682</ele><time>2026-04-24T19:39:23.000Z</time></trkpt>
        <trkpt lat="28.232707" lon="105.061715"><ele>1329.5222</ele><time>2026-04-24T19:39:27.000Z</time></trkpt>
        <trkpt lat="28.232664" lon="105.06174"><ele>1331.2041</ele><time>2026-04-24T19:39:30.000Z</time></trkpt>
        <trkpt lat="28.232608" lon="105.061738"><ele>1330.0795</ele><time>2026-04-24T19:39:34.000Z</time></trkpt>
        <trkpt lat="28.232556" lon="105.06176"><ele>1328.8966</ele><time>2026-04-24T19:39:38.000Z</time></trkpt>
        <trkpt lat="28.232506" lon="105.061801"><ele>1328.565</ele><time>2026-04-24T19:39:43.000Z</time></trkpt>
        <trkpt lat="28.232469" lon="105.061852"><ele>1324.9696</ele><time>2026-04-24T19:39:47.000Z</time></trkpt>
        <trkpt lat="28.232451" lon="105.061899"><ele>1323.9521</ele><time>2026-04-24T19:39:50.000Z</time></trkpt>
        <trkpt lat="28.232442" lon="105.06195"><ele>1322.9896</ele><time>2026-04-24T19:39:54.000Z</time></trkpt>
        <trkpt lat="28.232417" lon="105.061998"><ele>1322.5719</ele><time>2026-04-24T19:39:57.000Z</time></trkpt>
        <trkpt lat="28.232413" lon="105.062056"><ele>1322.9421</ele><time>2026-04-24T19:40:00.000Z</time></trkpt>
        <trkpt lat="28.232432" lon="105.062111"><ele>1323.399</ele><time>2026-04-24T19:40:05.000Z</time></trkpt>
        <trkpt lat="28.232415" lon="105.062173"><ele>1321.3629</ele><time>2026-04-24T19:40:09.000Z</time></trkpt>
        <trkpt lat="28.232425" lon="105.062237"><ele>1320.9797</ele><time>2026-04-24T19:40:14.000Z</time></trkpt>
        <trkpt lat="28.232418" lon="105.06229"><ele>1318.5516</ele><time>2026-04-24T19:40:19.000Z</time></trkpt>
        <trkpt lat="28.232404" lon="105.062347"><ele>1319.1084</ele><time>2026-04-24T19:40:23.000Z</time></trkpt>
        <trkpt lat="28.232396" lon="105.062405"><ele>1317.5143</ele><time>2026-04-24T19:40:29.000Z</time></trkpt>
        <trkpt lat="28.232412" lon="105.062458"><ele>1317.7267</ele><time>2026-04-24T19:40:33.000Z</time></trkpt>
        <trkpt lat="28.232429" lon="105.062507"><ele>1316.7307</ele><time>2026-04-24T19:40:39.000Z</time></trkpt>
        <trkpt lat="28.232424" lon="105.062562"><ele>1316.2112</ele><time>2026-04-24T19:40:44.000Z</time></trkpt>
        <trkpt lat="28.232424" lon="105.06262"><ele>1315.7806</ele><time>2026-04-24T19:40:48.000Z</time></trkpt>
        <trkpt lat="28.232423" lon="105.062682"><ele>1314.5686</ele><time>2026-04-24T19:40:53.000Z</time></trkpt>
        <trkpt lat="28.232421" lon="105.062737"><ele>1313.849</ele><time>2026-04-24T19:40:57.000Z</time></trkpt>
        <trkpt lat="28.232411" lon="105.062791"><ele>1312.78</ele><time>2026-04-24T19:41:01.000Z</time></trkpt>
        <trkpt lat="28.232362" lon="105.062834"><ele>1310.8566</ele><time>2026-04-24T19:41:05.000Z</time></trkpt>
        <trkpt lat="28.232333" lon="105.062886"><ele>1309.5973</ele><time>2026-04-24T19:41:09.000Z</time></trkpt>
        <trkpt lat="28.2323" lon="105.062937"><ele>1308.0657</ele><time>2026-04-24T19:41:13.000Z</time></trkpt>
        <trkpt lat="28.23227" lon="105.06299"><ele>1306.3953</ele><time>2026-04-24T19:41:16.000Z</time></trkpt>
        <trkpt lat="28.232246" lon="105.063035"><ele>1306.2177</ele><time>2026-04-24T19:41:20.000Z</time></trkpt>
        <trkpt lat="28.232224" lon="105.063088"><ele>1307.1204</ele><time>2026-04-24T19:41:25.000Z</time></trkpt>
        <trkpt lat="28.232207" lon="105.063139"><ele>1308.7236</ele><time>2026-04-24T19:41:29.000Z</time></trkpt>
        <trkpt lat="28.23218" lon="105.063191"><ele>1308.678</ele><time>2026-04-24T19:41:32.000Z</time></trkpt>
        <trkpt lat="28.232161" lon="105.063241"><ele>1305.7673</ele><time>2026-04-24T19:41:38.000Z</time></trkpt>
        <trkpt lat="28.232129" lon="105.063287"><ele>1304.3896</ele><time>2026-04-24T19:41:42.000Z</time></trkpt>
        <trkpt lat="28.232113" lon="105.063345"><ele>1305.414</ele><time>2026-04-24T19:41:46.000Z</time></trkpt>
        <trkpt lat="28.232084" lon="105.063386"><ele>1304.2499</ele><time>2026-04-24T19:41:50.000Z</time></trkpt>
        <trkpt lat="28.232045" lon="105.063427"><ele>1304.4148</ele><time>2026-04-24T19:41:54.000Z</time></trkpt>
        <trkpt lat="28.231993" lon="105.063458"><ele>1304.6981</ele><time>2026-04-24T19:41:58.000Z</time></trkpt>
        <trkpt lat="28.231966" lon="105.063505"><ele>1302.2781</ele><time>2026-04-24T19:42:02.000Z</time></trkpt>
        <trkpt lat="28.231915" lon="105.063514"><ele>1301.7023</ele><time>2026-04-24T19:42:06.000Z</time></trkpt>
        <trkpt lat="28.231877" lon="105.063567"><ele>1303.0391</ele><time>2026-04-24T19:42:11.000Z</time></trkpt>
        <trkpt lat="28.231819" lon="105.063589"><ele>1301.3596</ele><time>2026-04-24T19:42:15.000Z</time></trkpt>
        <trkpt lat="28.231789" lon="105.06363"><ele>1301.4106</ele><time>2026-04-24T19:42:19.000Z</time></trkpt>
        <trkpt lat="28.231768" lon="105.063675"><ele>1303.2888</ele><time>2026-04-24T19:42:22.000Z</time></trkpt>
        <trkpt lat="28.231742" lon="105.063717"><ele>1304.9882</ele><time>2026-04-24T19:42:25.000Z</time></trkpt>
        <trkpt lat="28.231715" lon="105.063759"><ele>1304.9703</ele><time>2026-04-24T19:42:29.000Z</time></trkpt>
        <trkpt lat="28.231663" lon="105.063756"><ele>1303.637</ele><time>2026-04-24T19:42:33.000Z</time></trkpt>
        <trkpt lat="28.231611" lon="105.063747"><ele>1302.6824</ele><time>2026-04-24T19:42:37.000Z</time></trkpt>
        <trkpt lat="28.231565" lon="105.063743"><ele>1300.2393</ele><time>2026-04-24T19:42:41.000Z</time></trkpt>
        <trkpt lat="28.231526" lon="105.06377"><ele>1299.9724</ele><time>2026-04-24T19:42:44.000Z</time></trkpt>
        <trkpt lat="28.231466" lon="105.063776"><ele>1299.7047</ele><time>2026-04-24T19:42:49.000Z</time></trkpt>
        <trkpt lat="28.231413" lon="105.063765"><ele>1297.5713</ele><time>2026-04-24T19:42:55.000Z</time></trkpt>
        <trkpt lat="28.231362" lon="105.063758"><ele>1294.8317</ele><time>2026-04-24T19:43:00.000Z</time></trkpt>
        <trkpt lat="28.23131" lon="105.063763"><ele>1295.0914</ele><time>2026-04-24T19:43:04.000Z</time></trkpt>
        <trkpt lat="28.231258" lon="105.063759"><ele>1296.2512</ele><time>2026-04-24T19:43:08.000Z</time></trkpt>
        <trkpt lat="28.231198" lon="105.063773"><ele>1296.4066</ele><time>2026-04-24T19:43:12.000Z</time></trkpt>
        <trkpt lat="28.23124" lon="105.063795"><ele>1296.6344</ele><time>2026-04-24T19:43:19.000Z</time></trkpt>
        <trkpt lat="28.231194" lon="105.063812"><ele>1296.5493</ele><time>2026-04-24T19:43:43.000Z</time></trkpt>
        <trkpt lat="28.231128" lon="105.06382"><ele>1295.7124</ele><time>2026-04-24T19:43:47.000Z</time></trkpt>
        <trkpt lat="28.231078" lon="105.063825"><ele>1294.2698</ele><time>2026-04-24T19:43:50.000Z</time></trkpt>
        <trkpt lat="28.231033" lon="105.063838"><ele>1294.2648</ele><time>2026-04-24T19:43:53.000Z</time></trkpt>
        <trkpt lat="28.230992" lon="105.063862"><ele>1293.5844</ele><time>2026-04-24T19:43:58.000Z</time></trkpt>
        <trkpt lat="28.230945" lon="105.06388"><ele>1295.6863</ele><time>2026-04-24T19:44:01.000Z</time></trkpt>
        <trkpt lat="28.230913" lon="105.063922"><ele>1296.6473</ele><time>2026-04-24T19:44:05.000Z</time></trkpt>
        <trkpt lat="28.230868" lon="105.063946"><ele>1297.1835</ele><time>2026-04-24T19:44:08.000Z</time></trkpt>
        <trkpt lat="28.230829" lon="105.063975"><ele>1294.0453</ele><time>2026-04-24T19:44:12.000Z</time></trkpt>
        <trkpt lat="28.230789" lon="105.064002"><ele>1294.865</ele><time>2026-04-24T19:44:15.000Z</time></trkpt>
        <trkpt lat="28.230735" lon="105.064013"><ele>1293.893</ele><time>2026-04-24T19:44:19.000Z</time></trkpt>
        <trkpt lat="28.230684" lon="105.064007"><ele>1292.5212</ele><time>2026-04-24T19:44:25.000Z</time></trkpt>
        <trkpt lat="28.230642" lon="105.063989"><ele>1291.0498</ele><time>2026-04-24T19:44:28.000Z</time></trkpt>
        <trkpt lat="28.230594" lon="105.063976"><ele>1290.8466</ele><time>2026-04-24T19:44:33.000Z</time></trkpt>
        <trkpt lat="28.230536" lon="105.063946"><ele>1292.1703</ele><time>2026-04-24T19:44:35.000Z</time></trkpt>
        <trkpt lat="28.230482" lon="105.063954"><ele>1289.756</ele><time>2026-04-24T19:44:42.000Z</time></trkpt>
        <trkpt lat="28.230425" lon="105.063959"><ele>1289.171</ele><time>2026-04-24T19:44:46.000Z</time></trkpt>
        <trkpt lat="28.230377" lon="105.063974"><ele>1288.1135</ele><time>2026-04-24T19:44:50.000Z</time></trkpt>
        <trkpt lat="28.230328" lon="105.06399"><ele>1287.8048</ele><time>2026-04-24T19:44:54.000Z</time></trkpt>
        <trkpt lat="28.230282" lon="105.063987"><ele>1287.5969</ele><time>2026-04-24T19:44:58.000Z</time></trkpt>
        <trkpt lat="28.230236" lon="105.063978"><ele>1288.1715</ele><time>2026-04-24T19:45:02.000Z</time></trkpt>
        <trkpt lat="28.23019" lon="105.063957"><ele>1287.4926</ele><time>2026-04-24T19:45:06.000Z</time></trkpt>
        <trkpt lat="28.230141" lon="105.063923"><ele>1287.3116</ele><time>2026-04-24T19:45:11.000Z</time></trkpt>
        <trkpt lat="28.230097" lon="105.063899"><ele>1284.3049</ele><time>2026-04-24T19:45:15.000Z</time></trkpt>
        <trkpt lat="28.230051" lon="105.063898"><ele>1281.985</ele><time>2026-04-24T19:45:19.000Z</time></trkpt>
        <trkpt lat="28.230086" lon="105.063936"><ele>1277.469</ele><time>2026-04-24T19:45:33.000Z</time></trkpt>
        <trkpt lat="28.230045" lon="105.0639"><ele>1281.9344</ele><time>2026-04-24T19:46:15.000Z</time></trkpt>
        <trkpt lat="28.229991" lon="105.063906"><ele>1300.3898</ele><time>2026-04-24T19:47:24.000Z</time></trkpt>
        <trkpt lat="28.230038" lon="105.064011"><ele>1303.8187</ele><time>2026-04-24T19:52:17.000Z</time></trkpt>
        <trkpt lat="28.230079" lon="105.064038"><ele>1297.8063</ele><time>2026-04-24T19:53:29.000Z</time></trkpt>
        <trkpt lat="28.230044" lon="105.063997"><ele>1297.4468</ele><time>2026-04-24T19:53:47.000Z</time></trkpt>
        <trkpt lat="28.229983" lon="105.064004"><ele>1296.0945</ele><time>2026-04-24T19:53:51.000Z</time></trkpt>
        <trkpt lat="28.229932" lon="105.064007"><ele>1297.0538</ele><time>2026-04-24T19:53:54.000Z</time></trkpt>
        <trkpt lat="28.229885" lon="105.064049"><ele>1298.2676</ele><time>2026-04-24T19:53:58.000Z</time></trkpt>
        <trkpt lat="28.229835" lon="105.064072"><ele>1298.0393</ele><time>2026-04-24T19:54:02.000Z</time></trkpt>
        <trkpt lat="28.229793" lon="105.064091"><ele>1298.256</ele><time>2026-04-24T19:54:05.000Z</time></trkpt>
        <trkpt lat="28.22975" lon="105.064116"><ele>1297.6144</ele><time>2026-04-24T19:54:09.000Z</time></trkpt>
        <trkpt lat="28.229704" lon="105.064139"><ele>1296.8092</ele><time>2026-04-24T19:54:14.000Z</time></trkpt>
        <trkpt lat="28.229655" lon="105.064153"><ele>1295.2859</ele><time>2026-04-24T19:54:18.000Z</time></trkpt>
        <trkpt lat="28.229609" lon="105.064127"><ele>1295.2054</ele><time>2026-04-24T19:54:22.000Z</time></trkpt>
        <trkpt lat="28.229558" lon="105.064139"><ele>1294.4169</ele><time>2026-04-24T19:54:26.000Z</time></trkpt>
        <trkpt lat="28.229504" lon="105.064156"><ele>1294.0889</ele><time>2026-04-24T19:54:29.000Z</time></trkpt>
        <trkpt lat="28.229445" lon="105.064157"><ele>1289.3972</ele><time>2026-04-24T19:54:34.000Z</time></trkpt>
        <trkpt lat="28.2294" lon="105.064181"><ele>1288.0063</ele><time>2026-04-24T19:54:38.000Z</time></trkpt>
        <trkpt lat="28.229354" lon="105.064216"><ele>1287.4219</ele><time>2026-04-24T19:54:42.000Z</time></trkpt>
        <trkpt lat="28.229296" lon="105.064228"><ele>1283.239</ele><time>2026-04-24T19:54:47.000Z</time></trkpt>
        <trkpt lat="28.229246" lon="105.064251"><ele>1279.4972</ele><time>2026-04-24T19:54:52.000Z</time></trkpt>
        <trkpt lat="28.229197" lon="105.064276"><ele>1275.901</ele><time>2026-04-24T19:54:58.000Z</time></trkpt>
        <trkpt lat="28.229148" lon="105.064278"><ele>1270.3776</ele><time>2026-04-24T19:55:05.000Z</time></trkpt>
        <trkpt lat="28.2291" lon="105.064277"><ele>1264.0065</ele><time>2026-04-24T19:55:19.000Z</time></trkpt>
        <trkpt lat="28.229059" lon="105.064316"><ele>1263.2587</ele><time>2026-04-24T19:55:34.000Z</time></trkpt>
        <trkpt lat="28.229022" lon="105.064358"><ele>1262.6124</ele><time>2026-04-24T19:55:38.000Z</time></trkpt>
        <trkpt lat="28.228988" lon="105.064394"><ele>1261.7537</ele><time>2026-04-24T19:55:42.000Z</time></trkpt>
        <trkpt lat="28.228948" lon="105.064424"><ele>1259.8639</ele><time>2026-04-24T19:55:47.000Z</time></trkpt>
        <trkpt lat="28.228908" lon="105.064464"><ele>1259.4962</ele><time>2026-04-24T19:55:52.000Z</time></trkpt>
        <trkpt lat="28.228871" lon="105.064499"><ele>1257.9264</ele><time>2026-04-24T19:55:56.000Z</time></trkpt>
        <trkpt lat="28.228824" lon="105.064538"><ele>1258.3481</ele><time>2026-04-24T19:56:01.000Z</time></trkpt>
        <trkpt lat="28.228784" lon="105.064573"><ele>1256.9996</ele><time>2026-04-24T19:56:06.000Z</time></trkpt>
        <trkpt lat="28.22874" lon="105.064613"><ele>1257.1566</ele><time>2026-04-24T19:56:10.000Z</time></trkpt>
        <trkpt lat="28.2287" lon="105.064662"><ele>1257.2036</ele><time>2026-04-24T19:56:15.000Z</time></trkpt>
        <trkpt lat="28.228661" lon="105.064697"><ele>1257.0146</ele><time>2026-04-24T19:56:19.000Z</time></trkpt>
        <trkpt lat="28.228636" lon="105.064741"><ele>1258.2565</ele><time>2026-04-24T19:56:22.000Z</time></trkpt>
        <trkpt lat="28.228589" lon="105.064774"><ele>1257.0718</ele><time>2026-04-24T19:56:27.000Z</time></trkpt>
        <trkpt lat="28.228542" lon="105.064787"><ele>1256.7693</ele><time>2026-04-24T19:56:31.000Z</time></trkpt>
        <trkpt lat="28.228497" lon="105.064779"><ele>1255.8822</ele><time>2026-04-24T19:56:35.000Z</time></trkpt>
        <trkpt lat="28.228442" lon="105.064759"><ele>1256.2598</ele><time>2026-04-24T19:56:39.000Z</time></trkpt>
        <trkpt lat="28.228391" lon="105.064746"><ele>1255.5967</ele><time>2026-04-24T19:56:43.000Z</time></trkpt>
        <trkpt lat="28.228338" lon="105.064729"><ele>1255.6954</ele><time>2026-04-24T19:56:47.000Z</time></trkpt>
        <trkpt lat="28.228282" lon="105.064711"><ele>1254.6979</ele><time>2026-04-24T19:56:52.000Z</time></trkpt>
        <trkpt lat="28.22823" lon="105.0647"><ele>1253.2716</ele><time>2026-04-24T19:56:57.000Z</time></trkpt>
        <trkpt lat="28.228176" lon="105.064688"><ele>1253.9808</ele><time>2026-04-24T19:57:01.000Z</time></trkpt>
        <trkpt lat="28.228127" lon="105.064668"><ele>1252.4116</ele><time>2026-04-24T19:57:05.000Z</time></trkpt>
        <trkpt lat="28.22808" lon="105.064663"><ele>1253.0114</ele><time>2026-04-24T19:57:09.000Z</time></trkpt>
        <trkpt lat="28.228028" lon="105.064657"><ele>1252.6569</ele><time>2026-04-24T19:57:13.000Z</time></trkpt>
        <trkpt lat="28.22798" lon="105.064665"><ele>1252.529</ele><time>2026-04-24T19:57:17.000Z</time></trkpt>
        <trkpt lat="28.227934" lon="105.064686"><ele>1253.5958</ele><time>2026-04-24T19:57:20.000Z</time></trkpt>
        <trkpt lat="28.227894" lon="105.064711"><ele>1254.2135</ele><time>2026-04-24T19:57:23.000Z</time></trkpt>
        <trkpt lat="28.227853" lon="105.064737"><ele>1254.3035</ele><time>2026-04-24T19:57:26.000Z</time></trkpt>
        <trkpt lat="28.227806" lon="105.064759"><ele>1254.0013</ele><time>2026-04-24T19:57:31.000Z</time></trkpt>
        <trkpt lat="28.227755" lon="105.064763"><ele>1252.4827</ele><time>2026-04-24T19:57:35.000Z</time></trkpt>
        <trkpt lat="28.227702" lon="105.06476"><ele>1249.9604</ele><time>2026-04-24T19:57:40.000Z</time></trkpt>
        <trkpt lat="28.227654" lon="105.06474"><ele>1248.288</ele><time>2026-04-24T19:57:45.000Z</time></trkpt>
        <trkpt lat="28.227599" lon="105.064732"><ele>1247.6382</ele><time>2026-04-24T19:57:49.000Z</time></trkpt>
        <trkpt lat="28.227541" lon="105.064733"><ele>1246.7043</ele><time>2026-04-24T19:57:55.000Z</time></trkpt>
        <trkpt lat="28.227495" lon="105.064744"><ele>1246.9</ele><time>2026-04-24T19:57:58.000Z</time></trkpt>
        <trkpt lat="28.227448" lon="105.064742"><ele>1247.1349</ele><time>2026-04-24T19:58:01.000Z</time></trkpt>
        <trkpt lat="28.2274" lon="105.064731"><ele>1245.492</ele><time>2026-04-24T19:58:06.000Z</time></trkpt>
        <trkpt lat="28.227346" lon="105.064741"><ele>1243.8477</ele><time>2026-04-24T19:58:10.000Z</time></trkpt>
        <trkpt lat="28.227299" lon="105.064707"><ele>1243.3885</ele><time>2026-04-24T19:58:15.000Z</time></trkpt>
        <trkpt lat="28.227252" lon="105.064674"><ele>1240.9716</ele><time>2026-04-24T19:58:21.000Z</time></trkpt>
        <trkpt lat="28.227206" lon="105.064654"><ele>1240.646</ele><time>2026-04-24T19:58:24.000Z</time></trkpt>
        <trkpt lat="28.227157" lon="105.064643"><ele>1237.4359</ele><time>2026-04-24T19:58:29.000Z</time></trkpt>
        <trkpt lat="28.227101" lon="105.064657"><ele>1240.244</ele><time>2026-04-24T19:58:31.000Z</time></trkpt>
        <trkpt lat="28.227064" lon="105.064694"><ele>1239.2795</ele><time>2026-04-24T19:58:35.000Z</time></trkpt>
        <trkpt lat="28.227042" lon="105.064746"><ele>1237.4603</ele><time>2026-04-24T19:58:39.000Z</time></trkpt>
        <trkpt lat="28.227082" lon="105.064778"><ele>1234.937</ele><time>2026-04-24T19:58:43.000Z</time></trkpt>
        <trkpt lat="28.227141" lon="105.064779"><ele>1233.5133</ele><time>2026-04-24T19:58:47.000Z</time></trkpt>
        <trkpt lat="28.227188" lon="105.064804"><ele>1232.9923</ele><time>2026-04-24T19:58:50.000Z</time></trkpt>
        <trkpt lat="28.227238" lon="105.06482"><ele>1232.0281</ele><time>2026-04-24T19:58:54.000Z</time></trkpt>
        <trkpt lat="28.227291" lon="105.064841"><ele>1231.484</ele><time>2026-04-24T19:58:58.000Z</time></trkpt>
        <trkpt lat="28.227336" lon="105.064853"><ele>1232.8425</ele><time>2026-04-24T19:59:01.000Z</time></trkpt>
        <trkpt lat="28.227384" lon="105.064877"><ele>1230.431</ele><time>2026-04-24T19:59:05.000Z</time></trkpt>
        <trkpt lat="28.227433" lon="105.064896"><ele>1229.9315</ele><time>2026-04-24T19:59:10.000Z</time></trkpt>
        <trkpt lat="28.227488" lon="105.06491"><ele>1230.1633</ele><time>2026-04-24T19:59:14.000Z</time></trkpt>
        <trkpt lat="28.227533" lon="105.064925"><ele>1228.4562</ele><time>2026-04-24T19:59:18.000Z</time></trkpt>
        <trkpt lat="28.227563" lon="105.064965"><ele>1225.5608</ele><time>2026-04-24T19:59:24.000Z</time></trkpt>
        <trkpt lat="28.227549" lon="105.065021"><ele>1226.0132</ele><time>2026-04-24T19:59:27.000Z</time></trkpt>
        <trkpt lat="28.227498" lon="105.065022"><ele>1224.6963</ele><time>2026-04-24T19:59:31.000Z</time></trkpt>
        <trkpt lat="28.22744" lon="105.065016"><ele>1225.0427</ele><time>2026-04-24T19:59:35.000Z</time></trkpt>
        <trkpt lat="28.227391" lon="105.065026"><ele>1224.4601</ele><time>2026-04-24T19:59:39.000Z</time></trkpt>
        <trkpt lat="28.227342" lon="105.065025"><ele>1224.1322</ele><time>2026-04-24T19:59:43.000Z</time></trkpt>
        <trkpt lat="28.227291" lon="105.065016"><ele>1224.5385</ele><time>2026-04-24T19:59:47.000Z</time></trkpt>
        <trkpt lat="28.227239" lon="105.065014"><ele>1223.8881</ele><time>2026-04-24T19:59:51.000Z</time></trkpt>
        <trkpt lat="28.227188" lon="105.065003"><ele>1225.0238</ele><time>2026-04-24T19:59:54.000Z</time></trkpt>
        <trkpt lat="28.227127" lon="105.064982"><ele>1226.114</ele><time>2026-04-24T19:59:58.000Z</time></trkpt>
        <trkpt lat="28.227069" lon="105.064978"><ele>1226.6326</ele><time>2026-04-24T20:00:03.000Z</time></trkpt>
        <trkpt lat="28.227015" lon="105.064964"><ele>1228.284</ele><time>2026-04-24T20:00:06.000Z</time></trkpt>
        <trkpt lat="28.226967" lon="105.06495"><ele>1227.4227</ele><time>2026-04-24T20:00:10.000Z</time></trkpt>
        <trkpt lat="28.226912" lon="105.064948"><ele>1225.9823</ele><time>2026-04-24T20:00:14.000Z</time></trkpt>
        <trkpt lat="28.22686" lon="105.06495"><ele>1227.2584</ele><time>2026-04-24T20:00:17.000Z</time></trkpt>
        <trkpt lat="28.226803" lon="105.064942"><ele>1228.1133</ele><time>2026-04-24T20:00:21.000Z</time></trkpt>
        <trkpt lat="28.226753" lon="105.064936"><ele>1228.0164</ele><time>2026-04-24T20:00:25.000Z</time></trkpt>
        <trkpt lat="28.226704" lon="105.064936"><ele>1228.2505</ele><time>2026-04-24T20:00:28.000Z</time></trkpt>
        <trkpt lat="28.226656" lon="105.064933"><ele>1227.7083</ele><time>2026-04-24T20:00:32.000Z</time></trkpt>
        <trkpt lat="28.226599" lon="105.064932"><ele>1225.6617</ele><time>2026-04-24T20:00:37.000Z</time></trkpt>
        <trkpt lat="28.22655" lon="105.064928"><ele>1224.0885</ele><time>2026-04-24T20:00:42.000Z</time></trkpt>
        <trkpt lat="28.226492" lon="105.06495"><ele>1219.9286</ele><time>2026-04-24T20:00:48.000Z</time></trkpt>
        <trkpt lat="28.226441" lon="105.064944"><ele>1214.2655</ele><time>2026-04-24T20:00:56.000Z</time></trkpt>
        <trkpt lat="28.226389" lon="105.064951"><ele>1212.7878</ele><time>2026-04-24T20:01:00.000Z</time></trkpt>
        <trkpt lat="28.226329" lon="105.064949"><ele>1210.7893</ele><time>2026-04-24T20:01:05.000Z</time></trkpt>
        <trkpt lat="28.226278" lon="105.064957"><ele>1209.8132</ele><time>2026-04-24T20:01:09.000Z</time></trkpt>
        <trkpt lat="28.226224" lon="105.064961"><ele>1208.5128</ele><time>2026-04-24T20:01:13.000Z</time></trkpt>
        <trkpt lat="28.22617" lon="105.064947"><ele>1208.9261</ele><time>2026-04-24T20:01:18.000Z</time></trkpt>
        <trkpt lat="28.22611" lon="105.064951"><ele>1209.5916</ele><time>2026-04-24T20:01:22.000Z</time></trkpt>
        <trkpt lat="28.226064" lon="105.064946"><ele>1207.4133</ele><time>2026-04-24T20:01:26.000Z</time></trkpt>
        <trkpt lat="28.226014" lon="105.064936"><ele>1207.0269</ele><time>2026-04-24T20:01:30.000Z</time></trkpt>
        <trkpt lat="28.225967" lon="105.064939"><ele>1205.4261</ele><time>2026-04-24T20:01:34.000Z</time></trkpt>
        <trkpt lat="28.225911" lon="105.064949"><ele>1203.2511</ele><time>2026-04-24T20:01:39.000Z</time></trkpt>
        <trkpt lat="28.22585" lon="105.06495"><ele>1202.3407</ele><time>2026-04-24T20:01:43.000Z</time></trkpt>
        <trkpt lat="28.225813" lon="105.06498"><ele>1200.324</ele><time>2026-04-24T20:01:47.000Z</time></trkpt>
        <trkpt lat="28.225769" lon="105.065008"><ele>1199.3728</ele><time>2026-04-24T20:01:51.000Z</time></trkpt>
        <trkpt lat="28.225726" lon="105.065037"><ele>1198.1023</ele><time>2026-04-24T20:01:56.000Z</time></trkpt>
        <trkpt lat="28.225697" lon="105.065091"><ele>1196.9083</ele><time>2026-04-24T20:02:00.000Z</time></trkpt>
        <trkpt lat="28.225644" lon="105.065109"><ele>1195.5669</ele><time>2026-04-24T20:02:05.000Z</time></trkpt>
        <trkpt lat="28.225589" lon="105.065117"><ele>1194.7601</ele><time>2026-04-24T20:02:09.000Z</time></trkpt>
        <trkpt lat="28.225545" lon="105.065125"><ele>1194.0839</ele><time>2026-04-24T20:02:13.000Z</time></trkpt>
        <trkpt lat="28.225495" lon="105.065127"><ele>1194.5776</ele><time>2026-04-24T20:02:16.000Z</time></trkpt>
        <trkpt lat="28.225448" lon="105.065131"><ele>1192.8743</ele><time>2026-04-24T20:02:20.000Z</time></trkpt>
        <trkpt lat="28.225402" lon="105.065121"><ele>1194.6721</ele><time>2026-04-24T20:02:23.000Z</time></trkpt>
        <trkpt lat="28.225356" lon="105.065127"><ele>1193.5801</ele><time>2026-04-24T20:02:27.000Z</time></trkpt>
        <trkpt lat="28.225305" lon="105.065113"><ele>1192.5737</ele><time>2026-04-24T20:02:31.000Z</time></trkpt>
        <trkpt lat="28.225246" lon="105.065107"><ele>1191.791</ele><time>2026-04-24T20:03:00.000Z</time></trkpt>
        <trkpt lat="28.225196" lon="105.065113"><ele>1191.5951</ele><time>2026-04-24T20:03:05.000Z</time></trkpt>
        <trkpt lat="28.225149" lon="105.065111"><ele>1190.8297</ele><time>2026-04-24T20:03:09.000Z</time></trkpt>
        <trkpt lat="28.225102" lon="105.065115"><ele>1190.1487</ele><time>2026-04-24T20:03:14.000Z</time></trkpt>
        <trkpt lat="28.225052" lon="105.065125"><ele>1189.4655</ele><time>2026-04-24T20:03:18.000Z</time></trkpt>
        <trkpt lat="28.225006" lon="105.065142"><ele>1187.7032</ele><time>2026-04-24T20:03:23.000Z</time></trkpt>
        <trkpt lat="28.224951" lon="105.065157"><ele>1187.1846</ele><time>2026-04-24T20:03:28.000Z</time></trkpt>
        <trkpt lat="28.224895" lon="105.065179"><ele>1186.8009</ele><time>2026-04-24T20:03:33.000Z</time></trkpt>
        <trkpt lat="28.224843" lon="105.065184"><ele>1184.2614</ele><time>2026-04-24T20:03:38.000Z</time></trkpt>
        <trkpt lat="28.224786" lon="105.065195"><ele>1184.1985</ele><time>2026-04-24T20:03:42.000Z</time></trkpt>
        <trkpt lat="28.22472" lon="105.06521"><ele>1183.2762</ele><time>2026-04-24T20:03:47.000Z</time></trkpt>
        <trkpt lat="28.224674" lon="105.065199"><ele>1182.22</ele><time>2026-04-24T20:03:51.000Z</time></trkpt>
        <trkpt lat="28.224625" lon="105.065191"><ele>1182.6959</ele><time>2026-04-24T20:03:55.000Z</time></trkpt>
        <trkpt lat="28.224568" lon="105.065183"><ele>1180.5637</ele><time>2026-04-24T20:04:00.000Z</time></trkpt>
        <trkpt lat="28.224522" lon="105.065179"><ele>1179.4165</ele><time>2026-04-24T20:04:04.000Z</time></trkpt>
        <trkpt lat="28.224471" lon="105.065183"><ele>1179.1105</ele><time>2026-04-24T20:04:08.000Z</time></trkpt>
        <trkpt lat="28.224412" lon="105.065174"><ele>1178.9253</ele><time>2026-04-24T20:04:12.000Z</time></trkpt>
        <trkpt lat="28.224359" lon="105.065156"><ele>1178.6777</ele><time>2026-04-24T20:04:18.000Z</time></trkpt>
        <trkpt lat="28.224308" lon="105.065143"><ele>1177.3517</ele><time>2026-04-24T20:04:23.000Z</time></trkpt>
        <trkpt lat="28.224251" lon="105.065139"><ele>1177.8812</ele><time>2026-04-24T20:04:27.000Z</time></trkpt>
        <trkpt lat="28.224206" lon="105.06513"><ele>1177.1475</ele><time>2026-04-24T20:04:31.000Z</time></trkpt>
        <trkpt lat="28.22416" lon="105.065128"><ele>1177.3597</ele><time>2026-04-24T20:04:35.000Z</time></trkpt>
        <trkpt lat="28.224113" lon="105.065117"><ele>1175.2704</ele><time>2026-04-24T20:04:40.000Z</time></trkpt>
        <trkpt lat="28.224063" lon="105.065117"><ele>1171.7974</ele><time>2026-04-24T20:04:47.000Z</time></trkpt>
        <trkpt lat="28.224012" lon="105.065092"><ele>1171.2537</ele><time>2026-04-24T20:04:51.000Z</time></trkpt>
        <trkpt lat="28.223959" lon="105.065082"><ele>1170.0217</ele><time>2026-04-24T20:04:56.000Z</time></trkpt>
        <trkpt lat="28.223901" lon="105.065072"><ele>1168.2292</ele><time>2026-04-24T20:05:01.000Z</time></trkpt>
        <trkpt lat="28.223846" lon="105.065063"><ele>1166.0569</ele><time>2026-04-24T20:05:06.000Z</time></trkpt>
        <trkpt lat="28.223802" lon="105.065054"><ele>1164.9756</ele><time>2026-04-24T20:05:10.000Z</time></trkpt>
        <trkpt lat="28.223753" lon="105.06505"><ele>1163.8732</ele><time>2026-04-24T20:05:14.000Z</time></trkpt>
        <trkpt lat="28.2237" lon="105.065044"><ele>1162.9977</ele><time>2026-04-24T20:05:18.000Z</time></trkpt>
        <trkpt lat="28.223652" lon="105.065038"><ele>1161.8043</ele><time>2026-04-24T20:05:22.000Z</time></trkpt>
        <trkpt lat="28.223606" lon="105.065024"><ele>1161.021</ele><time>2026-04-24T20:05:26.000Z</time></trkpt>
        <trkpt lat="28.223555" lon="105.065024"><ele>1160.0363</ele><time>2026-04-24T20:05:30.000Z</time></trkpt>
        <trkpt lat="28.223502" lon="105.065004"><ele>1159.3478</ele><time>2026-04-24T20:05:35.000Z</time></trkpt>
        <trkpt lat="28.223456" lon="105.065"><ele>1157.6019</ele><time>2026-04-24T20:05:39.000Z</time></trkpt>
        <trkpt lat="28.223402" lon="105.064987"><ele>1156.8488</ele><time>2026-04-24T20:05:44.000Z</time></trkpt>
        <trkpt lat="28.223355" lon="105.064981"><ele>1157.2761</ele><time>2026-04-24T20:05:47.000Z</time></trkpt>
        <trkpt lat="28.223305" lon="105.064971"><ele>1157.5854</ele><time>2026-04-24T20:05:51.000Z</time></trkpt>
        <trkpt lat="28.223262" lon="105.064956"><ele>1154.7854</ele><time>2026-04-24T20:05:55.000Z</time></trkpt>
        <trkpt lat="28.223215" lon="105.064937"><ele>1152.5151</ele><time>2026-04-24T20:05:59.000Z</time></trkpt>
        <trkpt lat="28.223165" lon="105.064914"><ele>1150.8823</ele><time>2026-04-24T20:06:04.000Z</time></trkpt>
        <trkpt lat="28.22312" lon="105.064896"><ele>1150.0458</ele><time>2026-04-24T20:06:08.000Z</time></trkpt>
        <trkpt lat="28.223074" lon="105.064904"><ele>1147.6694</ele><time>2026-04-24T20:06:12.000Z</time></trkpt>
        <trkpt lat="28.22304" lon="105.06495"><ele>1146.238</ele><time>2026-04-24T20:06:16.000Z</time></trkpt>
        <trkpt lat="28.223056" lon="105.064999"><ele>1145.7782</ele><time>2026-04-24T20:06:19.000Z</time></trkpt>
        <trkpt lat="28.223091" lon="105.065054"><ele>1144.8379</ele><time>2026-04-24T20:06:23.000Z</time></trkpt>
        <trkpt lat="28.223131" lon="105.06509"><ele>1143.7543</ele><time>2026-04-24T20:06:27.000Z</time></trkpt>
        <trkpt lat="28.223167" lon="105.065128"><ele>1143.3071</ele><time>2026-04-24T20:06:31.000Z</time></trkpt>
        <trkpt lat="28.223212" lon="105.065171"><ele>1143.2593</ele><time>2026-04-24T20:06:35.000Z</time></trkpt>
        <trkpt lat="28.223241" lon="105.065221"><ele>1143.6394</ele><time>2026-04-24T20:06:39.000Z</time></trkpt>
        <trkpt lat="28.223278" lon="105.065252"><ele>1143.3501</ele><time>2026-04-24T20:06:43.000Z</time></trkpt>
        <trkpt lat="28.223314" lon="105.065295"><ele>1142.7749</ele><time>2026-04-24T20:06:47.000Z</time></trkpt>
        <trkpt lat="28.223339" lon="105.065344"><ele>1141.0778</ele><time>2026-04-24T20:06:51.000Z</time></trkpt>
        <trkpt lat="28.223351" lon="105.065394"><ele>1140.1654</ele><time>2026-04-24T20:06:55.000Z</time></trkpt>
        <trkpt lat="28.223356" lon="105.065456"><ele>1139.8177</ele><time>2026-04-24T20:06:59.000Z</time></trkpt>
        <trkpt lat="28.22336" lon="105.065523"><ele>1138.6503</ele><time>2026-04-24T20:07:04.000Z</time></trkpt>
        <trkpt lat="28.223326" lon="105.065568"><ele>1137.5746</ele><time>2026-04-24T20:07:09.000Z</time></trkpt>
        <trkpt lat="28.22327" lon="105.065576"><ele>1137.3964</ele><time>2026-04-24T20:07:13.000Z</time></trkpt>
        <trkpt lat="28.223223" lon="105.06555"><ele>1134.9637</ele><time>2026-04-24T20:07:18.000Z</time></trkpt>
        <trkpt lat="28.223192" lon="105.065504"><ele>1135.2634</ele><time>2026-04-24T20:07:21.000Z</time></trkpt>
        <trkpt lat="28.223156" lon="105.065451"><ele>1134.7467</ele><time>2026-04-24T20:07:27.000Z</time></trkpt>
        <trkpt lat="28.22312" lon="105.065415"><ele>1133.4286</ele><time>2026-04-24T20:07:31.000Z</time></trkpt>
        <trkpt lat="28.223086" lon="105.065373"><ele>1133.5939</ele><time>2026-04-24T20:07:35.000Z</time></trkpt>
        <trkpt lat="28.223046" lon="105.065347"><ele>1132.3931</ele><time>2026-04-24T20:07:40.000Z</time></trkpt>
        <trkpt lat="28.222997" lon="105.065326"><ele>1131.5844</ele><time>2026-04-24T20:07:45.000Z</time></trkpt>
        <trkpt lat="28.222943" lon="105.065306"><ele>1131.6592</ele><time>2026-04-24T20:07:50.000Z</time></trkpt>
        <trkpt lat="28.222899" lon="105.065272"><ele>1129.9042</ele><time>2026-04-24T20:07:55.000Z</time></trkpt>
        <trkpt lat="28.222854" lon="105.065255"><ele>1129.0426</ele><time>2026-04-24T20:07:59.000Z</time></trkpt>
        <trkpt lat="28.222809" lon="105.06525"><ele>1127.9731</ele><time>2026-04-24T20:08:04.000Z</time></trkpt>
        <trkpt lat="28.222769" lon="105.065303"><ele>1127.6512</ele><time>2026-04-24T20:08:09.000Z</time></trkpt>
        <trkpt lat="28.222759" lon="105.065354"><ele>1126.9539</ele><time>2026-04-24T20:08:13.000Z</time></trkpt>
        <trkpt lat="28.222769" lon="105.065417"><ele>1126.9003</ele><time>2026-04-24T20:08:19.000Z</time></trkpt>
        <trkpt lat="28.22279" lon="105.065471"><ele>1126.1857</ele><time>2026-04-24T20:08:23.000Z</time></trkpt>
        <trkpt lat="28.222794" lon="105.065527"><ele>1126.0938</ele><time>2026-04-24T20:08:28.000Z</time></trkpt>
        <trkpt lat="28.222818" lon="105.065574"><ele>1124.2587</ele><time>2026-04-24T20:08:32.000Z</time></trkpt>
        <trkpt lat="28.222839" lon="105.065625"><ele>1122.83</ele><time>2026-04-24T20:08:37.000Z</time></trkpt>
        <trkpt lat="28.222865" lon="105.065679"><ele>1121.6693</ele><time>2026-04-24T20:08:42.000Z</time></trkpt>
        <trkpt lat="28.222877" lon="105.065737"><ele>1120.9924</ele><time>2026-04-24T20:08:47.000Z</time></trkpt>
        <trkpt lat="28.22288" lon="105.065798"><ele>1120.1931</ele><time>2026-04-24T20:08:52.000Z</time></trkpt>
        <trkpt lat="28.222862" lon="105.06585"><ele>1119.8187</ele><time>2026-04-24T20:08:56.000Z</time></trkpt>
        <trkpt lat="28.222841" lon="105.065905"><ele>1118.7412</ele><time>2026-04-24T20:09:00.000Z</time></trkpt>
        <trkpt lat="28.222819" lon="105.065958"><ele>1118.8683</ele><time>2026-04-24T20:09:04.000Z</time></trkpt>
        <trkpt lat="28.222787" lon="105.066008"><ele>1118.026</ele><time>2026-04-24T20:09:09.000Z</time></trkpt>
        <trkpt lat="28.222766" lon="105.066054"><ele>1117.5002</ele><time>2026-04-24T20:09:13.000Z</time></trkpt>
        <trkpt lat="28.222749" lon="105.066106"><ele>1117.3678</ele><time>2026-04-24T20:09:19.000Z</time></trkpt>
        <trkpt lat="28.22273" lon="105.066162"><ele>1117.5487</ele><time>2026-04-24T20:09:24.000Z</time></trkpt>
        <trkpt lat="28.222691" lon="105.066193"><ele>1118.4142</ele><time>2026-04-24T20:09:29.000Z</time></trkpt>
        <trkpt lat="28.222645" lon="105.066218"><ele>1117.1355</ele><time>2026-04-24T20:09:33.000Z</time></trkpt>
        <trkpt lat="28.222591" lon="105.066225"><ele>1117.6064</ele><time>2026-04-24T20:09:38.000Z</time></trkpt>
        <trkpt lat="28.222546" lon="105.066205"><ele>1116.5071</ele><time>2026-04-24T20:09:42.000Z</time></trkpt>
        <trkpt lat="28.222493" lon="105.066188"><ele>1114.5493</ele><time>2026-04-24T20:09:46.000Z</time></trkpt>
        <trkpt lat="28.222448" lon="105.066196"><ele>1114.4968</ele><time>2026-04-24T20:09:50.000Z</time></trkpt>
        <trkpt lat="28.222395" lon="105.066177"><ele>1112.0721</ele><time>2026-04-24T20:09:55.000Z</time></trkpt>
        <trkpt lat="28.222343" lon="105.066174"><ele>1111.049</ele><time>2026-04-24T20:10:00.000Z</time></trkpt>
        <trkpt lat="28.222297" lon="105.066183"><ele>1110.0651</ele><time>2026-04-24T20:10:05.000Z</time></trkpt>
        <trkpt lat="28.222246" lon="105.066193"><ele>1108.4672</ele><time>2026-04-24T20:10:10.000Z</time></trkpt>
        <trkpt lat="28.222199" lon="105.066219"><ele>1107.1969</ele><time>2026-04-24T20:10:17.000Z</time></trkpt>
        <trkpt lat="28.222225" lon="105.066178"><ele>1106.6147</ele><time>2026-04-24T20:11:37.000Z</time></trkpt>
        <trkpt lat="28.222197" lon="105.06622"><ele>1106.162</ele><time>2026-04-24T20:11:52.000Z</time></trkpt>
        <trkpt lat="28.22219" lon="105.06615"><ele>1104.404</ele><time>2026-04-24T20:15:30.000Z</time></trkpt>
        <trkpt lat="28.222168" lon="105.066203"><ele>1104.2903</ele><time>2026-04-24T20:16:28.000Z</time></trkpt>
        <trkpt lat="28.222208" lon="105.066227"><ele>1105.9952</ele><time>2026-04-24T20:17:42.000Z</time></trkpt>
        <trkpt lat="28.222149" lon="105.066239"><ele>1108.2595</ele><time>2026-04-24T20:18:47.000Z</time></trkpt>
        <trkpt lat="28.222194" lon="105.066243"><ele>1106.8583</ele><time>2026-04-24T20:18:58.000Z</time></trkpt>
        <trkpt lat="28.222166" lon="105.0662"><ele>1107.393</ele><time>2026-04-24T20:20:28.000Z</time></trkpt>
        <trkpt lat="28.222224" lon="105.066223"><ele>1105.5682</ele><time>2026-04-24T20:21:07.000Z</time></trkpt>
        <trkpt lat="28.222166" lon="105.066191"><ele>1108.3256</ele><time>2026-04-24T20:22:37.000Z</time></trkpt>
        <trkpt lat="28.222202" lon="105.066232"><ele>1107.1849</ele><time>2026-04-24T20:23:28.000Z</time></trkpt>
        <trkpt lat="28.222165" lon="105.06619"><ele>1107.9677</ele><time>2026-04-24T20:24:34.000Z</time></trkpt>
        <trkpt lat="28.222211" lon="105.066199"><ele>1106.1493</ele><time>2026-04-24T20:24:47.000Z</time></trkpt>
        <trkpt lat="28.222304" lon="105.066192"><ele>1101.5968</ele><time>2026-04-24T20:25:52.000Z</time></trkpt>
        <trkpt lat="28.222192" lon="105.066203"><ele>1105.5459</ele><time>2026-04-24T20:25:54.000Z</time></trkpt>
        <trkpt lat="28.222195" lon="105.066263"><ele>1106.9209</ele><time>2026-04-24T20:27:20.000Z</time></trkpt>
        <trkpt lat="28.22216" lon="105.066219"><ele>1106.0023</ele><time>2026-04-24T20:29:38.000Z</time></trkpt>
        <trkpt lat="28.222203" lon="105.066204"><ele>1104.8606</ele><time>2026-04-24T20:29:49.000Z</time></trkpt>
        <trkpt lat="28.222187" lon="105.066256"><ele>1105.5857</ele><time>2026-04-24T20:30:10.000Z</time></trkpt>
        <trkpt lat="28.222171" lon="105.066198"><ele>1106.17</ele><time>2026-04-24T20:30:32.000Z</time></trkpt>
        <trkpt lat="28.22213" lon="105.066226"><ele>1104.3545</ele><time>2026-04-24T20:30:46.000Z</time></trkpt>
        <trkpt lat="28.222079" lon="105.066234"><ele>1103.7183</ele><time>2026-04-24T20:30:51.000Z</time></trkpt>
        <trkpt lat="28.222032" lon="105.066241"><ele>1102.9248</ele><time>2026-04-24T20:30:56.000Z</time></trkpt>
        <trkpt lat="28.221988" lon="105.066267"><ele>1101.0688</ele><time>2026-04-24T20:31:02.000Z</time></trkpt>
        <trkpt lat="28.221942" lon="105.066277"><ele>1100.7909</ele><time>2026-04-24T20:31:06.000Z</time></trkpt>
        <trkpt lat="28.221901" lon="105.066303"><ele>1099.918</ele><time>2026-04-24T20:31:11.000Z</time></trkpt>
        <trkpt lat="28.22186" lon="105.066334"><ele>1098.8845</ele><time>2026-04-24T20:31:15.000Z</time></trkpt>
        <trkpt lat="28.221819" lon="105.066361"><ele>1098.0238</ele><time>2026-04-24T20:31:20.000Z</time></trkpt>
        <trkpt lat="28.221768" lon="105.066386"><ele>1097.0155</ele><time>2026-04-24T20:31:26.000Z</time></trkpt>
        <trkpt lat="28.221717" lon="105.06642"><ele>1094.7588</ele><time>2026-04-24T20:31:32.000Z</time></trkpt>
        <trkpt lat="28.221672" lon="105.066433"><ele>1095.0338</ele><time>2026-04-24T20:31:36.000Z</time></trkpt>
        <trkpt lat="28.221631" lon="105.066463"><ele>1092.7186</ele><time>2026-04-24T20:31:41.000Z</time></trkpt>
        <trkpt lat="28.221584" lon="105.066487"><ele>1091.9279</ele><time>2026-04-24T20:31:46.000Z</time></trkpt>
        <trkpt lat="28.221542" lon="105.06651"><ele>1089.8993</ele><time>2026-04-24T20:31:51.000Z</time></trkpt>
        <trkpt lat="28.221492" lon="105.066531"><ele>1089.4683</ele><time>2026-04-24T20:31:56.000Z</time></trkpt>
        <trkpt lat="28.221443" lon="105.066553"><ele>1088.5962</ele><time>2026-04-24T20:32:01.000Z</time></trkpt>
        <trkpt lat="28.2214" lon="105.066584"><ele>1087.3302</ele><time>2026-04-24T20:32:06.000Z</time></trkpt>
        <trkpt lat="28.221355" lon="105.066612"><ele>1086.4058</ele><time>2026-04-24T20:32:11.000Z</time></trkpt>
        <trkpt lat="28.221307" lon="105.066637"><ele>1084.7745</ele><time>2026-04-24T20:32:16.000Z</time></trkpt>
        <trkpt lat="28.221262" lon="105.066671"><ele>1084.0156</ele><time>2026-04-24T20:32:21.000Z</time></trkpt>
        <trkpt lat="28.221221" lon="105.066695"><ele>1082.3794</ele><time>2026-04-24T20:32:26.000Z</time></trkpt>
        <trkpt lat="28.221175" lon="105.066705"><ele>1081.4387</ele><time>2026-04-24T20:32:31.000Z</time></trkpt>
        <trkpt lat="28.221128" lon="105.06669"><ele>1079.97</ele><time>2026-04-24T20:32:37.000Z</time></trkpt>
        <trkpt lat="28.221083" lon="105.066673"><ele>1078.8472</ele><time>2026-04-24T20:32:42.000Z</time></trkpt>
        <trkpt lat="28.22103" lon="105.066672"><ele>1078.6368</ele><time>2026-04-24T20:32:47.000Z</time></trkpt>
        <trkpt lat="28.220981" lon="105.066657"><ele>1077.4509</ele><time>2026-04-24T20:32:52.000Z</time></trkpt>
        <trkpt lat="28.220933" lon="105.066634"><ele>1076.1874</ele><time>2026-04-24T20:32:57.000Z</time></trkpt>
        <trkpt lat="28.220888" lon="105.066625"><ele>1075.4558</ele><time>2026-04-24T20:33:01.000Z</time></trkpt>
        <trkpt lat="28.220839" lon="105.066607"><ele>1074.3873</ele><time>2026-04-24T20:33:06.000Z</time></trkpt>
        <trkpt lat="28.220795" lon="105.066579"><ele>1074.856</ele><time>2026-04-24T20:33:10.000Z</time></trkpt>
        <trkpt lat="28.220754" lon="105.066546"><ele>1074.311</ele><time>2026-04-24T20:33:15.000Z</time></trkpt>
        <trkpt lat="28.220719" lon="105.066511"><ele>1074.1626</ele><time>2026-04-24T20:33:19.000Z</time></trkpt>
        <trkpt lat="28.220687" lon="105.066475"><ele>1073.8419</ele><time>2026-04-24T20:33:24.000Z</time></trkpt>
        <trkpt lat="28.220654" lon="105.066436"><ele>1073.263</ele><time>2026-04-24T20:33:29.000Z</time></trkpt>
        <trkpt lat="28.220608" lon="105.066426"><ele>1073.2611</ele><time>2026-04-24T20:33:33.000Z</time></trkpt>
        <trkpt lat="28.220551" lon="105.066421"><ele>1072.0542</ele><time>2026-04-24T20:33:39.000Z</time></trkpt>
        <trkpt lat="28.220504" lon="105.066437"><ele>1069.9028</ele><time>2026-04-24T20:33:45.000Z</time></trkpt>
        <trkpt lat="28.220457" lon="105.066452"><ele>1068.5278</ele><time>2026-04-24T20:33:50.000Z</time></trkpt>
        <trkpt lat="28.220418" lon="105.066479"><ele>1069.4465</ele><time>2026-04-24T20:33:54.000Z</time></trkpt>
        <trkpt lat="28.220371" lon="105.066505"><ele>1067.469</ele><time>2026-04-24T20:33:59.000Z</time></trkpt>
        <trkpt lat="28.220334" lon="105.066536"><ele>1066.2728</ele><time>2026-04-24T20:34:03.000Z</time></trkpt>
        <trkpt lat="28.220299" lon="105.066576"><ele>1063.9209</ele><time>2026-04-24T20:34:08.000Z</time></trkpt>
        <trkpt lat="28.220266" lon="105.066621"><ele>1062.6337</ele><time>2026-04-24T20:34:13.000Z</time></trkpt>
        <trkpt lat="28.22024" lon="105.066663"><ele>1061.4346</ele><time>2026-04-24T20:34:17.000Z</time></trkpt>
        <trkpt lat="28.220224" lon="105.066719"><ele>1061.1321</ele><time>2026-04-24T20:34:22.000Z</time></trkpt>
        <trkpt lat="28.220211" lon="105.066769"><ele>1061.246</ele><time>2026-04-24T20:34:26.000Z</time></trkpt>
        <trkpt lat="28.220179" lon="105.066808"><ele>1059.5125</ele><time>2026-04-24T20:34:30.000Z</time></trkpt>
        <trkpt lat="28.220153" lon="105.066857"><ele>1058.8142</ele><time>2026-04-24T20:34:34.000Z</time></trkpt>
        <trkpt lat="28.220137" lon="105.066911"><ele>1059.8369</ele><time>2026-04-24T20:34:38.000Z</time></trkpt>
        <trkpt lat="28.220105" lon="105.066959"><ele>1058.8074</ele><time>2026-04-24T20:34:43.000Z</time></trkpt>
        <trkpt lat="28.220074" lon="105.067006"><ele>1058.217</ele><time>2026-04-24T20:34:48.000Z</time></trkpt>
        <trkpt lat="28.220035" lon="105.067039"><ele>1058.2396</ele><time>2026-04-24T20:34:52.000Z</time></trkpt>
        <trkpt lat="28.21999" lon="105.067069"><ele>1057.6498</ele><time>2026-04-24T20:34:57.000Z</time></trkpt>
        <trkpt lat="28.21995" lon="105.067103"><ele>1057.0895</ele><time>2026-04-24T20:35:01.000Z</time></trkpt>
        <trkpt lat="28.219905" lon="105.067122"><ele>1056.9133</ele><time>2026-04-24T20:35:05.000Z</time></trkpt>
        <trkpt lat="28.219859" lon="105.06715"><ele>1057.0703</ele><time>2026-04-24T20:35:10.000Z</time></trkpt>
        <trkpt lat="28.219817" lon="105.067179"><ele>1057.8894</ele><time>2026-04-24T20:35:14.000Z</time></trkpt>
        <trkpt lat="28.219774" lon="105.067204"><ele>1056.8973</ele><time>2026-04-24T20:35:18.000Z</time></trkpt>
        <trkpt lat="28.219728" lon="105.067235"><ele>1056.4983</ele><time>2026-04-24T20:35:23.000Z</time></trkpt>
        <trkpt lat="28.219688" lon="105.067261"><ele>1055.4629</ele><time>2026-04-24T20:35:27.000Z</time></trkpt>
        <trkpt lat="28.219649" lon="105.067291"><ele>1054.1136</ele><time>2026-04-24T20:35:31.000Z</time></trkpt>
        <trkpt lat="28.21961" lon="105.067339"><ele>1053.7938</ele><time>2026-04-24T20:35:36.000Z</time></trkpt>
        <trkpt lat="28.21958" lon="105.067388"><ele>1053.6869</ele><time>2026-04-24T20:35:40.000Z</time></trkpt>
        <trkpt lat="28.219559" lon="105.067442"><ele>1052.8735</ele><time>2026-04-24T20:35:44.000Z</time></trkpt>
        <trkpt lat="28.219546" lon="105.067493"><ele>1052.1356</ele><time>2026-04-24T20:35:48.000Z</time></trkpt>
        <trkpt lat="28.219545" lon="105.067549"><ele>1051.8053</ele><time>2026-04-24T20:35:52.000Z</time></trkpt>
        <trkpt lat="28.219545" lon="105.06761"><ele>1051.9753</ele><time>2026-04-24T20:35:56.000Z</time></trkpt>
        <trkpt lat="28.219556" lon="105.067671"><ele>1051.34</ele><time>2026-04-24T20:36:01.000Z</time></trkpt>
        <trkpt lat="28.219574" lon="105.067726"><ele>1050.728</ele><time>2026-04-24T20:36:06.000Z</time></trkpt>
        <trkpt lat="28.219594" lon="105.067776"><ele>1049.8617</ele><time>2026-04-24T20:36:11.000Z</time></trkpt>
        <trkpt lat="28.219613" lon="105.067826"><ele>1048.6903</ele><time>2026-04-24T20:36:16.000Z</time></trkpt>
        <trkpt lat="28.21963" lon="105.067874"><ele>1048.5011</ele><time>2026-04-24T20:36:20.000Z</time></trkpt>
        <trkpt lat="28.21964" lon="105.067932"><ele>1048.1427</ele><time>2026-04-24T20:36:25.000Z</time></trkpt>
        <trkpt lat="28.219598" lon="105.067956"><ele>1047.9152</ele><time>2026-04-24T20:36:29.000Z</time></trkpt>
        <trkpt lat="28.219542" lon="105.067966"><ele>1047.746</ele><time>2026-04-24T20:36:34.000Z</time></trkpt>
        <trkpt lat="28.219502" lon="105.067934"><ele>1046.4752</ele><time>2026-04-24T20:36:38.000Z</time></trkpt>
        <trkpt lat="28.219467" lon="105.067894"><ele>1045.8867</ele><time>2026-04-24T20:36:43.000Z</time></trkpt>
        <trkpt lat="28.219426" lon="105.067862"><ele>1045.5728</ele><time>2026-04-24T20:36:47.000Z</time></trkpt>
        <trkpt lat="28.21939" lon="105.067825"><ele>1045.6227</ele><time>2026-04-24T20:36:51.000Z</time></trkpt>
        <trkpt lat="28.219345" lon="105.067792"><ele>1044.4088</ele><time>2026-04-24T20:36:56.000Z</time></trkpt>
        <trkpt lat="28.219297" lon="105.067756"><ele>1043.803</ele><time>2026-04-24T20:37:01.000Z</time></trkpt>
        <trkpt lat="28.219265" lon="105.067705"><ele>1043.7472</ele><time>2026-04-24T20:37:06.000Z</time></trkpt>
        <trkpt lat="28.219224" lon="105.067663"><ele>1043.994</ele><time>2026-04-24T20:37:11.000Z</time></trkpt>
        <trkpt lat="28.219192" lon="105.06762"><ele>1043.827</ele><time>2026-04-24T20:37:15.000Z</time></trkpt>
        <trkpt lat="28.219158" lon="105.067577"><ele>1042.4877</ele><time>2026-04-24T20:37:19.000Z</time></trkpt>
        <trkpt lat="28.219137" lon="105.06753"><ele>1043.1238</ele><time>2026-04-24T20:37:23.000Z</time></trkpt>
        <trkpt lat="28.21912" lon="105.067482"><ele>1043.0051</ele><time>2026-04-24T20:37:27.000Z</time></trkpt>
        <trkpt lat="28.219106" lon="105.067427"><ele>1042.5186</ele><time>2026-04-24T20:37:31.000Z</time></trkpt>
        <trkpt lat="28.219107" lon="105.067372"><ele>1042.1709</ele><time>2026-04-24T20:37:35.000Z</time></trkpt>
        <trkpt lat="28.219109" lon="105.067316"><ele>1041.9629</ele><time>2026-04-24T20:37:39.000Z</time></trkpt>
        <trkpt lat="28.219132" lon="105.067266"><ele>1041.0898</ele><time>2026-04-24T20:37:43.000Z</time></trkpt>
        <trkpt lat="28.219154" lon="105.067216"><ele>1041.1864</ele><time>2026-04-24T20:37:47.000Z</time></trkpt>
        <trkpt lat="28.219174" lon="105.067162"><ele>1040.8229</ele><time>2026-04-24T20:37:51.000Z</time></trkpt>
        <trkpt lat="28.219206" lon="105.06712"><ele>1039.6132</ele><time>2026-04-24T20:37:54.000Z</time></trkpt>
        <trkpt lat="28.219225" lon="105.067061"><ele>1039.5514</ele><time>2026-04-24T20:37:58.000Z</time></trkpt>
        <trkpt lat="28.21925" lon="105.067015"><ele>1037.9834</ele><time>2026-04-24T20:38:02.000Z</time></trkpt>
        <trkpt lat="28.219274" lon="105.066951"><ele>1039.3579</ele><time>2026-04-24T20:38:07.000Z</time></trkpt>
        <trkpt lat="28.219272" lon="105.066895"><ele>1036.9169</ele><time>2026-04-24T20:38:11.000Z</time></trkpt>
        <trkpt lat="28.219234" lon="105.066849"><ele>1037.3483</ele><time>2026-04-24T20:38:16.000Z</time></trkpt>
        <trkpt lat="28.219193" lon="105.066811"><ele>1035.9949</ele><time>2026-04-24T20:38:20.000Z</time></trkpt>
        <trkpt lat="28.219154" lon="105.066778"><ele>1034.9658</ele><time>2026-04-24T20:38:24.000Z</time></trkpt>
        <trkpt lat="28.219101" lon="105.06676"><ele>1034.268</ele><time>2026-04-24T20:38:28.000Z</time></trkpt>
        <trkpt lat="28.219073" lon="105.066703"><ele>1032.3293</ele><time>2026-04-24T20:38:34.000Z</time></trkpt>
        <trkpt lat="28.219049" lon="105.066659"><ele>1032.7888</ele><time>2026-04-24T20:38:38.000Z</time></trkpt>
        <trkpt lat="28.219066" lon="105.066607"><ele>1032.5173</ele><time>2026-04-24T20:38:42.000Z</time></trkpt>
        <trkpt lat="28.219054" lon="105.066551"><ele>1031.3743</ele><time>2026-04-24T20:38:46.000Z</time></trkpt>
        <trkpt lat="28.21904" lon="105.066496"><ele>1033.3994</ele><time>2026-04-24T20:38:51.000Z</time></trkpt>
        <trkpt lat="28.219038" lon="105.066441"><ele>1031.0001</ele><time>2026-04-24T20:38:55.000Z</time></trkpt>
        <trkpt lat="28.219002" lon="105.066383"><ele>1029.43</ele><time>2026-04-24T20:39:00.000Z</time></trkpt>
        <trkpt lat="28.218965" lon="105.066337"><ele>1029.6821</ele><time>2026-04-24T20:39:05.000Z</time></trkpt>
        <trkpt lat="28.21892" lon="105.066322"><ele>1029.9265</ele><time>2026-04-24T20:39:09.000Z</time></trkpt>
        <trkpt lat="28.218867" lon="105.066314"><ele>1029.2968</ele><time>2026-04-24T20:39:13.000Z</time></trkpt>
        <trkpt lat="28.218818" lon="105.066311"><ele>1029.1893</ele><time>2026-04-24T20:39:17.000Z</time></trkpt>
        <trkpt lat="28.218771" lon="105.066336"><ele>1028.3552</ele><time>2026-04-24T20:39:21.000Z</time></trkpt>
        <trkpt lat="28.218727" lon="105.066349"><ele>1028.209</ele><time>2026-04-24T20:39:25.000Z</time></trkpt>
        <trkpt lat="28.218674" lon="105.066348"><ele>1027.0067</ele><time>2026-04-24T20:39:29.000Z</time></trkpt>
        <trkpt lat="28.218626" lon="105.066351"><ele>1026.8497</ele><time>2026-04-24T20:39:33.000Z</time></trkpt>
        <trkpt lat="28.218576" lon="105.06635"><ele>1026.6384</ele><time>2026-04-24T20:39:37.000Z</time></trkpt>
        <trkpt lat="28.218527" lon="105.066345"><ele>1026.4681</ele><time>2026-04-24T20:39:41.000Z</time></trkpt>
        <trkpt lat="28.218485" lon="105.066319"><ele>1025.4414</ele><time>2026-04-24T20:39:45.000Z</time></trkpt>
        <trkpt lat="28.218431" lon="105.066304"><ele>1025.732</ele><time>2026-04-24T20:39:50.000Z</time></trkpt>
        <trkpt lat="28.218385" lon="105.066276"><ele>1026.5441</ele><time>2026-04-24T20:39:53.000Z</time></trkpt>
        <trkpt lat="28.218336" lon="105.066289"><ele>1025.2472</ele><time>2026-04-24T20:39:58.000Z</time></trkpt>
        <trkpt lat="28.218278" lon="105.066286"><ele>1024.2695</ele><time>2026-04-24T20:40:03.000Z</time></trkpt>
        <trkpt lat="28.218225" lon="105.066257"><ele>1024.011</ele><time>2026-04-24T20:40:08.000Z</time></trkpt>
        <trkpt lat="28.218186" lon="105.066232"><ele>1024.1064</ele><time>2026-04-24T20:40:12.000Z</time></trkpt>
        <trkpt lat="28.218145" lon="105.06621"><ele>1023.1108</ele><time>2026-04-24T20:40:16.000Z</time></trkpt>
        <trkpt lat="28.218099" lon="105.066186"><ele>1020.90564</ele><time>2026-04-24T20:40:23.000Z</time></trkpt>
        <trkpt lat="28.218043" lon="105.066139"><ele>1022.0573</ele><time>2026-04-24T20:40:29.000Z</time></trkpt>
        <trkpt lat="28.217998" lon="105.06612"><ele>1021.61127</ele><time>2026-04-24T20:40:32.000Z</time></trkpt>
        <trkpt lat="28.217952" lon="105.066126"><ele>1023.47894</ele><time>2026-04-24T20:40:37.000Z</time></trkpt>
        <trkpt lat="28.217899" lon="105.066137"><ele>1020.6978</ele><time>2026-04-24T20:40:41.000Z</time></trkpt>
        <trkpt lat="28.217842" lon="105.066141"><ele>1020.00433</ele><time>2026-04-24T20:40:46.000Z</time></trkpt>
        <trkpt lat="28.217794" lon="105.066171"><ele>1018.8048</ele><time>2026-04-24T20:40:50.000Z</time></trkpt>
        <trkpt lat="28.217744" lon="105.066178"><ele>1017.0715</ele><time>2026-04-24T20:40:55.000Z</time></trkpt>
        <trkpt lat="28.217697" lon="105.066188"><ele>1015.0954</ele><time>2026-04-24T20:41:00.000Z</time></trkpt>
        <trkpt lat="28.21765" lon="105.066206"><ele>1014.1883</ele><time>2026-04-24T20:41:05.000Z</time></trkpt>
        <trkpt lat="28.217606" lon="105.066238"><ele>1013.00104</ele><time>2026-04-24T20:41:10.000Z</time></trkpt>
        <trkpt lat="28.217558" lon="105.066257"><ele>1010.2846</ele><time>2026-04-24T20:41:15.000Z</time></trkpt>
        <trkpt lat="28.217509" lon="105.066266"><ele>1008.8234</ele><time>2026-04-24T20:41:21.000Z</time></trkpt>
        <trkpt lat="28.217465" lon="105.066288"><ele>1008.2724</ele><time>2026-04-24T20:41:26.000Z</time></trkpt>
        <trkpt lat="28.217418" lon="105.066304"><ele>1008.05707</ele><time>2026-04-24T20:41:31.000Z</time></trkpt>
        <trkpt lat="28.217372" lon="105.066307"><ele>1007.4693</ele><time>2026-04-24T20:41:36.000Z</time></trkpt>
        <trkpt lat="28.217324" lon="105.0663"><ele>1006.8804</ele><time>2026-04-24T20:41:46.000Z</time></trkpt>
        <trkpt lat="28.217276" lon="105.066282"><ele>1006.5461</ele><time>2026-04-24T20:41:51.000Z</time></trkpt>
        <trkpt lat="28.217232" lon="105.066267"><ele>1005.20795</ele><time>2026-04-24T20:41:55.000Z</time></trkpt>
        <trkpt lat="28.217185" lon="105.066288"><ele>1005.2221</ele><time>2026-04-24T20:42:01.000Z</time></trkpt>
        <trkpt lat="28.217139" lon="105.066288"><ele>1001.5862</ele><time>2026-04-24T20:42:28.000Z</time></trkpt>
        <trkpt lat="28.217093" lon="105.066276"><ele>1000.64185</ele><time>2026-04-24T20:42:42.000Z</time></trkpt>
        <trkpt lat="28.217055" lon="105.066247"><ele>999.4874</ele><time>2026-04-24T20:42:49.000Z</time></trkpt>
        <trkpt lat="28.217031" lon="105.066202"><ele>998.644</ele><time>2026-04-24T20:42:55.000Z</time></trkpt>
        <trkpt lat="28.21705" lon="105.066148"><ele>999.8173</ele><time>2026-04-24T20:43:02.000Z</time></trkpt>
        <trkpt lat="28.217005" lon="105.066113"><ele>1001.89044</ele><time>2026-04-24T20:43:05.000Z</time></trkpt>
        <trkpt lat="28.216971" lon="105.066071"><ele>994.2828</ele><time>2026-04-24T20:43:16.000Z</time></trkpt>
        <trkpt lat="28.216967" lon="105.065975"><ele>993.4153</ele><time>2026-04-24T20:43:31.000Z</time></trkpt>
        <trkpt lat="28.216916" lon="105.065983"><ele>991.75616</ele><time>2026-04-24T20:43:41.000Z</time></trkpt>
        <trkpt lat="28.216891" lon="105.06593"><ele>991.5518</ele><time>2026-04-24T20:43:48.000Z</time></trkpt>
        <trkpt lat="28.216832" lon="105.06593"><ele>988.41254</ele><time>2026-04-24T20:43:53.000Z</time></trkpt>
        <trkpt lat="28.216796" lon="105.065969"><ele>994.99243</ele><time>2026-04-24T20:44:04.000Z</time></trkpt>
        <trkpt lat="28.216796" lon="105.065916"><ele>993.63196</ele><time>2026-04-24T20:44:11.000Z</time></trkpt>
        <trkpt lat="28.216789" lon="105.065861"><ele>993.87836</ele><time>2026-04-24T20:44:14.000Z</time></trkpt>
        <trkpt lat="28.216772" lon="105.065798"><ele>990.83496</ele><time>2026-04-24T20:44:16.000Z</time></trkpt>
        <trkpt lat="28.216746" lon="105.065744"><ele>987.7596</ele><time>2026-04-24T20:44:24.000Z</time></trkpt>
        <trkpt lat="28.216719" lon="105.065695"><ele>986.9329</ele><time>2026-04-24T20:44:29.000Z</time></trkpt>
        <trkpt lat="28.216671" lon="105.065666"><ele>988.39813</ele><time>2026-04-24T20:44:32.000Z</time></trkpt>
        <trkpt lat="28.216654" lon="105.065619"><ele>990.00885</ele><time>2026-04-24T20:44:38.000Z</time></trkpt>
        <trkpt lat="28.216612" lon="105.06565"><ele>993.88995</ele><time>2026-04-24T20:44:49.000Z</time></trkpt>
        <trkpt lat="28.21659" lon="105.065697"><ele>994.33093</ele><time>2026-04-24T20:44:55.000Z</time></trkpt>
        <trkpt lat="28.216538" lon="105.065671"><ele>994.0624</ele><time>2026-04-24T20:45:01.000Z</time></trkpt>
        <trkpt lat="28.21655" lon="105.065612"><ele>996.8029</ele><time>2026-04-24T20:45:10.000Z</time></trkpt>
        <trkpt lat="28.216491" lon="105.065605"><ele>997.12933</ele><time>2026-04-24T20:45:17.000Z</time></trkpt>
        <trkpt lat="28.216448" lon="105.065627"><ele>993.60004</ele><time>2026-04-24T20:45:36.000Z</time></trkpt>
        <trkpt lat="28.216242" lon="105.065753"><ele>993.98315</ele><time>2026-04-24T20:45:53.000Z</time></trkpt>
        <trkpt lat="28.216263" lon="105.065615"><ele>991.0211</ele><time>2026-04-24T20:45:58.000Z</time></trkpt>
        <trkpt lat="28.216246" lon="105.065533"><ele>982.1217</ele><time>2026-04-24T20:46:03.000Z</time></trkpt>
        <trkpt lat="28.216405" lon="105.065317"><ele>999.3689</ele><time>2026-04-24T20:46:10.000Z</time></trkpt>
        <trkpt lat="28.216074" lon="105.065412"><ele>995.2226</ele><time>2026-04-24T20:46:27.000Z</time></trkpt>
        <trkpt lat="28.215842" lon="105.065495"><ele>998.98474</ele><time>2026-04-24T20:46:41.000Z</time></trkpt>
        <trkpt lat="28.215773" lon="105.065381"><ele>1013.15845</ele><time>2026-04-24T20:47:09.000Z</time></trkpt>
        <trkpt lat="28.216091" lon="105.06527"><ele>1000.60077</ele><time>2026-04-24T20:47:19.000Z</time></trkpt>
        <trkpt lat="28.216103" lon="105.065264"><ele>1000.5157</ele><time>2026-04-24T20:47:21.000Z</time></trkpt>
        <trkpt lat="28.216103" lon="105.065321"><ele>998.205</ele><time>2026-04-24T20:47:29.000Z</time></trkpt>
        <trkpt lat="28.216077" lon="105.065387"><ele>995.9521</ele><time>2026-04-24T20:47:36.000Z</time></trkpt>
        <trkpt lat="28.216048" lon="105.065471"><ele>950.5193</ele><time>2026-04-24T20:47:42.000Z</time></trkpt>
        <trkpt lat="28.215954" lon="105.065423"><ele>973.9878</ele><time>2026-04-24T20:47:54.000Z</time></trkpt>
        <trkpt lat="28.21594" lon="105.065484"><ele>1029.9156</ele><time>2026-04-24T20:48:16.000Z</time></trkpt>
        <trkpt lat="28.216174" lon="105.065633"><ele>1027.7083</ele><time>2026-04-24T20:48:25.000Z</time></trkpt>
        <trkpt lat="28.216072" lon="105.06532"><ele>894.4645</ele><time>2026-04-24T20:49:38.000Z</time></trkpt>
        <trkpt lat="28.216126" lon="105.065256"><ele>900.97266</ele><time>2026-04-24T20:49:50.000Z</time></trkpt>
        <trkpt lat="28.216097" lon="105.065216"><ele>906.6781</ele><time>2026-04-24T20:49:54.000Z</time></trkpt>
        <trkpt lat="28.216148" lon="105.065252"><ele>904.948</ele><time>2026-04-24T20:50:03.000Z</time></trkpt>
        <trkpt lat="28.216194" lon="105.065303"><ele>904.2046</ele><time>2026-04-24T20:50:07.000Z</time></trkpt>
        <trkpt lat="28.216215" lon="105.06536"><ele>904.4409</ele><time>2026-04-24T20:50:10.000Z</time></trkpt>
        <trkpt lat="28.216297" lon="105.065465"><ele>908.7339</ele><time>2026-04-24T20:50:20.000Z</time></trkpt>
        <trkpt lat="28.215892" lon="105.065343"><ele>1101.0234</ele><time>2026-04-24T20:50:38.000Z</time></trkpt>
        <trkpt lat="28.215751" lon="105.065388"><ele>1029.5791</ele><time>2026-04-24T20:51:41.000Z</time></trkpt>
        <trkpt lat="28.215912" lon="105.065084"><ele>1090.1716</ele><time>2026-04-24T20:54:07.000Z</time></trkpt>
        <trkpt lat="28.216337" lon="105.064317"><ele>1120.8711</ele><time>2026-04-24T21:03:43.000Z</time></trkpt>
        <trkpt lat="28.216482" lon="105.064228"><ele>1115.6577</ele><time>2026-04-24T21:03:52.000Z</time></trkpt>
        <trkpt lat="28.216522" lon="105.064203"><ele>1116.3351</ele><time>2026-04-24T21:03:54.000Z</time></trkpt>
        <trkpt lat="28.216579" lon="105.064179"><ele>1117.3</ele><time>2026-04-24T21:03:56.000Z</time></trkpt>
        <trkpt lat="28.216708" lon="105.064166"><ele>1120.9697</ele><time>2026-04-24T21:04:09.000Z</time></trkpt>
        <trkpt lat="28.216421" lon="105.064257"><ele>1089.1027</ele><time>2026-04-24T21:04:20.000Z</time></trkpt>
        <trkpt lat="28.216412" lon="105.064251"><ele>1084.9456</ele><time>2026-04-24T21:04:22.000Z</time></trkpt>
        <trkpt lat="28.216279" lon="105.064311"><ele>1124.268</ele><time>2026-04-24T21:04:24.000Z</time></trkpt>
        <trkpt lat="28.216134" lon="105.064275"><ele>1123.3236</ele><time>2026-04-24T21:04:25.000Z</time></trkpt>
        <trkpt lat="28.216099" lon="105.064157"><ele>1119.5955</ele><time>2026-04-24T21:04:32.000Z</time></trkpt>
        <trkpt lat="28.215992" lon="105.064191"><ele>1096.2657</ele><time>2026-04-24T21:04:37.000Z</time></trkpt>
        <trkpt lat="28.216065" lon="105.064133"><ele>1098.4816</ele><time>2026-04-24T21:04:46.000Z</time></trkpt>
        <trkpt lat="28.216093" lon="105.064065"><ele>1088.7738</ele><time>2026-04-24T21:04:48.000Z</time></trkpt>
        <trkpt lat="28.216126" lon="105.064004"><ele>1077.648</ele><time>2026-04-24T21:04:51.000Z</time></trkpt>
        <trkpt lat="28.216006" lon="105.064324"><ele>1118.8884</ele><time>2026-04-24T21:05:00.000Z</time></trkpt>
        <trkpt lat="28.215532" lon="105.064362"><ele>1118.002</ele><time>2026-04-24T21:05:26.000Z</time></trkpt>
        <trkpt lat="28.215442" lon="105.064377"><ele>1117.9731</ele><time>2026-04-24T21:05:34.000Z</time></trkpt>
        <trkpt lat="28.215398" lon="105.064312"><ele>1117.3433</ele><time>2026-04-24T21:05:41.000Z</time></trkpt>
        <trkpt lat="28.215369" lon="105.06427"><ele>1117.5453</ele><time>2026-04-24T21:05:44.000Z</time></trkpt>
        <trkpt lat="28.215821" lon="105.063443"><ele>1119.7666</ele><time>2026-04-24T21:05:47.000Z</time></trkpt>
        <trkpt lat="28.21578" lon="105.063502"><ele>1117.4785</ele><time>2026-04-24T21:05:53.000Z</time></trkpt>
        <trkpt lat="28.215812" lon="105.063544"><ele>1077.6366</ele><time>2026-04-24T21:06:01.000Z</time></trkpt>
        <trkpt lat="28.215778" lon="105.063602"><ele>1088.534</ele><time>2026-04-24T21:06:05.000Z</time></trkpt>
        <trkpt lat="28.215652" lon="105.063701"><ele>1096.8806</ele><time>2026-04-24T21:06:26.000Z</time></trkpt>
        <trkpt lat="28.21583" lon="105.063549"><ele>1029.5093</ele><time>2026-04-24T21:07:09.000Z</time></trkpt>
        <trkpt lat="28.215511" lon="105.063532"><ele>1120.3397</ele><time>2026-04-24T21:07:20.000Z</time></trkpt>
        <trkpt lat="28.215466" lon="105.063518"><ele>1122.1494</ele><time>2026-04-24T21:07:23.000Z</time></trkpt>
        <trkpt lat="28.215436" lon="105.063476"><ele>1123.9552</ele><time>2026-04-24T21:07:27.000Z</time></trkpt>
        <trkpt lat="28.215435" lon="105.06342"><ele>1128.8245</ele><time>2026-04-24T21:07:32.000Z</time></trkpt>
        <trkpt lat="28.21588" lon="105.063421"><ele>1115.7314</ele><time>2026-04-24T21:07:43.000Z</time></trkpt>
        <trkpt lat="28.21583" lon="105.063414"><ele>1112.3738</ele><time>2026-04-24T21:07:48.000Z</time></trkpt>
        <trkpt lat="28.215824" lon="105.06347"><ele>1110.9323</ele><time>2026-04-24T21:07:52.000Z</time></trkpt>
        <trkpt lat="28.215869" lon="105.063404"><ele>1110.7454</ele><time>2026-04-24T21:07:53.000Z</time></trkpt>
        <trkpt lat="28.215925" lon="105.06336"><ele>1110.694</ele><time>2026-04-24T21:07:55.000Z</time></trkpt>
        <trkpt lat="28.215961" lon="105.063328"><ele>1110.8026</ele><time>2026-04-24T21:07:57.000Z</time></trkpt>
        <trkpt lat="28.216098" lon="105.063185"><ele>1111.4797</ele><time>2026-04-24T21:08:00.000Z</time></trkpt>
        <trkpt lat="28.216154" lon="105.063112"><ele>1111.3444</ele><time>2026-04-24T21:08:01.000Z</time></trkpt>
        <trkpt lat="28.216187" lon="105.063071"><ele>1109.3325</ele><time>2026-04-24T21:08:02.000Z</time></trkpt>
        <trkpt lat="28.216216" lon="105.063001"><ele>1110.2611</ele><time>2026-04-24T21:08:03.000Z</time></trkpt>
        <trkpt lat="28.216252" lon="105.062963"><ele>1113.9296</ele><time>2026-04-24T21:08:04.000Z</time></trkpt>
        <trkpt lat="28.216323" lon="105.0629"><ele>1111.9888</ele><time>2026-04-24T21:08:06.000Z</time></trkpt>
        <trkpt lat="28.215573" lon="105.063115"><ele>1111.2982</ele><time>2026-04-24T21:08:12.000Z</time></trkpt>
        <trkpt lat="28.215436" lon="105.063171"><ele>1112.4795</ele><time>2026-04-24T21:08:13.000Z</time></trkpt>
        <trkpt lat="28.215509" lon="105.063127"><ele>1110.8573</ele><time>2026-04-24T21:08:14.000Z</time></trkpt>
        <trkpt lat="28.215494" lon="105.063114"><ele>1111.4692</ele><time>2026-04-24T21:08:15.000Z</time></trkpt>
        <trkpt lat="28.215547" lon="105.063054"><ele>1112.2964</ele><time>2026-04-24T21:08:18.000Z</time></trkpt>
        <trkpt lat="28.215403" lon="105.063127"><ele>1114.146</ele><time>2026-04-24T21:08:28.000Z</time></trkpt>
        <trkpt lat="28.215382" lon="105.063147"><ele>1112.8483</ele><time>2026-04-24T21:08:30.000Z</time></trkpt>
        <trkpt lat="28.215422" lon="105.063123"><ele>1108.2092</ele><time>2026-04-24T21:08:37.000Z</time></trkpt>
        <trkpt lat="28.215404" lon="105.063173"><ele>1105.0399</ele><time>2026-04-24T21:08:43.000Z</time></trkpt>
        <trkpt lat="28.215461" lon="105.063129"><ele>1105.8079</ele><time>2026-04-24T21:08:46.000Z</time></trkpt>
        <trkpt lat="28.215636" lon="105.062744"><ele>1105.301</ele><time>2026-04-24T21:08:54.000Z</time></trkpt>
        <trkpt lat="28.215539" lon="105.062577"><ele>1103.0858</ele><time>2026-04-24T21:09:05.000Z</time></trkpt>
        <trkpt lat="28.215531" lon="105.062552"><ele>1102.5737</ele><time>2026-04-24T21:09:06.000Z</time></trkpt>
        <trkpt lat="28.215674" lon="105.062625"><ele>1101.4176</ele><time>2026-04-24T21:09:24.000Z</time></trkpt>
        <trkpt lat="28.215621" lon="105.06255"><ele>1100.3027</ele><time>2026-04-24T21:09:27.000Z</time></trkpt>
        <trkpt lat="28.215466" lon="105.062248"><ele>1099.2662</ele><time>2026-04-24T21:09:39.000Z</time></trkpt>
        <trkpt lat="28.21554" lon="105.062207"><ele>1100.5537</ele><time>2026-04-24T21:09:44.000Z</time></trkpt>
        <trkpt lat="28.215583" lon="105.062187"><ele>1101.6836</ele><time>2026-04-24T21:09:47.000Z</time></trkpt>
        <trkpt lat="28.215634" lon="105.062176"><ele>1102.1948</ele><time>2026-04-24T21:09:52.000Z</time></trkpt>
        <trkpt lat="28.215708" lon="105.062152"><ele>1102.6835</ele><time>2026-04-24T21:09:58.000Z</time></trkpt>
        <trkpt lat="28.215761" lon="105.062157"><ele>1103.4729</ele><time>2026-04-24T21:10:03.000Z</time></trkpt>
        <trkpt lat="28.215806" lon="105.062147"><ele>1103.0779</ele><time>2026-04-24T21:10:09.000Z</time></trkpt>
        <trkpt lat="28.215852" lon="105.06213"><ele>1102.5402</ele><time>2026-04-24T21:10:14.000Z</time></trkpt>
        <trkpt lat="28.215883" lon="105.062106"><ele>1098.5226</ele><time>2026-04-24T21:10:26.000Z</time></trkpt>
        <trkpt lat="28.215905" lon="105.062154"><ele>1096.718</ele><time>2026-04-24T21:10:36.000Z</time></trkpt>
        <trkpt lat="28.215882" lon="105.062206"><ele>1096.331</ele><time>2026-04-24T21:10:43.000Z</time></trkpt>
        <trkpt lat="28.215903" lon="105.06216"><ele>1096.7078</ele><time>2026-04-24T21:11:02.000Z</time></trkpt>
        <trkpt lat="28.215944" lon="105.06213"><ele>1096.8494</ele><time>2026-04-24T21:11:08.000Z</time></trkpt>
        <trkpt lat="28.215985" lon="105.062104"><ele>1095.6726</ele><time>2026-04-24T21:11:27.000Z</time></trkpt>
        <trkpt lat="28.215978" lon="105.062155"><ele>1094.4772</ele><time>2026-04-24T21:11:36.000Z</time></trkpt>
        <trkpt lat="28.215992" lon="105.062205"><ele>1095.3722</ele><time>2026-04-24T21:11:46.000Z</time></trkpt>
        <trkpt lat="28.21604" lon="105.062187"><ele>1098.1823</ele><time>2026-04-24T21:12:03.000Z</time></trkpt>
        <trkpt lat="28.216065" lon="105.062142"><ele>1096.148</ele><time>2026-04-24T21:12:09.000Z</time></trkpt>
        <trkpt lat="28.216107" lon="105.062124"><ele>1095.407</ele><time>2026-04-24T21:12:28.000Z</time></trkpt>
        <trkpt lat="28.216145" lon="105.062158"><ele>1095.9674</ele><time>2026-04-24T21:13:05.000Z</time></trkpt>
        <trkpt lat="28.216129" lon="105.06221"><ele>1098.087</ele><time>2026-04-24T21:13:20.000Z</time></trkpt>
        <trkpt lat="28.216161" lon="105.062174"><ele>1100.1483</ele><time>2026-04-24T21:13:46.000Z</time></trkpt>
        <trkpt lat="28.216196" lon="105.062142"><ele>1100.6473</ele><time>2026-04-24T21:14:07.000Z</time></trkpt>
        <trkpt lat="28.216243" lon="105.062124"><ele>1099.144</ele><time>2026-04-24T21:14:16.000Z</time></trkpt>
        <trkpt lat="28.21629" lon="105.062148"><ele>1099.6355</ele><time>2026-04-24T21:14:28.000Z</time></trkpt>
        <trkpt lat="28.21629" lon="105.062201"><ele>1099.9032</ele><time>2026-04-24T21:14:32.000Z</time></trkpt>
        <trkpt lat="28.21632" lon="105.062239"><ele>1101.0205</ele><time>2026-04-24T21:15:14.000Z</time></trkpt>
        <trkpt lat="28.216344" lon="105.06219"><ele>1101.0908</ele><time>2026-04-24T21:15:59.000Z</time></trkpt>
        <trkpt lat="28.216379" lon="105.062151"><ele>1101.7959</ele><time>2026-04-24T21:16:05.000Z</time></trkpt>
        <trkpt lat="28.216382" lon="105.062084"><ele>1102.4865</ele><time>2026-04-24T21:16:18.000Z</time></trkpt>
        <trkpt lat="28.216378" lon="105.062027"><ele>1104.7375</ele><time>2026-04-24T21:16:28.000Z</time></trkpt>
        <trkpt lat="28.216359" lon="105.061974"><ele>1106.597</ele><time>2026-04-24T21:16:39.000Z</time></trkpt>
        <trkpt lat="28.216387" lon="105.061932"><ele>1104.7743</ele><time>2026-04-24T21:16:58.000Z</time></trkpt>
        <trkpt lat="28.216437" lon="105.061898"><ele>1106.833</ele><time>2026-04-24T21:17:03.000Z</time></trkpt>
        <trkpt lat="28.216445" lon="105.061842"><ele>1108.4286</ele><time>2026-04-24T21:17:36.000Z</time></trkpt>
        <trkpt lat="28.216469" lon="105.061896"><ele>1107.3104</ele><time>2026-04-24T21:17:50.000Z</time></trkpt>
        <trkpt lat="28.216511" lon="105.061928"><ele>1106.1102</ele><time>2026-04-24T21:17:55.000Z</time></trkpt>
        <trkpt lat="28.216554" lon="105.061949"><ele>1111.2634</ele><time>2026-04-24T21:18:24.000Z</time></trkpt>
        <trkpt lat="28.216582" lon="105.061902"><ele>1114.2754</ele><time>2026-04-24T21:18:33.000Z</time></trkpt>
        <trkpt lat="28.216605" lon="105.061952"><ele>1115.7493</ele><time>2026-04-24T21:18:42.000Z</time></trkpt>
        <trkpt lat="28.216654" lon="105.061944"><ele>1116.4452</ele><time>2026-04-24T21:18:51.000Z</time></trkpt>
        <trkpt lat="28.2167" lon="105.061947"><ele>1115.9747</ele><time>2026-04-24T21:19:19.000Z</time></trkpt>
        <trkpt lat="28.216737" lon="105.061979"><ele>1117.3263</ele><time>2026-04-24T21:19:34.000Z</time></trkpt>
        <trkpt lat="28.216738" lon="105.062045"><ele>1119.954</ele><time>2026-04-24T21:19:42.000Z</time></trkpt>
        <trkpt lat="28.216786" lon="105.062055"><ele>1125.4353</ele><time>2026-04-24T21:22:04.000Z</time></trkpt>
        <trkpt lat="28.216817" lon="105.062017"><ele>1128.8688</ele><time>2026-04-24T21:22:50.000Z</time></trkpt>
        <trkpt lat="28.216843" lon="105.06206"><ele>1132.6718</ele><time>2026-04-24T21:23:18.000Z</time></trkpt>
        <trkpt lat="28.216861" lon="105.062007"><ele>1132.527</ele><time>2026-04-24T21:23:32.000Z</time></trkpt>
        <trkpt lat="28.216822" lon="105.062048"><ele>1145.437</ele><time>2026-04-24T21:24:02.000Z</time></trkpt>
        <trkpt lat="28.216844" lon="105.061998"><ele>1144.3496</ele><time>2026-04-24T21:24:25.000Z</time></trkpt>
        <trkpt lat="28.216901" lon="105.062005"><ele>1137.4148</ele><time>2026-04-24T21:24:34.000Z</time></trkpt>
        <trkpt lat="28.21693" lon="105.062049"><ele>1137.4534</ele><time>2026-04-24T21:24:58.000Z</time></trkpt>
        <trkpt lat="28.216953" lon="105.06211"><ele>1140.3184</ele><time>2026-04-24T21:25:14.000Z</time></trkpt>
        <trkpt lat="28.216994" lon="105.062156"><ele>1151.1311</ele><time>2026-04-24T21:26:36.000Z</time></trkpt>
        <trkpt lat="28.216944" lon="105.062168"><ele>1156.9296</ele><time>2026-04-24T21:26:51.000Z</time></trkpt>
        <trkpt lat="28.216942" lon="105.06223"><ele>1157.3567</ele><time>2026-04-24T21:27:00.000Z</time></trkpt>
        <trkpt lat="28.216949" lon="105.062282"><ele>1156.6978</ele><time>2026-04-24T21:27:16.000Z</time></trkpt>
        <trkpt lat="28.216945" lon="105.062334"><ele>1156.4816</ele><time>2026-04-24T21:27:29.000Z</time></trkpt>
        <trkpt lat="28.216946" lon="105.062393"><ele>1157.5787</ele><time>2026-04-24T21:27:34.000Z</time></trkpt>
        <trkpt lat="28.216969" lon="105.062343"><ele>1147.6309</ele><time>2026-04-24T21:27:54.000Z</time></trkpt>
        <trkpt lat="28.217007" lon="105.06231"><ele>1147.9052</ele><time>2026-04-24T21:28:04.000Z</time></trkpt>
        <trkpt lat="28.217034" lon="105.06236"><ele>1149.1968</ele><time>2026-04-24T21:28:11.000Z</time></trkpt>
        <trkpt lat="28.217023" lon="105.062411"><ele>1153.8</ele><time>2026-04-24T21:28:17.000Z</time></trkpt>
        <trkpt lat="28.217025" lon="105.062467"><ele>1153.7698</ele><time>2026-04-24T21:28:27.000Z</time></trkpt>
        <trkpt lat="28.217096" lon="105.062446"><ele>1149.9192</ele><time>2026-04-24T21:30:03.000Z</time></trkpt>
        <trkpt lat="28.217073" lon="105.062494"><ele>1148.7346</ele><time>2026-04-24T21:30:25.000Z</time></trkpt>
        <trkpt lat="28.217093" lon="105.062547"><ele>1150.2169</ele><time>2026-04-24T21:30:28.000Z</time></trkpt>
        <trkpt lat="28.217133" lon="105.062507"><ele>1150.26</ele><time>2026-04-24T21:30:32.000Z</time></trkpt>
        <trkpt lat="28.217177" lon="105.062543"><ele>1151.7041</ele><time>2026-04-24T21:30:46.000Z</time></trkpt>
        <trkpt lat="28.217225" lon="105.062563"><ele>1153.3228</ele><time>2026-04-24T21:30:59.000Z</time></trkpt>
        <trkpt lat="28.217273" lon="105.06255"><ele>1153.9148</ele><time>2026-04-24T21:31:07.000Z</time></trkpt>
        <trkpt lat="28.217328" lon="105.062541"><ele>1154.9468</ele><time>2026-04-24T21:31:14.000Z</time></trkpt>
        <trkpt lat="28.217342" lon="105.062592"><ele>1158.8495</ele><time>2026-04-24T21:31:32.000Z</time></trkpt>
        <trkpt lat="28.21738" lon="105.062565"><ele>1158.7367</ele><time>2026-04-24T21:31:37.000Z</time></trkpt>
        <trkpt lat="28.217426" lon="105.06257"><ele>1165.8381</ele><time>2026-04-24T21:31:52.000Z</time></trkpt>
        <trkpt lat="28.217403" lon="105.062627"><ele>1167.1339</ele><time>2026-04-24T21:31:58.000Z</time></trkpt>
        <trkpt lat="28.217403" lon="105.062575"><ele>1164.1244</ele><time>2026-04-24T21:32:15.000Z</time></trkpt>
        <trkpt lat="28.217451" lon="105.06261"><ele>1162.678</ele><time>2026-04-24T21:32:27.000Z</time></trkpt>
        <trkpt lat="28.21741" lon="105.062634"><ele>1162.5444</ele><time>2026-04-24T21:33:40.000Z</time></trkpt>
        <trkpt lat="28.217456" lon="105.062595"><ele>1163.4441</ele><time>2026-04-24T21:34:03.000Z</time></trkpt>
        <trkpt lat="28.217441" lon="105.062646"><ele>1165.0015</ele><time>2026-04-24T21:34:14.000Z</time></trkpt>
        <trkpt lat="28.217417" lon="105.06269"><ele>1163.4994</ele><time>2026-04-24T21:34:18.000Z</time></trkpt>
        <trkpt lat="28.217418" lon="105.062743"><ele>1163.6676</ele><time>2026-04-24T21:34:25.000Z</time></trkpt>
        <trkpt lat="28.217457" lon="105.062794"><ele>1160.0128</ele><time>2026-04-24T21:34:33.000Z</time></trkpt>
        <trkpt lat="28.217504" lon="105.062809"><ele>1162.2832</ele><time>2026-04-24T21:34:37.000Z</time></trkpt>
        <trkpt lat="28.217545" lon="105.062782"><ele>1167.0905</ele><time>2026-04-24T21:34:56.000Z</time></trkpt>
        <trkpt lat="28.217591" lon="105.062792"><ele>1167.3707</ele><time>2026-04-24T21:35:02.000Z</time></trkpt>
        <trkpt lat="28.217632" lon="105.062839"><ele>1169.8058</ele><time>2026-04-24T21:35:14.000Z</time></trkpt>
        <trkpt lat="28.217644" lon="105.062892"><ele>1169.2518</ele><time>2026-04-24T21:35:24.000Z</time></trkpt>
        <trkpt lat="28.217675" lon="105.062843"><ele>1168.5522</ele><time>2026-04-24T21:35:46.000Z</time></trkpt>
        <trkpt lat="28.217692" lon="105.062793"><ele>1173.3761</ele><time>2026-04-24T21:36:08.000Z</time></trkpt>
        <trkpt lat="28.217699" lon="105.062857"><ele>1171.6993</ele><time>2026-04-24T21:36:14.000Z</time></trkpt>
        <trkpt lat="28.217679" lon="105.062925"><ele>1171.865</ele><time>2026-04-24T21:36:18.000Z</time></trkpt>
        <trkpt lat="28.217675" lon="105.062981"><ele>1173.0956</ele><time>2026-04-24T21:36:22.000Z</time></trkpt>
        <trkpt lat="28.21767" lon="105.063042"><ele>1172.3014</ele><time>2026-04-24T21:36:26.000Z</time></trkpt>
        <trkpt lat="28.217652" lon="105.063097"><ele>1173.6738</ele><time>2026-04-24T21:36:30.000Z</time></trkpt>
        <trkpt lat="28.217637" lon="105.063175"><ele>1173.4575</ele><time>2026-04-24T21:36:36.000Z</time></trkpt>
        <trkpt lat="28.21762" lon="105.063229"><ele>1172.9738</ele><time>2026-04-24T21:36:42.000Z</time></trkpt>
        <trkpt lat="28.217589" lon="105.063279"><ele>1173.369</ele><time>2026-04-24T21:36:46.000Z</time></trkpt>
        <trkpt lat="28.217601" lon="105.063336"><ele>1173.6122</ele><time>2026-04-24T21:36:53.000Z</time></trkpt>
        <trkpt lat="28.217587" lon="105.063389"><ele>1173.7775</ele><time>2026-04-24T21:36:58.000Z</time></trkpt>
        <trkpt lat="28.21757" lon="105.063438"><ele>1174.0115</ele><time>2026-04-24T21:37:03.000Z</time></trkpt>
        <trkpt lat="28.217554" lon="105.063495"><ele>1175.3922</ele><time>2026-04-24T21:37:08.000Z</time></trkpt>
        <trkpt lat="28.217539" lon="105.063546"><ele>1175.0853</ele><time>2026-04-24T21:37:13.000Z</time></trkpt>
        <trkpt lat="28.217512" lon="105.063591"><ele>1175.8817</ele><time>2026-04-24T21:37:17.000Z</time></trkpt>
        <trkpt lat="28.217486" lon="105.063648"><ele>1174.1884</ele><time>2026-04-24T21:37:21.000Z</time></trkpt>
        <trkpt lat="28.217454" lon="105.063695"><ele>1173.6411</ele><time>2026-04-24T21:37:25.000Z</time></trkpt>
        <trkpt lat="28.21743" lon="105.063744"><ele>1174.7922</ele><time>2026-04-24T21:37:28.000Z</time></trkpt>
        <trkpt lat="28.217411" lon="105.063805"><ele>1173.8853</ele><time>2026-04-24T21:37:33.000Z</time></trkpt>
        <trkpt lat="28.217401" lon="105.063869"><ele>1175.1866</ele><time>2026-04-24T21:37:38.000Z</time></trkpt>
        <trkpt lat="28.217394" lon="105.063921"><ele>1174.0138</ele><time>2026-04-24T21:37:42.000Z</time></trkpt>
        <trkpt lat="28.21739" lon="105.063982"><ele>1172.1804</ele><time>2026-04-24T21:37:47.000Z</time></trkpt>
        <trkpt lat="28.217381" lon="105.064044"><ele>1173.1516</ele><time>2026-04-24T21:37:51.000Z</time></trkpt>
        <trkpt lat="28.217374" lon="105.064107"><ele>1173.1525</ele><time>2026-04-24T21:37:56.000Z</time></trkpt>
        <trkpt lat="28.217371" lon="105.064164"><ele>1172.0765</ele><time>2026-04-24T21:38:01.000Z</time></trkpt>
        <trkpt lat="28.217365" lon="105.064229"><ele>1172.9092</ele><time>2026-04-24T21:38:05.000Z</time></trkpt>
        <trkpt lat="28.217375" lon="105.06428"><ele>1172.5753</ele><time>2026-04-24T21:38:10.000Z</time></trkpt>
        <trkpt lat="28.217377" lon="105.064343"><ele>1172.0018</ele><time>2026-04-24T21:38:15.000Z</time></trkpt>
        <trkpt lat="28.21739" lon="105.064397"><ele>1172.6417</ele><time>2026-04-24T21:38:20.000Z</time></trkpt>
        <trkpt lat="28.217415" lon="105.064442"><ele>1169.6791</ele><time>2026-04-24T21:38:25.000Z</time></trkpt>
        <trkpt lat="28.217435" lon="105.064491"><ele>1170.9185</ele><time>2026-04-24T21:38:29.000Z</time></trkpt>
        <trkpt lat="28.217462" lon="105.064533"><ele>1170.3345</ele><time>2026-04-24T21:38:33.000Z</time></trkpt>
        <trkpt lat="28.217468" lon="105.064589"><ele>1172.6288</ele><time>2026-04-24T21:38:37.000Z</time></trkpt>
        <trkpt lat="28.21748" lon="105.064642"><ele>1172.5365</ele><time>2026-04-24T21:38:41.000Z</time></trkpt>
        <trkpt lat="28.217509" lon="105.064691"><ele>1169.7318</ele><time>2026-04-24T21:38:48.000Z</time></trkpt>
        <trkpt lat="28.217519" lon="105.064753"><ele>1170.7662</ele><time>2026-04-24T21:38:53.000Z</time></trkpt>
        <trkpt lat="28.217543" lon="105.064804"><ele>1170.1835</ele><time>2026-04-24T21:38:58.000Z</time></trkpt>
        <trkpt lat="28.217562" lon="105.064865"><ele>1169.6692</ele><time>2026-04-24T21:39:04.000Z</time></trkpt>
        <trkpt lat="28.217553" lon="105.064918"><ele>1169.0392</ele><time>2026-04-24T21:39:09.000Z</time></trkpt>
        <trkpt lat="28.217599" lon="105.064928"><ele>1168.615</ele><time>2026-04-24T21:39:36.000Z</time></trkpt>
        <trkpt lat="28.217635" lon="105.064892"><ele>1167.2645</ele><time>2026-04-24T21:39:44.000Z</time></trkpt>
        <trkpt lat="28.21768" lon="105.064903"><ele>1170.8068</ele><time>2026-04-24T21:39:58.000Z</time></trkpt>
        <trkpt lat="28.217705" lon="105.06486"><ele>1166.6273</ele><time>2026-04-24T21:40:16.000Z</time></trkpt>
        <trkpt lat="28.217735" lon="105.064818"><ele>1173.3213</ele><time>2026-04-24T21:40:26.000Z</time></trkpt>
        <trkpt lat="28.217795" lon="105.064829"><ele>1179.2263</ele><time>2026-04-24T21:40:33.000Z</time></trkpt>
        <trkpt lat="28.217845" lon="105.06481"><ele>1177.3596</ele><time>2026-04-24T21:40:53.000Z</time></trkpt>
        <trkpt lat="28.217884" lon="105.064785"><ele>1178.4635</ele><time>2026-04-24T21:41:00.000Z</time></trkpt>
        <trkpt lat="28.217925" lon="105.064809"><ele>1182.6278</ele><time>2026-04-24T21:42:04.000Z</time></trkpt>
        <trkpt lat="28.217896" lon="105.064752"><ele>1185.2606</ele><time>2026-04-24T21:43:44.000Z</time></trkpt>
        <trkpt lat="28.217943" lon="105.064752"><ele>1185.9957</ele><time>2026-04-24T21:43:53.000Z</time></trkpt>
        <trkpt lat="28.217987" lon="105.064734"><ele>1185.0212</ele><time>2026-04-24T21:43:58.000Z</time></trkpt>
        <trkpt lat="28.218034" lon="105.064726"><ele>1182.8448</ele><time>2026-04-24T21:44:06.000Z</time></trkpt>
        <trkpt lat="28.21808" lon="105.06473"><ele>1182.7157</ele><time>2026-04-24T21:44:17.000Z</time></trkpt>
        <trkpt lat="28.218125" lon="105.064725"><ele>1182.5833</ele><time>2026-04-24T21:44:36.000Z</time></trkpt>
        <trkpt lat="28.218166" lon="105.064751"><ele>1189.0253</ele><time>2026-04-24T21:44:58.000Z</time></trkpt>
        <trkpt lat="28.21821" lon="105.064739"><ele>1193.9226</ele><time>2026-04-24T21:45:13.000Z</time></trkpt>
        <trkpt lat="28.218226" lon="105.064689"><ele>1202.4448</ele><time>2026-04-24T21:45:47.000Z</time></trkpt>
        <trkpt lat="28.218287" lon="105.064667"><ele>1204.0198</ele><time>2026-04-24T21:45:56.000Z</time></trkpt>
        <trkpt lat="28.218331" lon="105.064678"><ele>1200.4961</ele><time>2026-04-24T21:46:07.000Z</time></trkpt>
        <trkpt lat="28.218384" lon="105.064675"><ele>1194.4735</ele><time>2026-04-24T21:46:27.000Z</time></trkpt>
        <trkpt lat="28.218435" lon="105.064677"><ele>1196.7666</ele><time>2026-04-24T21:46:36.000Z</time></trkpt>
        <trkpt lat="28.218452" lon="105.064725"><ele>1204.5319</ele><time>2026-04-24T21:47:09.000Z</time></trkpt>
        <trkpt lat="28.218452" lon="105.064674"><ele>1208.0714</ele><time>2026-04-24T21:47:16.000Z</time></trkpt>
        <trkpt lat="28.21848" lon="105.064626"><ele>1207.0731</ele><time>2026-04-24T21:47:56.000Z</time></trkpt>
        <trkpt lat="28.218525" lon="105.064617"><ele>1206.0994</ele><time>2026-04-24T21:48:01.000Z</time></trkpt>
        <trkpt lat="28.218583" lon="105.064611"><ele>1205.8784</ele><time>2026-04-24T21:48:05.000Z</time></trkpt>
        <trkpt lat="28.218621" lon="105.064641"><ele>1213.0507</ele><time>2026-04-24T21:49:49.000Z</time></trkpt>
        <trkpt lat="28.218638" lon="105.064593"><ele>1209.0822</ele><time>2026-04-24T21:51:29.000Z</time></trkpt>
        <trkpt lat="28.21868" lon="105.064568"><ele>1209.335</ele><time>2026-04-24T21:51:33.000Z</time></trkpt>
        <trkpt lat="28.21873" lon="105.064546"><ele>1205.5073</ele><time>2026-04-24T21:51:41.000Z</time></trkpt>
        <trkpt lat="28.218779" lon="105.064531"><ele>1208.1212</ele><time>2026-04-24T21:51:49.000Z</time></trkpt>
        <trkpt lat="28.21883" lon="105.064503"><ele>1209.2213</ele><time>2026-04-24T21:51:54.000Z</time></trkpt>
        <trkpt lat="28.218879" lon="105.064489"><ele>1213.9368</ele><time>2026-04-24T21:52:23.000Z</time></trkpt>
        <trkpt lat="28.218923" lon="105.064473"><ele>1212.7261</ele><time>2026-04-24T21:52:37.000Z</time></trkpt>
        <trkpt lat="28.21897" lon="105.064472"><ele>1212.0021</ele><time>2026-04-24T21:52:43.000Z</time></trkpt>
        <trkpt lat="28.219014" lon="105.064488"><ele>1218.3445</ele><time>2026-04-24T21:53:09.000Z</time></trkpt>
        <trkpt lat="28.219061" lon="105.064481"><ele>1222.4988</ele><time>2026-04-24T21:53:20.000Z</time></trkpt>
        <trkpt lat="28.219106" lon="105.064438"><ele>1226.6985</ele><time>2026-04-24T21:53:31.000Z</time></trkpt>
        <trkpt lat="28.219146" lon="105.064408"><ele>1231.564</ele><time>2026-04-24T21:53:38.000Z</time></trkpt>
        <trkpt lat="28.219185" lon="105.064373"><ele>1232.0444</ele><time>2026-04-24T21:53:45.000Z</time></trkpt>
        <trkpt lat="28.219232" lon="105.064379"><ele>1229.9873</ele><time>2026-04-24T21:53:52.000Z</time></trkpt>
        <trkpt lat="28.219278" lon="105.064351"><ele>1226.7195</ele><time>2026-04-24T21:54:07.000Z</time></trkpt>
        <trkpt lat="28.219327" lon="105.064343"><ele>1227.0702</ele><time>2026-04-24T21:54:17.000Z</time></trkpt>
        <trkpt lat="28.219375" lon="105.064331"><ele>1226.9841</ele><time>2026-04-24T21:54:22.000Z</time></trkpt>
        <trkpt lat="28.21942" lon="105.064335"><ele>1228.1812</ele><time>2026-04-24T21:54:28.000Z</time></trkpt>
        <trkpt lat="28.219468" lon="105.06433"><ele>1229.7399</ele><time>2026-04-24T21:54:34.000Z</time></trkpt>
        <trkpt lat="28.219516" lon="105.064324"><ele>1230.636</ele><time>2026-04-24T21:54:40.000Z</time></trkpt>
        <trkpt lat="28.219562" lon="105.06434"><ele>1232.608</ele><time>2026-04-24T21:55:03.000Z</time></trkpt>
        <trkpt lat="28.219606" lon="105.064327"><ele>1232.212</ele><time>2026-04-24T21:55:10.000Z</time></trkpt>
        <trkpt lat="28.219655" lon="105.064313"><ele>1230.3798</ele><time>2026-04-24T21:55:14.000Z</time></trkpt>
        <trkpt lat="28.219708" lon="105.064318"><ele>1230.6648</ele><time>2026-04-24T21:55:20.000Z</time></trkpt>
        <trkpt lat="28.219769" lon="105.064313"><ele>1229.0419</ele><time>2026-04-24T21:55:25.000Z</time></trkpt>
        <trkpt lat="28.219814" lon="105.064303"><ele>1227.9548</ele><time>2026-04-24T21:55:30.000Z</time></trkpt>
        <trkpt lat="28.219864" lon="105.064294"><ele>1227.8435</ele><time>2026-04-24T21:55:37.000Z</time></trkpt>
        <trkpt lat="28.21992" lon="105.064305"><ele>1229.7136</ele><time>2026-04-24T21:56:11.000Z</time></trkpt>
        <trkpt lat="28.219975" lon="105.064317"><ele>1227.9637</ele><time>2026-04-24T21:56:17.000Z</time></trkpt>
        <trkpt lat="28.220025" lon="105.064324"><ele>1227.5294</ele><time>2026-04-24T21:56:23.000Z</time></trkpt>
        <trkpt lat="28.220072" lon="105.064321"><ele>1226.5565</ele><time>2026-04-24T21:56:29.000Z</time></trkpt>
        <trkpt lat="28.220126" lon="105.064332"><ele>1227.4819</ele><time>2026-04-24T21:56:37.000Z</time></trkpt>
        <trkpt lat="28.220193" lon="105.064314"><ele>1226.7437</ele><time>2026-04-24T21:56:41.000Z</time></trkpt>
        <trkpt lat="28.220241" lon="105.06433"><ele>1228.1921</ele><time>2026-04-24T21:56:47.000Z</time></trkpt>
        <trkpt lat="28.220299" lon="105.064321"><ele>1230.7935</ele><time>2026-04-24T21:56:54.000Z</time></trkpt>
        <trkpt lat="28.220336" lon="105.064287"><ele>1234.1799</ele><time>2026-04-24T21:57:21.000Z</time></trkpt>
        <trkpt lat="28.220387" lon="105.064297"><ele>1233.4789</ele><time>2026-04-24T21:57:28.000Z</time></trkpt>
        <trkpt lat="28.220434" lon="105.064313"><ele>1232.1503</ele><time>2026-04-24T21:57:33.000Z</time></trkpt>
        <trkpt lat="28.220485" lon="105.064299"><ele>1232.224</ele><time>2026-04-24T21:57:41.000Z</time></trkpt>
        <trkpt lat="28.220534" lon="105.06428"><ele>1235.4962</ele><time>2026-04-24T21:57:49.000Z</time></trkpt>
        <trkpt lat="28.220582" lon="105.064277"><ele>1235.7942</ele><time>2026-04-24T21:57:55.000Z</time></trkpt>
        <trkpt lat="28.220635" lon="105.064277"><ele>1235.7737</ele><time>2026-04-24T21:58:04.000Z</time></trkpt>
        <trkpt lat="28.220681" lon="105.064285"><ele>1237.0231</ele><time>2026-04-24T21:58:11.000Z</time></trkpt>
        <trkpt lat="28.220728" lon="105.064295"><ele>1236.3684</ele><time>2026-04-24T21:58:19.000Z</time></trkpt>
        <trkpt lat="28.220774" lon="105.064305"><ele>1236.091</ele><time>2026-04-24T21:58:35.000Z</time></trkpt>
        <trkpt lat="28.22082" lon="105.064287"><ele>1237.698</ele><time>2026-04-24T21:58:54.000Z</time></trkpt>
        <trkpt lat="28.220797" lon="105.064237"><ele>1240.8961</ele><time>2026-04-24T21:58:59.000Z</time></trkpt>
        <trkpt lat="28.22076" lon="105.064202"><ele>1242.8235</ele><time>2026-04-24T21:59:06.000Z</time></trkpt>
        <trkpt lat="28.220737" lon="105.06415"><ele>1243.5929</ele><time>2026-04-24T21:59:11.000Z</time></trkpt>
        <trkpt lat="28.220722" lon="105.064098"><ele>1245.5797</ele><time>2026-04-24T21:59:16.000Z</time></trkpt>
        <trkpt lat="28.220724" lon="105.064043"><ele>1246.7223</ele><time>2026-04-24T21:59:22.000Z</time></trkpt>
        <trkpt lat="28.220704" lon="105.063991"><ele>1245.7454</ele><time>2026-04-24T21:59:35.000Z</time></trkpt>
        <trkpt lat="28.220715" lon="105.063937"><ele>1247.0087</ele><time>2026-04-24T21:59:41.000Z</time></trkpt>
        <trkpt lat="28.220722" lon="105.063885"><ele>1248.7017</ele><time>2026-04-24T21:59:51.000Z</time></trkpt>
        <trkpt lat="28.220767" lon="105.063868"><ele>1247.5333</ele><time>2026-04-24T21:59:55.000Z</time></trkpt>
        <trkpt lat="28.22079" lon="105.063824"><ele>1247.4365</ele><time>2026-04-24T22:00:01.000Z</time></trkpt>
        <trkpt lat="28.220816" lon="105.063777"><ele>1248.8105</ele><time>2026-04-24T22:00:07.000Z</time></trkpt>
        <trkpt lat="28.220854" lon="105.063737"><ele>1249.9287</ele><time>2026-04-24T22:00:16.000Z</time></trkpt>
        <trkpt lat="28.220899" lon="105.06373"><ele>1249.0865</ele><time>2026-04-24T22:00:21.000Z</time></trkpt>
        <trkpt lat="28.220949" lon="105.063717"><ele>1248.5889</ele><time>2026-04-24T22:00:27.000Z</time></trkpt>
        <trkpt lat="28.22099" lon="105.063686"><ele>1249.0908</ele><time>2026-04-24T22:00:33.000Z</time></trkpt>
        <trkpt lat="28.221041" lon="105.063685"><ele>1248.9961</ele><time>2026-04-24T22:00:38.000Z</time></trkpt>
        <trkpt lat="28.22109" lon="105.06369"><ele>1250.2379</ele><time>2026-04-24T22:00:44.000Z</time></trkpt>
        <trkpt lat="28.221136" lon="105.063712"><ele>1249.487</ele><time>2026-04-24T22:00:49.000Z</time></trkpt>
        <trkpt lat="28.221181" lon="105.0637"><ele>1254.3143</ele><time>2026-04-24T22:00:55.000Z</time></trkpt>
        <trkpt lat="28.221227" lon="105.063717"><ele>1257.2761</ele><time>2026-04-24T22:01:02.000Z</time></trkpt>
        <trkpt lat="28.221277" lon="105.063732"><ele>1255.7491</ele><time>2026-04-24T22:01:07.000Z</time></trkpt>
        <trkpt lat="28.221326" lon="105.063736"><ele>1257.2051</ele><time>2026-04-24T22:01:13.000Z</time></trkpt>
        <trkpt lat="28.221372" lon="105.063734"><ele>1258.9908</ele><time>2026-04-24T22:01:19.000Z</time></trkpt>
        <trkpt lat="28.221411" lon="105.063764"><ele>1259.5294</ele><time>2026-04-24T22:01:26.000Z</time></trkpt>
        <trkpt lat="28.221455" lon="105.063789"><ele>1259.3721</ele><time>2026-04-24T22:01:32.000Z</time></trkpt>
        <trkpt lat="28.2215" lon="105.063813"><ele>1258.0704</ele><time>2026-04-24T22:01:38.000Z</time></trkpt>
        <trkpt lat="28.221542" lon="105.063849"><ele>1256.626</ele><time>2026-04-24T22:01:44.000Z</time></trkpt>
        <trkpt lat="28.221598" lon="105.063868"><ele>1258.0519</ele><time>2026-04-24T22:01:49.000Z</time></trkpt>
        <trkpt lat="28.22164" lon="105.063848"><ele>1260.6516</ele><time>2026-04-24T22:01:54.000Z</time></trkpt>
        <trkpt lat="28.221664" lon="105.063902"><ele>1261.6041</ele><time>2026-04-24T22:02:00.000Z</time></trkpt>
        <trkpt lat="28.221674" lon="105.063953"><ele>1261.2422</ele><time>2026-04-24T22:02:05.000Z</time></trkpt>
        <trkpt lat="28.221719" lon="105.063963"><ele>1258.837</ele><time>2026-04-24T22:02:11.000Z</time></trkpt>
        <trkpt lat="28.221762" lon="105.063978"><ele>1262.4274</ele><time>2026-04-24T22:02:15.000Z</time></trkpt>
        <trkpt lat="28.221814" lon="105.063983"><ele>1262.5612</ele><time>2026-04-24T22:02:20.000Z</time></trkpt>
        <trkpt lat="28.221859" lon="105.063991"><ele>1263.1127</ele><time>2026-04-24T22:02:26.000Z</time></trkpt>
        <trkpt lat="28.221902" lon="105.064007"><ele>1263.2395</ele><time>2026-04-24T22:02:32.000Z</time></trkpt>
        <trkpt lat="28.221963" lon="105.063999"><ele>1264.3495</ele><time>2026-04-24T22:02:41.000Z</time></trkpt>
        <trkpt lat="28.222006" lon="105.064023"><ele>1268.761</ele><time>2026-04-24T22:02:50.000Z</time></trkpt>
        <trkpt lat="28.222056" lon="105.063986"><ele>1268.3901</ele><time>2026-04-24T22:03:03.000Z</time></trkpt>
        <trkpt lat="28.22209" lon="105.063941"><ele>1263.7511</ele><time>2026-04-24T22:03:08.000Z</time></trkpt>
        <trkpt lat="28.222142" lon="105.063957"><ele>1269.9417</ele><time>2026-04-24T22:03:17.000Z</time></trkpt>
        <trkpt lat="28.222187" lon="105.063968"><ele>1270.9409</ele><time>2026-04-24T22:03:24.000Z</time></trkpt>
        <trkpt lat="28.222242" lon="105.063963"><ele>1271.2821</ele><time>2026-04-24T22:03:36.000Z</time></trkpt>
        <trkpt lat="28.222293" lon="105.063976"><ele>1272.3434</ele><time>2026-04-24T22:03:44.000Z</time></trkpt>
        <trkpt lat="28.222345" lon="105.063973"><ele>1272.2667</ele><time>2026-04-24T22:03:58.000Z</time></trkpt>
        <trkpt lat="28.222402" lon="105.063973"><ele>1272.2845</ele><time>2026-04-24T22:04:04.000Z</time></trkpt>
        <trkpt lat="28.222451" lon="105.063974"><ele>1271.322</ele><time>2026-04-24T22:04:11.000Z</time></trkpt>
        <trkpt lat="28.222503" lon="105.063992"><ele>1270.0089</ele><time>2026-04-24T22:04:17.000Z</time></trkpt>
        <trkpt lat="28.222553" lon="105.06398"><ele>1269.3501</ele><time>2026-04-24T22:04:21.000Z</time></trkpt>
        <trkpt lat="28.222601" lon="105.063984"><ele>1271.0957</ele><time>2026-04-24T22:04:34.000Z</time></trkpt>
        <trkpt lat="28.222641" lon="105.064012"><ele>1272.4465</ele><time>2026-04-24T22:04:42.000Z</time></trkpt>
        <trkpt lat="28.222692" lon="105.064049"><ele>1273.5958</ele><time>2026-04-24T22:05:12.000Z</time></trkpt>
        <trkpt lat="28.222724" lon="105.064094"><ele>1274.9486</ele><time>2026-04-24T22:05:18.000Z</time></trkpt>
        <trkpt lat="28.222766" lon="105.064124"><ele>1277.2854</ele><time>2026-04-24T22:05:23.000Z</time></trkpt>
        <trkpt lat="28.222811" lon="105.064135"><ele>1277.5854</ele><time>2026-04-24T22:05:27.000Z</time></trkpt>
        <trkpt lat="28.222853" lon="105.064117"><ele>1279.8491</ele><time>2026-04-24T22:05:33.000Z</time></trkpt>
        <trkpt lat="28.222906" lon="105.064128"><ele>1279.4446</ele><time>2026-04-24T22:05:46.000Z</time></trkpt>
        <trkpt lat="28.222952" lon="105.064133"><ele>1279.8258</ele><time>2026-04-24T22:05:55.000Z</time></trkpt>
        <trkpt lat="28.222996" lon="105.064123"><ele>1284.8284</ele><time>2026-04-24T22:06:28.000Z</time></trkpt>
        <trkpt lat="28.223035" lon="105.064154"><ele>1284.6924</ele><time>2026-04-24T22:06:33.000Z</time></trkpt>
        <trkpt lat="28.22309" lon="105.064186"><ele>1285.8439</ele><time>2026-04-24T22:06:41.000Z</time></trkpt>
        <trkpt lat="28.223135" lon="105.064196"><ele>1284.0056</ele><time>2026-04-24T22:06:47.000Z</time></trkpt>
        <trkpt lat="28.223181" lon="105.064193"><ele>1285.524</ele><time>2026-04-24T22:06:55.000Z</time></trkpt>
        <trkpt lat="28.223231" lon="105.064202"><ele>1288.1454</ele><time>2026-04-24T22:07:01.000Z</time></trkpt>
        <trkpt lat="28.223284" lon="105.064207"><ele>1287.4596</ele><time>2026-04-24T22:07:10.000Z</time></trkpt>
        <trkpt lat="28.223338" lon="105.0642"><ele>1285.8514</ele><time>2026-04-24T22:07:16.000Z</time></trkpt>
        <trkpt lat="28.223386" lon="105.064187"><ele>1287.1669</ele><time>2026-04-24T22:07:23.000Z</time></trkpt>
        <trkpt lat="28.223424" lon="105.064222"><ele>1291.9178</ele><time>2026-04-24T22:07:37.000Z</time></trkpt>
        <trkpt lat="28.223467" lon="105.064206"><ele>1291.6134</ele><time>2026-04-24T22:07:41.000Z</time></trkpt>
        <trkpt lat="28.223524" lon="105.064198"><ele>1291.0139</ele><time>2026-04-24T22:07:48.000Z</time></trkpt>
        <trkpt lat="28.22357" lon="105.064201"><ele>1291.9832</ele><time>2026-04-24T22:07:54.000Z</time></trkpt>
        <trkpt lat="28.223616" lon="105.064206"><ele>1292.8357</ele><time>2026-04-24T22:08:01.000Z</time></trkpt>
        <trkpt lat="28.223661" lon="105.064198"><ele>1298.363</ele><time>2026-04-24T22:08:13.000Z</time></trkpt>
        <trkpt lat="28.223712" lon="105.064181"><ele>1294.1168</ele><time>2026-04-24T22:08:19.000Z</time></trkpt>
        <trkpt lat="28.223761" lon="105.064168"><ele>1294.441</ele><time>2026-04-24T22:08:25.000Z</time></trkpt>
        <trkpt lat="28.223809" lon="105.064166"><ele>1297.6232</ele><time>2026-04-24T22:08:31.000Z</time></trkpt>
        <trkpt lat="28.223856" lon="105.064163"><ele>1296.7661</ele><time>2026-04-24T22:08:35.000Z</time></trkpt>
        <trkpt lat="28.223905" lon="105.064162"><ele>1298.1989</ele><time>2026-04-24T22:08:41.000Z</time></trkpt>
        <trkpt lat="28.223953" lon="105.064178"><ele>1299.079</ele><time>2026-04-24T22:10:31.000Z</time></trkpt>
        <trkpt lat="28.22399" lon="105.06413"><ele>1302.4635</ele><time>2026-04-24T22:11:54.000Z</time></trkpt>
        <trkpt lat="28.224037" lon="105.064103"><ele>1303.0592</ele><time>2026-04-24T22:11:59.000Z</time></trkpt>
        <trkpt lat="28.22409" lon="105.064105"><ele>1301.075</ele><time>2026-04-24T22:12:03.000Z</time></trkpt>
        <trkpt lat="28.224129" lon="105.064135"><ele>1301.6172</ele><time>2026-04-24T22:12:11.000Z</time></trkpt>
        <trkpt lat="28.224179" lon="105.064119"><ele>1301.6378</ele><time>2026-04-24T22:12:19.000Z</time></trkpt>
        <trkpt lat="28.224222" lon="105.064103"><ele>1301.9451</ele><time>2026-04-24T22:12:23.000Z</time></trkpt>
        <trkpt lat="28.22428" lon="105.064138"><ele>1302.9325</ele><time>2026-04-24T22:12:31.000Z</time></trkpt>
        <trkpt lat="28.224335" lon="105.064153"><ele>1305.7177</ele><time>2026-04-24T22:12:38.000Z</time></trkpt>
        <trkpt lat="28.224383" lon="105.06416"><ele>1305.0051</ele><time>2026-04-24T22:12:45.000Z</time></trkpt>
        <trkpt lat="28.224426" lon="105.064136"><ele>1304.614</ele><time>2026-04-24T22:12:50.000Z</time></trkpt>
        <trkpt lat="28.224473" lon="105.064157"><ele>1306.3066</ele><time>2026-04-24T22:12:54.000Z</time></trkpt>
        <trkpt lat="28.224524" lon="105.06415"><ele>1306.6257</ele><time>2026-04-24T22:13:00.000Z</time></trkpt>
        <trkpt lat="28.224571" lon="105.064168"><ele>1305.944</ele><time>2026-04-24T22:13:13.000Z</time></trkpt>
        <trkpt lat="28.224614" lon="105.064186"><ele>1305.8297</ele><time>2026-04-24T22:13:18.000Z</time></trkpt>
        <trkpt lat="28.224663" lon="105.064208"><ele>1307.2466</ele><time>2026-04-24T22:13:22.000Z</time></trkpt>
        <trkpt lat="28.224719" lon="105.064234"><ele>1305.2494</ele><time>2026-04-24T22:13:29.000Z</time></trkpt>
        <trkpt lat="28.224754" lon="105.064273"><ele>1304.9224</ele><time>2026-04-24T22:13:37.000Z</time></trkpt>
        <trkpt lat="28.224798" lon="105.064237"><ele>1303.314</ele><time>2026-04-24T22:13:40.000Z</time></trkpt>
        <trkpt lat="28.224818" lon="105.064286"><ele>1302.2604</ele><time>2026-04-24T22:13:46.000Z</time></trkpt>
        <trkpt lat="28.224864" lon="105.064279"><ele>1301.9664</ele><time>2026-04-24T22:13:51.000Z</time></trkpt>
        <trkpt lat="28.224817" lon="105.064288"><ele>1304.253</ele><time>2026-04-24T22:14:02.000Z</time></trkpt>
        <trkpt lat="28.224778" lon="105.064262"><ele>1305.9221</ele><time>2026-04-24T22:14:08.000Z</time></trkpt>
        <trkpt lat="28.224726" lon="105.06426"><ele>1307.3827</ele><time>2026-04-24T22:14:34.000Z</time></trkpt>
        <trkpt lat="28.224752" lon="105.064306"><ele>1304.2133</ele><time>2026-04-24T22:14:43.000Z</time></trkpt>
        <trkpt lat="28.224807" lon="105.06431"><ele>1302.7186</ele><time>2026-04-24T22:14:48.000Z</time></trkpt>
        <trkpt lat="28.224784" lon="105.06426"><ele>1306.1545</ele><time>2026-04-24T22:18:05.000Z</time></trkpt>
        <trkpt lat="28.224778" lon="105.064317"><ele>1305.5121</ele><time>2026-04-24T22:18:19.000Z</time></trkpt>
        <trkpt lat="28.224749" lon="105.064276"><ele>1305.9554</ele><time>2026-04-24T22:19:32.000Z</time></trkpt>
        <trkpt lat="28.224775" lon="105.064226"><ele>1305.8193</ele><time>2026-04-24T22:19:38.000Z</time></trkpt>
        <trkpt lat="28.224815" lon="105.06426"><ele>1305.2233</ele><time>2026-04-24T22:19:42.000Z</time></trkpt>
        <trkpt lat="28.224825" lon="105.064189"><ele>1302.4458</ele><time>2026-04-24T22:24:54.000Z</time></trkpt>
        <trkpt lat="28.224827" lon="105.064241"><ele>1301.3306</ele><time>2026-04-24T22:25:21.000Z</time></trkpt>
        <trkpt lat="28.224786" lon="105.064269"><ele>1304.9459</ele><time>2026-04-24T22:27:04.000Z</time></trkpt>
        <trkpt lat="28.224739" lon="105.064249"><ele>1305.3801</ele><time>2026-04-24T22:27:09.000Z</time></trkpt>
        <trkpt lat="28.224775" lon="105.064296"><ele>1303.2167</ele><time>2026-04-24T22:27:15.000Z</time></trkpt>
        <trkpt lat="28.224818" lon="105.06433"><ele>1298.2717</ele><time>2026-04-24T22:31:07.000Z</time></trkpt>
        <trkpt lat="28.224771" lon="105.064316"><ele>1296.9825</ele><time>2026-04-24T22:32:10.000Z</time></trkpt>
        <trkpt lat="28.224744" lon="105.064264"><ele>1308.3047</ele><time>2026-04-24T22:39:39.000Z</time></trkpt>
        <trkpt lat="28.224718" lon="105.064198"><ele>1307.251</ele><time>2026-04-24T22:39:44.000Z</time></trkpt>
        <trkpt lat="28.224731" lon="105.064141"><ele>1309.3909</ele><time>2026-04-24T22:39:49.000Z</time></trkpt>
        <trkpt lat="28.224726" lon="105.064075"><ele>1310.306</ele><time>2026-04-24T22:39:55.000Z</time></trkpt>
        <trkpt lat="28.224705" lon="105.064029"><ele>1306.8014</ele><time>2026-04-24T22:40:07.000Z</time></trkpt>
        <trkpt lat="28.224672" lon="105.063992"><ele>1305.8413</ele><time>2026-04-24T22:40:16.000Z</time></trkpt>
        <trkpt lat="28.224651" lon="105.063941"><ele>1305.7966</ele><time>2026-04-24T22:40:21.000Z</time></trkpt>
        <trkpt lat="28.224629" lon="105.063886"><ele>1308.2854</ele><time>2026-04-24T22:40:31.000Z</time></trkpt>
        <trkpt lat="28.22461" lon="105.063832"><ele>1309.1543</ele><time>2026-04-24T22:40:36.000Z</time></trkpt>
        <trkpt lat="28.224589" lon="105.06378"><ele>1310.5073</ele><time>2026-04-24T22:40:41.000Z</time></trkpt>
        <trkpt lat="28.224567" lon="105.063733"><ele>1312.0831</ele><time>2026-04-24T22:40:44.000Z</time></trkpt>
        <trkpt lat="28.224539" lon="105.063688"><ele>1310.805</ele><time>2026-04-24T22:40:48.000Z</time></trkpt>
        <trkpt lat="28.224506" lon="105.063652"><ele>1310.5244</ele><time>2026-04-24T22:40:52.000Z</time></trkpt>
        <trkpt lat="28.224497" lon="105.063599"><ele>1309.7942</ele><time>2026-04-24T22:40:56.000Z</time></trkpt>
        <trkpt lat="28.224486" lon="105.063538"><ele>1310.3699</ele><time>2026-04-24T22:40:59.000Z</time></trkpt>
        <trkpt lat="28.224471" lon="105.063489"><ele>1309.2527</ele><time>2026-04-24T22:41:03.000Z</time></trkpt>
        <trkpt lat="28.22445" lon="105.063432"><ele>1308.6637</ele><time>2026-04-24T22:41:08.000Z</time></trkpt>
        <trkpt lat="28.224426" lon="105.063382"><ele>1308.3014</ele><time>2026-04-24T22:41:15.000Z</time></trkpt>
        <trkpt lat="28.22439" lon="105.063342"><ele>1309.3557</ele><time>2026-04-24T22:41:19.000Z</time></trkpt>
        <trkpt lat="28.224356" lon="105.063305"><ele>1310.4064</ele><time>2026-04-24T22:41:22.000Z</time></trkpt>
        <trkpt lat="28.224301" lon="105.063293"><ele>1310.9747</ele><time>2026-04-24T22:41:26.000Z</time></trkpt>
        <trkpt lat="28.224256" lon="105.063249"><ele>1309.6052</ele><time>2026-04-24T22:41:33.000Z</time></trkpt>
        <trkpt lat="28.224244" lon="105.063177"><ele>1312.8687</ele><time>2026-04-24T22:41:40.000Z</time></trkpt>
        <trkpt lat="28.224205" lon="105.063146"><ele>1311.4769</ele><time>2026-04-24T22:41:44.000Z</time></trkpt>
        <trkpt lat="28.224165" lon="105.063116"><ele>1307.2622</ele><time>2026-04-24T22:42:01.000Z</time></trkpt>
        <trkpt lat="28.224147" lon="105.063063"><ele>1305.7207</ele><time>2026-04-24T22:42:06.000Z</time></trkpt>
        <trkpt lat="28.224131" lon="105.063007"><ele>1305.4749</ele><time>2026-04-24T22:42:11.000Z</time></trkpt>
        <trkpt lat="28.22412" lon="105.062956"><ele>1305.9519</ele><time>2026-04-24T22:42:18.000Z</time></trkpt>
        <trkpt lat="28.224132" lon="105.062904"><ele>1306.2285</ele><time>2026-04-24T22:42:22.000Z</time></trkpt>
        <trkpt lat="28.224137" lon="105.062957"><ele>1304.0262</ele><time>2026-04-24T22:42:40.000Z</time></trkpt>
        <trkpt lat="28.22408" lon="105.062957"><ele>1305.017</ele><time>2026-04-24T22:42:48.000Z</time></trkpt>
        <trkpt lat="28.22403" lon="105.06296"><ele>1304.4956</ele><time>2026-04-24T22:42:53.000Z</time></trkpt>
        <trkpt lat="28.223973" lon="105.062959"><ele>1304.0326</ele><time>2026-04-24T22:42:58.000Z</time></trkpt>
        <trkpt lat="28.223928" lon="105.062953"><ele>1303.3057</ele><time>2026-04-24T22:43:01.000Z</time></trkpt>
        <trkpt lat="28.223868" lon="105.062969"><ele>1304.1748</ele><time>2026-04-24T22:43:05.000Z</time></trkpt>
        <trkpt lat="28.223822" lon="105.062985"><ele>1304.9672</ele><time>2026-04-24T22:43:09.000Z</time></trkpt>
        <trkpt lat="28.223772" lon="105.062994"><ele>1303.678</ele><time>2026-04-24T22:43:14.000Z</time></trkpt>
        <trkpt lat="28.22372" lon="105.063003"><ele>1303.6152</ele><time>2026-04-24T22:43:18.000Z</time></trkpt>
        <trkpt lat="28.223675" lon="105.063012"><ele>1303.0664</ele><time>2026-04-24T22:43:23.000Z</time></trkpt>
        <trkpt lat="28.223629" lon="105.063028"><ele>1301.6252</ele><time>2026-04-24T22:43:28.000Z</time></trkpt>
        <trkpt lat="28.223584" lon="105.06305"><ele>1298.6388</ele><time>2026-04-24T22:43:34.000Z</time></trkpt>
        <trkpt lat="28.22354" lon="105.063063"><ele>1298.0359</ele><time>2026-04-24T22:43:39.000Z</time></trkpt>
        <trkpt lat="28.223492" lon="105.063072"><ele>1297.1157</ele><time>2026-04-24T22:43:45.000Z</time></trkpt>
        <trkpt lat="28.223445" lon="105.063073"><ele>1295.5701</ele><time>2026-04-24T22:43:50.000Z</time></trkpt>
        <trkpt lat="28.223396" lon="105.06306"><ele>1296.0684</ele><time>2026-04-24T22:43:53.000Z</time></trkpt>
        <trkpt lat="28.223349" lon="105.063027"><ele>1297.4768</ele><time>2026-04-24T22:43:57.000Z</time></trkpt>
        <trkpt lat="28.223303" lon="105.062994"><ele>1296.4972</ele><time>2026-04-24T22:44:01.000Z</time></trkpt>
        <trkpt lat="28.223287" lon="105.062946"><ele>1296.0131</ele><time>2026-04-24T22:44:05.000Z</time></trkpt>
        <trkpt lat="28.22326" lon="105.062896"><ele>1293.4156</ele><time>2026-04-24T22:44:10.000Z</time></trkpt>
        <trkpt lat="28.223234" lon="105.062844"><ele>1293.4681</ele><time>2026-04-24T22:44:13.000Z</time></trkpt>
        <trkpt lat="28.223214" lon="105.062795"><ele>1290.6852</ele><time>2026-04-24T22:44:17.000Z</time></trkpt>
        <trkpt lat="28.223201" lon="105.062737"><ele>1289.9414</ele><time>2026-04-24T22:44:21.000Z</time></trkpt>
        <trkpt lat="28.223194" lon="105.062676"><ele>1289.6177</ele><time>2026-04-24T22:44:25.000Z</time></trkpt>
        <trkpt lat="28.223175" lon="105.062611"><ele>1289.4661</ele><time>2026-04-24T22:44:29.000Z</time></trkpt>
        <trkpt lat="28.223162" lon="105.062557"><ele>1289.0836</ele><time>2026-04-24T22:44:34.000Z</time></trkpt>
        <trkpt lat="28.223146" lon="105.062509"><ele>1287.9944</ele><time>2026-04-24T22:44:38.000Z</time></trkpt>
        <trkpt lat="28.223125" lon="105.062458"><ele>1288.1836</ele><time>2026-04-24T22:44:44.000Z</time></trkpt>
        <trkpt lat="28.2231" lon="105.062408"><ele>1288.2245</ele><time>2026-04-24T22:44:48.000Z</time></trkpt>
        <trkpt lat="28.223074" lon="105.062353"><ele>1287.8778</ele><time>2026-04-24T22:44:53.000Z</time></trkpt>
        <trkpt lat="28.223043" lon="105.062309"><ele>1287.717</ele><time>2026-04-24T22:44:58.000Z</time></trkpt>
        <trkpt lat="28.223009" lon="105.06226"><ele>1286.5084</ele><time>2026-04-24T22:45:03.000Z</time></trkpt>
        <trkpt lat="28.223004" lon="105.062209"><ele>1285.9335</ele><time>2026-04-24T22:45:08.000Z</time></trkpt>
        <trkpt lat="28.222981" lon="105.062158"><ele>1284.7908</ele><time>2026-04-24T22:45:12.000Z</time></trkpt>
        <trkpt lat="28.222968" lon="105.062106"><ele>1282.7489</ele><time>2026-04-24T22:45:16.000Z</time></trkpt>
        <trkpt lat="28.222934" lon="105.062062"><ele>1283.2572</ele><time>2026-04-24T22:45:19.000Z</time></trkpt>
        <trkpt lat="28.22292" lon="105.062001"><ele>1283.0065</ele><time>2026-04-24T22:45:23.000Z</time></trkpt>
        <trkpt lat="28.22291" lon="105.06194"><ele>1282.0577</ele><time>2026-04-24T22:45:27.000Z</time></trkpt>
        <trkpt lat="28.222919" lon="105.061883"><ele>1282.2238</ele><time>2026-04-24T22:45:31.000Z</time></trkpt>
        <trkpt lat="28.222931" lon="105.06183"><ele>1281.6232</ele><time>2026-04-24T22:45:34.000Z</time></trkpt>
        <trkpt lat="28.22295" lon="105.06177"><ele>1278.125</ele><time>2026-04-24T22:45:40.000Z</time></trkpt>
        <trkpt lat="28.222964" lon="105.061711"><ele>1279.5693</ele><time>2026-04-24T22:45:46.000Z</time></trkpt>
        <trkpt lat="28.222969" lon="105.061661"><ele>1280.4944</ele><time>2026-04-24T22:45:50.000Z</time></trkpt>
        <trkpt lat="28.223009" lon="105.061625"><ele>1276.9698</ele><time>2026-04-24T22:45:56.000Z</time></trkpt>
        <trkpt lat="28.223029" lon="105.061572"><ele>1276.0321</ele><time>2026-04-24T22:46:00.000Z</time></trkpt>
        <trkpt lat="28.223042" lon="105.061513"><ele>1276.1632</ele><time>2026-04-24T22:46:04.000Z</time></trkpt>
        <trkpt lat="28.223055" lon="105.061459"><ele>1274.8651</ele><time>2026-04-24T22:46:08.000Z</time></trkpt>
        <trkpt lat="28.223072" lon="105.061412"><ele>1274.6552</ele><time>2026-04-24T22:46:12.000Z</time></trkpt>
        <trkpt lat="28.223101" lon="105.061364"><ele>1273.7316</ele><time>2026-04-24T22:46:17.000Z</time></trkpt>
        <trkpt lat="28.223149" lon="105.061359"><ele>1272.1787</ele><time>2026-04-24T22:46:23.000Z</time></trkpt>
        <trkpt lat="28.2232" lon="105.061364"><ele>1270.5499</ele><time>2026-04-24T22:46:28.000Z</time></trkpt>
        <trkpt lat="28.223256" lon="105.061364"><ele>1270.1935</ele><time>2026-04-24T22:46:32.000Z</time></trkpt>
        <trkpt lat="28.223298" lon="105.061344"><ele>1272.0676</ele><time>2026-04-24T22:46:37.000Z</time></trkpt>
        <trkpt lat="28.223347" lon="105.061348"><ele>1272.8082</ele><time>2026-04-24T22:46:44.000Z</time></trkpt>
        <trkpt lat="28.223396" lon="105.061366"><ele>1268.2668</ele><time>2026-04-24T22:47:05.000Z</time></trkpt>
        <trkpt lat="28.223445" lon="105.061378"><ele>1267.5953</ele><time>2026-04-24T22:47:11.000Z</time></trkpt>
        <trkpt lat="28.223496" lon="105.06139"><ele>1266.8694</ele><time>2026-04-24T22:47:16.000Z</time></trkpt>
        <trkpt lat="28.223547" lon="105.061382"><ele>1267.6912</ele><time>2026-04-24T22:47:20.000Z</time></trkpt>
        <trkpt lat="28.223609" lon="105.061396"><ele>1264.7605</ele><time>2026-04-24T22:47:24.000Z</time></trkpt>
        <trkpt lat="28.223661" lon="105.061381"><ele>1268.3346</ele><time>2026-04-24T22:47:29.000Z</time></trkpt>
        <trkpt lat="28.223708" lon="105.061371"><ele>1268.3367</ele><time>2026-04-24T22:47:32.000Z</time></trkpt>
        <trkpt lat="28.22377" lon="105.06136"><ele>1269.7837</ele><time>2026-04-24T22:47:36.000Z</time></trkpt>
        <trkpt lat="28.223814" lon="105.061326"><ele>1269.9829</ele><time>2026-04-24T22:47:40.000Z</time></trkpt>
        <trkpt lat="28.223856" lon="105.061286"><ele>1272.2819</ele><time>2026-04-24T22:47:44.000Z</time></trkpt>
        <trkpt lat="28.223884" lon="105.06124"><ele>1272.3822</ele><time>2026-04-24T22:47:48.000Z</time></trkpt>
        <trkpt lat="28.223915" lon="105.061192"><ele>1273.8221</ele><time>2026-04-24T22:47:52.000Z</time></trkpt>
        <trkpt lat="28.223924" lon="105.061135"><ele>1275.5582</ele><time>2026-04-24T22:47:56.000Z</time></trkpt>
        <trkpt lat="28.223945" lon="105.061084"><ele>1274.4319</ele><time>2026-04-24T22:48:00.000Z</time></trkpt>
        <trkpt lat="28.223946" lon="105.061021"><ele>1275.0708</ele><time>2026-04-24T22:48:04.000Z</time></trkpt>
        <trkpt lat="28.22395" lon="105.060968"><ele>1275.531</ele><time>2026-04-24T22:48:07.000Z</time></trkpt>
        <trkpt lat="28.223946" lon="105.060913"><ele>1274.7325</ele><time>2026-04-24T22:48:11.000Z</time></trkpt>
        <trkpt lat="28.223935" lon="105.060858"><ele>1275.9769</ele><time>2026-04-24T22:48:16.000Z</time></trkpt>
        <trkpt lat="28.223914" lon="105.060803"><ele>1276.4965</ele><time>2026-04-24T22:48:19.000Z</time></trkpt>
        <trkpt lat="28.223882" lon="105.06075"><ele>1277.481</ele><time>2026-04-24T22:48:25.000Z</time></trkpt>
        <trkpt lat="28.223871" lon="105.060697"><ele>1277.223</ele><time>2026-04-24T22:48:29.000Z</time></trkpt>
        <trkpt lat="28.223835" lon="105.060667"><ele>1278.8572</ele><time>2026-04-24T22:48:32.000Z</time></trkpt>
        <trkpt lat="28.223827" lon="105.060614"><ele>1276.6022</ele><time>2026-04-24T22:48:37.000Z</time></trkpt>
        <trkpt lat="28.223806" lon="105.060565"><ele>1276.4742</ele><time>2026-04-24T22:48:41.000Z</time></trkpt>
        <trkpt lat="28.223792" lon="105.060512"><ele>1276.0698</ele><time>2026-04-24T22:48:45.000Z</time></trkpt>
        <trkpt lat="28.223779" lon="105.060457"><ele>1275.6334</ele><time>2026-04-24T22:48:49.000Z</time></trkpt>
        <trkpt lat="28.223753" lon="105.060401"><ele>1274.4822</ele><time>2026-04-24T22:48:54.000Z</time></trkpt>
        <trkpt lat="28.223743" lon="105.060337"><ele>1275.2908</ele><time>2026-04-24T22:48:58.000Z</time></trkpt>
        <trkpt lat="28.223721" lon="105.060273"><ele>1274.6902</ele><time>2026-04-24T22:49:02.000Z</time></trkpt>
        <trkpt lat="28.223704" lon="105.060214"><ele>1276.3828</ele><time>2026-04-24T22:49:06.000Z</time></trkpt>
        <trkpt lat="28.223694" lon="105.060163"><ele>1275.9515</ele><time>2026-04-24T22:49:10.000Z</time></trkpt>
        <trkpt lat="28.22367" lon="105.0601"><ele>1274.9818</ele><time>2026-04-24T22:49:16.000Z</time></trkpt>
        <trkpt lat="28.223668" lon="105.060048"><ele>1277.4315</ele><time>2026-04-24T22:49:20.000Z</time></trkpt>
        <trkpt lat="28.223624" lon="105.060004"><ele>1271.9957</ele><time>2026-04-24T22:49:23.000Z</time></trkpt>
        <trkpt lat="28.223655" lon="105.05996"><ele>1276.574</ele><time>2026-04-24T22:49:26.000Z</time></trkpt>
        <trkpt lat="28.223638" lon="105.059904"><ele>1277.2802</ele><time>2026-04-24T22:49:30.000Z</time></trkpt>
        <trkpt lat="28.22362" lon="105.059845"><ele>1277.0089</ele><time>2026-04-24T22:49:35.000Z</time></trkpt>
        <trkpt lat="28.223634" lon="105.059792"><ele>1275.7664</ele><time>2026-04-24T22:49:39.000Z</time></trkpt>
        <trkpt lat="28.223649" lon="105.059729"><ele>1277.5319</ele><time>2026-04-24T22:49:43.000Z</time></trkpt>
        <trkpt lat="28.223668" lon="105.059679"><ele>1275.4501</ele><time>2026-04-24T22:49:47.000Z</time></trkpt>
        <trkpt lat="28.22368" lon="105.059629"><ele>1276.0625</ele><time>2026-04-24T22:49:51.000Z</time></trkpt>
        <trkpt lat="28.223691" lon="105.059568"><ele>1274.4479</ele><time>2026-04-24T22:49:56.000Z</time></trkpt>
        <trkpt lat="28.223708" lon="105.059509"><ele>1271.9015</ele><time>2026-04-24T22:50:01.000Z</time></trkpt>
        <trkpt lat="28.22373" lon="105.059456"><ele>1273.2106</ele><time>2026-04-24T22:50:05.000Z</time></trkpt>
        <trkpt lat="28.223744" lon="105.0594"><ele>1273.9513</ele><time>2026-04-24T22:50:09.000Z</time></trkpt>
        <trkpt lat="28.223758" lon="105.059345"><ele>1274.674</ele><time>2026-04-24T22:50:13.000Z</time></trkpt>
        <trkpt lat="28.223773" lon="105.059293"><ele>1275.6139</ele><time>2026-04-24T22:50:23.000Z</time></trkpt>
        <trkpt lat="28.223791" lon="105.05923"><ele>1276.6804</ele><time>2026-04-24T22:50:27.000Z</time></trkpt>
        <trkpt lat="28.223813" lon="105.059176"><ele>1277.6554</ele><time>2026-04-24T22:50:32.000Z</time></trkpt>
        <trkpt lat="28.223826" lon="105.05912"><ele>1277.8882</ele><time>2026-04-24T22:50:37.000Z</time></trkpt>
        <trkpt lat="28.22384" lon="105.059058"><ele>1277.8828</ele><time>2026-04-24T22:50:42.000Z</time></trkpt>
        <trkpt lat="28.223869" lon="105.059012"><ele>1278.6611</ele><time>2026-04-24T22:50:46.000Z</time></trkpt>
        <trkpt lat="28.223911" lon="105.058976"><ele>1279.8302</ele><time>2026-04-24T22:50:51.000Z</time></trkpt>
        <trkpt lat="28.223953" lon="105.058942"><ele>1280.1418</ele><time>2026-04-24T22:50:55.000Z</time></trkpt>
        <trkpt lat="28.224001" lon="105.058916"><ele>1281.3552</ele><time>2026-04-24T22:50:59.000Z</time></trkpt>
        <trkpt lat="28.224066" lon="105.05891"><ele>1279.1226</ele><time>2026-04-24T22:51:04.000Z</time></trkpt>
        <trkpt lat="28.224104" lon="105.058859"><ele>1282.3772</ele><time>2026-04-24T22:51:10.000Z</time></trkpt>
        <trkpt lat="28.224142" lon="105.058818"><ele>1285.7852</ele><time>2026-04-24T22:51:14.000Z</time></trkpt>
        <trkpt lat="28.224185" lon="105.0588"><ele>1285.3015</ele><time>2026-04-24T22:51:17.000Z</time></trkpt>
        <trkpt lat="28.224231" lon="105.058805"><ele>1287.8434</ele><time>2026-04-24T22:51:21.000Z</time></trkpt>
        <trkpt lat="28.224277" lon="105.058805"><ele>1286.5839</ele><time>2026-04-24T22:51:24.000Z</time></trkpt>
        <trkpt lat="28.224331" lon="105.058789"><ele>1285.6001</ele><time>2026-04-24T22:51:36.000Z</time></trkpt>
        <trkpt lat="28.224386" lon="105.058789"><ele>1288.266</ele><time>2026-04-24T22:51:40.000Z</time></trkpt>
        <trkpt lat="28.224437" lon="105.058781"><ele>1286.8899</ele><time>2026-04-24T22:51:44.000Z</time></trkpt>
        <trkpt lat="28.224485" lon="105.058765"><ele>1286.8364</ele><time>2026-04-24T22:51:47.000Z</time></trkpt>
        <trkpt lat="28.224526" lon="105.058734"><ele>1285.9812</ele><time>2026-04-24T22:51:53.000Z</time></trkpt>
        <trkpt lat="28.224553" lon="105.05869"><ele>1287.4823</ele><time>2026-04-24T22:51:56.000Z</time></trkpt>
        <trkpt lat="28.224588" lon="105.058657"><ele>1283.1226</ele><time>2026-04-24T22:52:01.000Z</time></trkpt>
        <trkpt lat="28.224613" lon="105.058612"><ele>1283.1833</ele><time>2026-04-24T22:52:04.000Z</time></trkpt>
        <trkpt lat="28.2246" lon="105.058559"><ele>1284.4816</ele><time>2026-04-24T22:52:08.000Z</time></trkpt>
        <trkpt lat="28.224601" lon="105.0585"><ele>1284.2133</ele><time>2026-04-24T22:52:13.000Z</time></trkpt>
        <trkpt lat="28.224603" lon="105.058443"><ele>1287.2224</ele><time>2026-04-24T22:52:19.000Z</time></trkpt>
        <trkpt lat="28.224567" lon="105.058406"><ele>1288.3671</ele><time>2026-04-24T22:52:24.000Z</time></trkpt>
        <trkpt lat="28.22456" lon="105.058343"><ele>1288.4257</ele><time>2026-04-24T22:52:29.000Z</time></trkpt>
        <trkpt lat="28.224553" lon="105.058285"><ele>1289.8546</ele><time>2026-04-24T22:52:33.000Z</time></trkpt>
        <trkpt lat="28.224562" lon="105.058228"><ele>1290.5261</ele><time>2026-04-24T22:52:37.000Z</time></trkpt>
        <trkpt lat="28.224564" lon="105.058173"><ele>1289.5203</ele><time>2026-04-24T22:52:42.000Z</time></trkpt>
        <trkpt lat="28.22455" lon="105.058107"><ele>1288.8679</ele><time>2026-04-24T22:52:47.000Z</time></trkpt>
        <trkpt lat="28.224547" lon="105.058048"><ele>1287.8158</ele><time>2026-04-24T22:52:51.000Z</time></trkpt>
        <trkpt lat="28.224538" lon="105.05799"><ele>1287.3512</ele><time>2026-04-24T22:52:55.000Z</time></trkpt>
        <trkpt lat="28.224549" lon="105.057935"><ele>1287.3522</ele><time>2026-04-24T22:53:00.000Z</time></trkpt>
        <trkpt lat="28.224566" lon="105.057873"><ele>1288.3092</ele><time>2026-04-24T22:53:05.000Z</time></trkpt>
        <trkpt lat="28.224567" lon="105.057806"><ele>1285.5732</ele><time>2026-04-24T22:53:21.000Z</time></trkpt>
        <trkpt lat="28.224574" lon="105.057751"><ele>1285.2532</ele><time>2026-04-24T22:53:25.000Z</time></trkpt>
        <trkpt lat="28.224584" lon="105.057696"><ele>1286.5424</ele><time>2026-04-24T22:53:28.000Z</time></trkpt>
        <trkpt lat="28.224597" lon="105.057636"><ele>1285.7815</ele><time>2026-04-24T22:53:33.000Z</time></trkpt>
        <trkpt lat="28.224625" lon="105.057586"><ele>1284.2985</ele><time>2026-04-24T22:53:43.000Z</time></trkpt>
        <trkpt lat="28.224665" lon="105.057549"><ele>1283.7672</ele><time>2026-04-24T22:53:47.000Z</time></trkpt>
        <trkpt lat="28.224681" lon="105.057491"><ele>1283.3583</ele><time>2026-04-24T22:53:51.000Z</time></trkpt>
        <trkpt lat="28.224703" lon="105.057446"><ele>1284.67</ele><time>2026-04-24T22:53:55.000Z</time></trkpt>
        <trkpt lat="28.224706" lon="105.057385"><ele>1286.4703</ele><time>2026-04-24T22:53:59.000Z</time></trkpt>
        <trkpt lat="28.224707" lon="105.05733"><ele>1288.5045</ele><time>2026-04-24T22:54:03.000Z</time></trkpt>
        <trkpt lat="28.224709" lon="105.057272"><ele>1288.0665</ele><time>2026-04-24T22:54:08.000Z</time></trkpt>
        <trkpt lat="28.224708" lon="105.057212"><ele>1287.9203</ele><time>2026-04-24T22:54:12.000Z</time></trkpt>
        <trkpt lat="28.224709" lon="105.057146"><ele>1288.3218</ele><time>2026-04-24T22:54:17.000Z</time></trkpt>
        <trkpt lat="28.224692" lon="105.057084"><ele>1287.9977</ele><time>2026-04-24T22:54:21.000Z</time></trkpt>
        <trkpt lat="28.224679" lon="105.057029"><ele>1287.2942</ele><time>2026-04-24T22:54:25.000Z</time></trkpt>
        <trkpt lat="28.224667" lon="105.056976"><ele>1287.021</ele><time>2026-04-24T22:54:29.000Z</time></trkpt>
        <trkpt lat="28.224651" lon="105.056919"><ele>1286.3336</ele><time>2026-04-24T22:54:33.000Z</time></trkpt>
        <trkpt lat="28.224643" lon="105.056864"><ele>1286.4873</ele><time>2026-04-24T22:54:37.000Z</time></trkpt>
        <trkpt lat="28.224616" lon="105.056811"><ele>1285.9396</ele><time>2026-04-24T22:54:41.000Z</time></trkpt>
        <trkpt lat="28.224606" lon="105.056753"><ele>1286.2273</ele><time>2026-04-24T22:54:45.000Z</time></trkpt>
        <trkpt lat="28.224592" lon="105.056697"><ele>1286.0154</ele><time>2026-04-24T22:54:49.000Z</time></trkpt>
        <trkpt lat="28.224582" lon="105.056642"><ele>1285.667</ele><time>2026-04-24T22:54:53.000Z</time></trkpt>
        <trkpt lat="28.224563" lon="105.056591"><ele>1285.3481</ele><time>2026-04-24T22:54:57.000Z</time></trkpt>
        <trkpt lat="28.224551" lon="105.056535"><ele>1285.2767</ele><time>2026-04-24T22:55:01.000Z</time></trkpt>
        <trkpt lat="28.224554" lon="105.056479"><ele>1285.5038</ele><time>2026-04-24T22:55:05.000Z</time></trkpt>
        <trkpt lat="28.224553" lon="105.056418"><ele>1285.7701</ele><time>2026-04-24T22:55:10.000Z</time></trkpt>
        <trkpt lat="28.224561" lon="105.056363"><ele>1285.4175</ele><time>2026-04-24T22:55:14.000Z</time></trkpt>
        <trkpt lat="28.22457" lon="105.056304"><ele>1285.2584</ele><time>2026-04-24T22:55:18.000Z</time></trkpt>
        <trkpt lat="28.224576" lon="105.056239"><ele>1285.5552</ele><time>2026-04-24T22:55:22.000Z</time></trkpt>
        <trkpt lat="28.224584" lon="105.056186"><ele>1285.0509</ele><time>2026-04-24T22:55:26.000Z</time></trkpt>
        <trkpt lat="28.224566" lon="105.056128"><ele>1284.8655</ele><time>2026-04-24T22:55:30.000Z</time></trkpt>
        <trkpt lat="28.224517" lon="105.0561"><ele>1282.9584</ele><time>2026-04-24T22:55:36.000Z</time></trkpt>
        <trkpt lat="28.224476" lon="105.05608"><ele>1281.0375</ele><time>2026-04-24T22:55:40.000Z</time></trkpt>
        <trkpt lat="28.22443" lon="105.056048"><ele>1280.8054</ele><time>2026-04-24T22:55:45.000Z</time></trkpt>
        <trkpt lat="28.224391" lon="105.056004"><ele>1279.994</ele><time>2026-04-24T22:55:49.000Z</time></trkpt>
        <trkpt lat="28.224362" lon="105.055962"><ele>1278.2069</ele><time>2026-04-24T22:55:53.000Z</time></trkpt>
        <trkpt lat="28.224345" lon="105.055896"><ele>1278.4208</ele><time>2026-04-24T22:55:59.000Z</time></trkpt>
        <trkpt lat="28.224303" lon="105.055867"><ele>1277.0911</ele><time>2026-04-24T22:56:03.000Z</time></trkpt>
        <trkpt lat="28.224281" lon="105.055809"><ele>1277.4805</ele><time>2026-04-24T22:56:07.000Z</time></trkpt>
        <trkpt lat="28.224242" lon="105.055779"><ele>1275.6412</ele><time>2026-04-24T22:56:11.000Z</time></trkpt>
        <trkpt lat="28.224207" lon="105.055738"><ele>1275.1302</ele><time>2026-04-24T22:56:15.000Z</time></trkpt>
        <trkpt lat="28.224173" lon="105.055702"><ele>1274.3827</ele><time>2026-04-24T22:56:19.000Z</time></trkpt>
        <trkpt lat="28.224141" lon="105.055659"><ele>1275.3319</ele><time>2026-04-24T22:56:23.000Z</time></trkpt>
        <trkpt lat="28.224108" lon="105.05561"><ele>1275.188</ele><time>2026-04-24T22:56:28.000Z</time></trkpt>
        <trkpt lat="28.224065" lon="105.05557"><ele>1275.2985</ele><time>2026-04-24T22:56:33.000Z</time></trkpt>
        <trkpt lat="28.22403" lon="105.05552"><ele>1275.1022</ele><time>2026-04-24T22:56:37.000Z</time></trkpt>
        <trkpt lat="28.223986" lon="105.055492"><ele>1274.6669</ele><time>2026-04-24T22:56:41.000Z</time></trkpt>
        <trkpt lat="28.223949" lon="105.055458"><ele>1273.8378</ele><time>2026-04-24T22:56:45.000Z</time></trkpt>
        <trkpt lat="28.223927" lon="105.055409"><ele>1274.3297</ele><time>2026-04-24T22:56:49.000Z</time></trkpt>
        <trkpt lat="28.223897" lon="105.055368"><ele>1274.6537</ele><time>2026-04-24T22:56:53.000Z</time></trkpt>
        <trkpt lat="28.223853" lon="105.05533"><ele>1276.1489</ele><time>2026-04-24T22:56:58.000Z</time></trkpt>
        <trkpt lat="28.223821" lon="105.055286"><ele>1275.5059</ele><time>2026-04-24T22:57:02.000Z</time></trkpt>
        <trkpt lat="28.223795" lon="105.055233"><ele>1275.5529</ele><time>2026-04-24T22:57:07.000Z</time></trkpt>
        <trkpt lat="28.223763" lon="105.055186"><ele>1275.3635</ele><time>2026-04-24T22:57:19.000Z</time></trkpt>
        <trkpt lat="28.223741" lon="105.055134"><ele>1275.1259</ele><time>2026-04-24T22:57:24.000Z</time></trkpt>
        <trkpt lat="28.22372" lon="105.055087"><ele>1274.2947</ele><time>2026-04-24T22:57:28.000Z</time></trkpt>
        <trkpt lat="28.223682" lon="105.055057"><ele>1273.479</ele><time>2026-04-24T22:57:32.000Z</time></trkpt>
        <trkpt lat="28.223646" lon="105.055025"><ele>1273.2966</ele><time>2026-04-24T22:57:36.000Z</time></trkpt>
        <trkpt lat="28.223603" lon="105.054993"><ele>1272.7999</ele><time>2026-04-24T22:57:40.000Z</time></trkpt>
        <trkpt lat="28.223556" lon="105.054964"><ele>1272.8065</ele><time>2026-04-24T22:57:45.000Z</time></trkpt>
        <trkpt lat="28.223514" lon="105.054927"><ele>1271.735</ele><time>2026-04-24T22:57:50.000Z</time></trkpt>
        <trkpt lat="28.22347" lon="105.05491"><ele>1272.2058</ele><time>2026-04-24T22:57:54.000Z</time></trkpt>
        <trkpt lat="28.223426" lon="105.05489"><ele>1271.9203</ele><time>2026-04-24T22:57:58.000Z</time></trkpt>
        <trkpt lat="28.223377" lon="105.054873"><ele>1271.4324</ele><time>2026-04-24T22:58:02.000Z</time></trkpt>
        <trkpt lat="28.223327" lon="105.054868"><ele>1271.947</ele><time>2026-04-24T22:58:06.000Z</time></trkpt>
        <trkpt lat="28.223277" lon="105.054868"><ele>1271.9652</ele><time>2026-04-24T22:58:10.000Z</time></trkpt>
        <trkpt lat="28.223224" lon="105.054874"><ele>1272.3889</ele><time>2026-04-24T22:58:14.000Z</time></trkpt>
        <trkpt lat="28.223177" lon="105.054853"><ele>1272.6213</ele><time>2026-04-24T22:58:18.000Z</time></trkpt>
        <trkpt lat="28.223133" lon="105.054829"><ele>1272.5118</ele><time>2026-04-24T22:58:22.000Z</time></trkpt>
        <trkpt lat="28.223087" lon="105.054812"><ele>1273.1744</ele><time>2026-04-24T22:58:26.000Z</time></trkpt>
        <trkpt lat="28.223045" lon="105.054793"><ele>1273.5626</ele><time>2026-04-24T22:58:30.000Z</time></trkpt>
        <trkpt lat="28.222998" lon="105.054776"><ele>1273.4331</ele><time>2026-04-24T22:58:34.000Z</time></trkpt>
        <trkpt lat="28.222953" lon="105.054755"><ele>1273.5939</ele><time>2026-04-24T22:58:38.000Z</time></trkpt>
        <trkpt lat="28.222912" lon="105.054732"><ele>1272.7446</ele><time>2026-04-24T22:58:42.000Z</time></trkpt>
        <trkpt lat="28.222864" lon="105.054726"><ele>1273.5339</ele><time>2026-04-24T22:58:46.000Z</time></trkpt>
        <trkpt lat="28.222815" lon="105.054705"><ele>1273.6083</ele><time>2026-04-24T22:58:50.000Z</time></trkpt>
        <trkpt lat="28.222769" lon="105.054681"><ele>1274.5575</ele><time>2026-04-24T22:58:54.000Z</time></trkpt>
        <trkpt lat="28.222725" lon="105.054657"><ele>1273.5842</ele><time>2026-04-24T22:58:59.000Z</time></trkpt>
        <trkpt lat="28.222679" lon="105.054636"><ele>1273.9487</ele><time>2026-04-24T22:59:03.000Z</time></trkpt>
        <trkpt lat="28.222632" lon="105.054616"><ele>1275.2625</ele><time>2026-04-24T22:59:07.000Z</time></trkpt>
        <trkpt lat="28.222588" lon="105.054586"><ele>1274.008</ele><time>2026-04-24T22:59:11.000Z</time></trkpt>
        <trkpt lat="28.222532" lon="105.054565"><ele>1273.8234</ele><time>2026-04-24T22:59:16.000Z</time></trkpt>
        <trkpt lat="28.222483" lon="105.054534"><ele>1273.7327</ele><time>2026-04-24T22:59:20.000Z</time></trkpt>
        <trkpt lat="28.222442" lon="105.054502"><ele>1274.6785</ele><time>2026-04-24T22:59:24.000Z</time></trkpt>
        <trkpt lat="28.222402" lon="105.054465"><ele>1274.0734</ele><time>2026-04-24T22:59:28.000Z</time></trkpt>
        <trkpt lat="28.222354" lon="105.054458"><ele>1273.7643</ele><time>2026-04-24T22:59:33.000Z</time></trkpt>
        <trkpt lat="28.222317" lon="105.05442"><ele>1274.4138</ele><time>2026-04-24T22:59:37.000Z</time></trkpt>
        <trkpt lat="28.222266" lon="105.054407"><ele>1274.5615</ele><time>2026-04-24T22:59:41.000Z</time></trkpt>
        <trkpt lat="28.222224" lon="105.054377"><ele>1273.9645</ele><time>2026-04-24T22:59:45.000Z</time></trkpt>
        <trkpt lat="28.222183" lon="105.054356"><ele>1273.7891</ele><time>2026-04-24T22:59:49.000Z</time></trkpt>
        <trkpt lat="28.22214" lon="105.054338"><ele>1272.8715</ele><time>2026-04-24T22:59:54.000Z</time></trkpt>
        <trkpt lat="28.222094" lon="105.054311"><ele>1271.7151</ele><time>2026-04-24T22:59:59.000Z</time></trkpt>
        <trkpt lat="28.222038" lon="105.054296"><ele>1270.8694</ele><time>2026-04-24T23:00:04.000Z</time></trkpt>
        <trkpt lat="28.222008" lon="105.054252"><ele>1271.0643</ele><time>2026-04-24T23:00:07.000Z</time></trkpt>
        <trkpt lat="28.221964" lon="105.054235"><ele>1270.4094</ele><time>2026-04-24T23:00:11.000Z</time></trkpt>
        <trkpt lat="28.221917" lon="105.054209"><ele>1272.3975</ele><time>2026-04-24T23:00:15.000Z</time></trkpt>
        <trkpt lat="28.221882" lon="105.054175"><ele>1272.2845</ele><time>2026-04-24T23:00:19.000Z</time></trkpt>
        <trkpt lat="28.221833" lon="105.054163"><ele>1272.8582</ele><time>2026-04-24T23:00:23.000Z</time></trkpt>
        <trkpt lat="28.221788" lon="105.054168"><ele>1273.8229</ele><time>2026-04-24T23:00:26.000Z</time></trkpt>
        <trkpt lat="28.221733" lon="105.054176"><ele>1274.6515</ele><time>2026-04-24T23:00:31.000Z</time></trkpt>
        <trkpt lat="28.22168" lon="105.054168"><ele>1272.611</ele><time>2026-04-24T23:00:36.000Z</time></trkpt>
        <trkpt lat="28.221628" lon="105.054179"><ele>1273.3936</ele><time>2026-04-24T23:00:40.000Z</time></trkpt>
        <trkpt lat="28.221581" lon="105.054179"><ele>1273.7603</ele><time>2026-04-24T23:00:44.000Z</time></trkpt>
        <trkpt lat="28.221534" lon="105.054183"><ele>1271.8622</ele><time>2026-04-24T23:00:48.000Z</time></trkpt>
        <trkpt lat="28.22148" lon="105.054177"><ele>1271.6405</ele><time>2026-04-24T23:00:52.000Z</time></trkpt>
        <trkpt lat="28.221428" lon="105.054171"><ele>1267.9636</ele><time>2026-04-24T23:00:57.000Z</time></trkpt>
        <trkpt lat="28.221372" lon="105.05416"><ele>1266.8173</ele><time>2026-04-24T23:01:01.000Z</time></trkpt>
        <trkpt lat="28.221319" lon="105.054146"><ele>1265.7833</ele><time>2026-04-24T23:01:05.000Z</time></trkpt>
        <trkpt lat="28.221268" lon="105.054106"><ele>1264.7931</ele><time>2026-04-24T23:01:10.000Z</time></trkpt>
        <trkpt lat="28.221223" lon="105.054093"><ele>1264.0719</ele><time>2026-04-24T23:01:14.000Z</time></trkpt>
        <trkpt lat="28.221181" lon="105.054065"><ele>1264.4323</ele><time>2026-04-24T23:01:19.000Z</time></trkpt>
        <trkpt lat="28.221142" lon="105.054026"><ele>1264.5928</ele><time>2026-04-24T23:01:24.000Z</time></trkpt>
        <trkpt lat="28.221121" lon="105.053958"><ele>1266.0355</ele><time>2026-04-24T23:01:33.000Z</time></trkpt>
        <trkpt lat="28.221137" lon="105.05391"><ele>1263.8643</ele><time>2026-04-24T23:01:42.000Z</time></trkpt>
        <trkpt lat="28.221157" lon="105.053859"><ele>1264.4425</ele><time>2026-04-24T23:01:47.000Z</time></trkpt>
        <trkpt lat="28.221163" lon="105.053806"><ele>1262.436</ele><time>2026-04-24T23:01:52.000Z</time></trkpt>
        <trkpt lat="28.221189" lon="105.053761"><ele>1263.156</ele><time>2026-04-24T23:01:56.000Z</time></trkpt>
        <trkpt lat="28.221231" lon="105.053727"><ele>1264.0339</ele><time>2026-04-24T23:02:10.000Z</time></trkpt>
        <trkpt lat="28.221272" lon="105.053676"><ele>1263.9467</ele><time>2026-04-24T23:02:15.000Z</time></trkpt>
        <trkpt lat="28.221315" lon="105.053639"><ele>1265.0286</ele><time>2026-04-24T23:02:19.000Z</time></trkpt>
        <trkpt lat="28.221364" lon="105.053614"><ele>1264.4808</ele><time>2026-04-24T23:02:25.000Z</time></trkpt>
        <trkpt lat="28.221391" lon="105.053573"><ele>1265.9639</ele><time>2026-04-24T23:02:29.000Z</time></trkpt>
        <trkpt lat="28.221423" lon="105.053537"><ele>1267.4708</ele><time>2026-04-24T23:02:33.000Z</time></trkpt>
        <trkpt lat="28.221454" lon="105.053497"><ele>1268.1471</ele><time>2026-04-24T23:02:39.000Z</time></trkpt>
        <trkpt lat="28.221451" lon="105.053445"><ele>1268.7559</ele><time>2026-04-24T23:02:46.000Z</time></trkpt>
        <trkpt lat="28.221456" lon="105.05338"><ele>1269.0614</ele><time>2026-04-24T23:02:52.000Z</time></trkpt>
        <trkpt lat="28.221439" lon="105.053312"><ele>1270.1161</ele><time>2026-04-24T23:02:56.000Z</time></trkpt>
        <trkpt lat="28.221459" lon="105.053362"><ele>1268.3285</ele><time>2026-04-24T23:03:14.000Z</time></trkpt>
        <trkpt lat="28.221476" lon="105.053414"><ele>1268.3568</ele><time>2026-04-24T23:03:19.000Z</time></trkpt>
        <trkpt lat="28.221457" lon="105.053471"><ele>1269.15</ele><time>2026-04-24T23:03:29.000Z</time></trkpt>
        <trkpt lat="28.221436" lon="105.053529"><ele>1268.833</ele><time>2026-04-24T23:03:38.000Z</time></trkpt>
        <trkpt lat="28.221396" lon="105.053564"><ele>1269.1843</ele><time>2026-04-24T23:03:44.000Z</time></trkpt>
        <trkpt lat="28.221358" lon="105.053598"><ele>1268.423</ele><time>2026-04-24T23:03:50.000Z</time></trkpt>
        <trkpt lat="28.221323" lon="105.053631"><ele>1268.0645</ele><time>2026-04-24T23:03:55.000Z</time></trkpt>
        <trkpt lat="28.221295" lon="105.053675"><ele>1266.6305</ele><time>2026-04-24T23:04:00.000Z</time></trkpt>
        <trkpt lat="28.221256" lon="105.053706"><ele>1264.8052</ele><time>2026-04-24T23:04:06.000Z</time></trkpt>
        <trkpt lat="28.221222" lon="105.053746"><ele>1265.5779</ele><time>2026-04-24T23:04:11.000Z</time></trkpt>
        <trkpt lat="28.221195" lon="105.053792"><ele>1264.7358</ele><time>2026-04-24T23:04:15.000Z</time></trkpt>
        <trkpt lat="28.221177" lon="105.053864"><ele>1266.3763</ele><time>2026-04-24T23:04:20.000Z</time></trkpt>
        <trkpt lat="28.221149" lon="105.053916"><ele>1266.0452</ele><time>2026-04-24T23:04:25.000Z</time></trkpt>
        <trkpt lat="28.221133" lon="105.05397"><ele>1266.4828</ele><time>2026-04-24T23:04:30.000Z</time></trkpt>
        <trkpt lat="28.221134" lon="105.054022"><ele>1265.7037</ele><time>2026-04-24T23:04:36.000Z</time></trkpt>
        <trkpt lat="28.221167" lon="105.054058"><ele>1264.5668</ele><time>2026-04-24T23:04:40.000Z</time></trkpt>
        <trkpt lat="28.221183" lon="105.054106"><ele>1264.703</ele><time>2026-04-24T23:04:50.000Z</time></trkpt>
        <trkpt lat="28.221227" lon="105.054122"><ele>1263.4282</ele><time>2026-04-24T23:04:54.000Z</time></trkpt>
        <trkpt lat="28.221267" lon="105.054147"><ele>1263.8375</ele><time>2026-04-24T23:04:58.000Z</time></trkpt>
        <trkpt lat="28.221317" lon="105.054162"><ele>1263.7069</ele><time>2026-04-24T23:05:02.000Z</time></trkpt>
        <trkpt lat="28.221363" lon="105.054177"><ele>1263.5797</ele><time>2026-04-24T23:05:06.000Z</time></trkpt>
        <trkpt lat="28.221405" lon="105.054196"><ele>1262.7861</ele><time>2026-04-24T23:05:10.000Z</time></trkpt>
        <trkpt lat="28.221461" lon="105.054199"><ele>1264.6855</ele><time>2026-04-24T23:05:15.000Z</time></trkpt>
        <trkpt lat="28.221508" lon="105.054197"><ele>1265.3926</ele><time>2026-04-24T23:05:19.000Z</time></trkpt>
        <trkpt lat="28.221554" lon="105.054195"><ele>1266.553</ele><time>2026-04-24T23:05:22.000Z</time></trkpt>
        <trkpt lat="28.221597" lon="105.054182"><ele>1267.9631</ele><time>2026-04-24T23:05:26.000Z</time></trkpt>
        <trkpt lat="28.221645" lon="105.054178"><ele>1268.0908</ele><time>2026-04-24T23:05:30.000Z</time></trkpt>
        <trkpt lat="28.221703" lon="105.054165"><ele>1270.0884</ele><time>2026-04-24T23:05:35.000Z</time></trkpt>
        <trkpt lat="28.221751" lon="105.05416"><ele>1270.5479</ele><time>2026-04-24T23:05:39.000Z</time></trkpt>
        <trkpt lat="28.221796" lon="105.054157"><ele>1271.5134</ele><time>2026-04-24T23:05:43.000Z</time></trkpt>
        <trkpt lat="28.221841" lon="105.054168"><ele>1271.4292</ele><time>2026-04-24T23:05:48.000Z</time></trkpt>
        <trkpt lat="28.221891" lon="105.054207"><ele>1270.889</ele><time>2026-04-24T23:05:52.000Z</time></trkpt>
        <trkpt lat="28.221946" lon="105.054213"><ele>1268.7743</ele><time>2026-04-24T23:05:57.000Z</time></trkpt>
        <trkpt lat="28.221986" lon="105.054235"><ele>1269.8928</ele><time>2026-04-24T23:06:01.000Z</time></trkpt>
        <trkpt lat="28.222029" lon="105.054254"><ele>1268.7496</ele><time>2026-04-24T23:06:04.000Z</time></trkpt>
        <trkpt lat="28.222077" lon="105.054269"><ele>1269.8656</ele><time>2026-04-24T23:06:08.000Z</time></trkpt>
        <trkpt lat="28.222117" lon="105.054303"><ele>1269.5839</ele><time>2026-04-24T23:06:13.000Z</time></trkpt>
        <trkpt lat="28.222168" lon="105.054332"><ele>1269.809</ele><time>2026-04-24T23:06:17.000Z</time></trkpt>
        <trkpt lat="28.222212" lon="105.054364"><ele>1272.4722</ele><time>2026-04-24T23:06:22.000Z</time></trkpt>
        <trkpt lat="28.222247" lon="105.054399"><ele>1271.3424</ele><time>2026-04-24T23:06:27.000Z</time></trkpt>
        <trkpt lat="28.222295" lon="105.054422"><ele>1273.0157</ele><time>2026-04-24T23:06:31.000Z</time></trkpt>
        <trkpt lat="28.222345" lon="105.054443"><ele>1269.5226</ele><time>2026-04-24T23:06:37.000Z</time></trkpt>
        <trkpt lat="28.222392" lon="105.054465"><ele>1271.058</ele><time>2026-04-24T23:06:41.000Z</time></trkpt>
        <trkpt lat="28.222438" lon="105.054497"><ele>1272.0074</ele><time>2026-04-24T23:06:45.000Z</time></trkpt>
        <trkpt lat="28.222489" lon="105.054506"><ele>1270.5364</ele><time>2026-04-24T23:06:49.000Z</time></trkpt>
        <trkpt lat="28.222535" lon="105.05453"><ele>1272.0167</ele><time>2026-04-24T23:06:53.000Z</time></trkpt>
        <trkpt lat="28.222575" lon="105.054557"><ele>1273.5</ele><time>2026-04-24T23:06:56.000Z</time></trkpt>
        <trkpt lat="28.222625" lon="105.054556"><ele>1271.9229</ele><time>2026-04-24T23:07:02.000Z</time></trkpt>
        <trkpt lat="28.222667" lon="105.054589"><ele>1271.256</ele><time>2026-04-24T23:07:06.000Z</time></trkpt>
        <trkpt lat="28.222714" lon="105.054629"><ele>1273.5535</ele><time>2026-04-24T23:07:09.000Z</time></trkpt>
        <trkpt lat="28.222768" lon="105.05465"><ele>1271.9</ele><time>2026-04-24T23:07:15.000Z</time></trkpt>
        <trkpt lat="28.222815" lon="105.054671"><ele>1272.8217</ele><time>2026-04-24T23:07:20.000Z</time></trkpt>
        <trkpt lat="28.222876" lon="105.0547"><ele>1274.496</ele><time>2026-04-24T23:07:24.000Z</time></trkpt>
        <trkpt lat="28.222925" lon="105.054723"><ele>1273.4927</ele><time>2026-04-24T23:07:29.000Z</time></trkpt>
        <trkpt lat="28.222986" lon="105.054759"><ele>1274.4753</ele><time>2026-04-24T23:07:35.000Z</time></trkpt>
        <trkpt lat="28.223038" lon="105.054776"><ele>1274.6826</ele><time>2026-04-24T23:07:40.000Z</time></trkpt>
        <trkpt lat="28.223092" lon="105.054772"><ele>1273.4282</ele><time>2026-04-24T23:07:45.000Z</time></trkpt>
        <trkpt lat="28.223131" lon="105.054815"><ele>1273.4547</ele><time>2026-04-24T23:07:50.000Z</time></trkpt>
        <trkpt lat="28.223181" lon="105.054825"><ele>1272.2488</ele><time>2026-04-24T23:07:57.000Z</time></trkpt>
        <trkpt lat="28.223226" lon="105.054838"><ele>1272.2765</ele><time>2026-04-24T23:08:01.000Z</time></trkpt>
        <trkpt lat="28.223286" lon="105.054861"><ele>1273.7832</ele><time>2026-04-24T23:08:05.000Z</time></trkpt>
        <trkpt lat="28.223333" lon="105.054874"><ele>1275.1561</ele><time>2026-04-24T23:08:08.000Z</time></trkpt>
        <trkpt lat="28.223378" lon="105.054882"><ele>1276.334</ele><time>2026-04-24T23:08:12.000Z</time></trkpt>
        <trkpt lat="28.223422" lon="105.054869"><ele>1274.8433</ele><time>2026-04-24T23:08:16.000Z</time></trkpt>
        <trkpt lat="28.223476" lon="105.054876"><ele>1274.0001</ele><time>2026-04-24T23:08:19.000Z</time></trkpt>
        <trkpt lat="28.223534" lon="105.054895"><ele>1274.4872</ele><time>2026-04-24T23:08:24.000Z</time></trkpt>
        <trkpt lat="28.223568" lon="105.054932"><ele>1273.6367</ele><time>2026-04-24T23:08:31.000Z</time></trkpt>
        <trkpt lat="28.223627" lon="105.054958"><ele>1272.129</ele><time>2026-04-24T23:08:36.000Z</time></trkpt>
        <trkpt lat="28.223662" lon="105.054998"><ele>1270.0016</ele><time>2026-04-24T23:08:42.000Z</time></trkpt>
        <trkpt lat="28.223682" lon="105.055047"><ele>1269.9344</ele><time>2026-04-24T23:08:46.000Z</time></trkpt>
        <trkpt lat="28.223726" lon="105.05509"><ele>1269.2083</ele><time>2026-04-24T23:08:52.000Z</time></trkpt>
        <trkpt lat="28.223747" lon="105.055146"><ele>1268.8516</ele><time>2026-04-24T23:08:56.000Z</time></trkpt>
        <trkpt lat="28.223778" lon="105.055193"><ele>1269.6375</ele><time>2026-04-24T23:09:00.000Z</time></trkpt>
        <trkpt lat="28.2238" lon="105.055252"><ele>1269.0669</ele><time>2026-04-24T23:09:05.000Z</time></trkpt>
        <trkpt lat="28.22381" lon="105.055305"><ele>1268.3871</ele><time>2026-04-24T23:09:09.000Z</time></trkpt>
        <trkpt lat="28.223842" lon="105.055343"><ele>1269.0485</ele><time>2026-04-24T23:09:12.000Z</time></trkpt>
        <trkpt lat="28.223878" lon="105.055379"><ele>1269.9352</ele><time>2026-04-24T23:09:16.000Z</time></trkpt>
        <trkpt lat="28.223914" lon="105.055414"><ele>1269.8756</ele><time>2026-04-24T23:09:20.000Z</time></trkpt>
        <trkpt lat="28.22395" lon="105.055452"><ele>1271.2656</ele><time>2026-04-24T23:09:24.000Z</time></trkpt>
        <trkpt lat="28.223985" lon="105.055491"><ele>1271.6912</ele><time>2026-04-24T23:09:28.000Z</time></trkpt>
        <trkpt lat="28.22402" lon="105.055528"><ele>1271.4067</ele><time>2026-04-24T23:09:33.000Z</time></trkpt>
        <trkpt lat="28.224058" lon="105.055581"><ele>1272.4681</ele><time>2026-04-24T23:09:39.000Z</time></trkpt>
        <trkpt lat="28.224093" lon="105.05562"><ele>1273.4097</ele><time>2026-04-24T23:09:44.000Z</time></trkpt>
        <trkpt lat="28.224132" lon="105.055653"><ele>1273.22</ele><time>2026-04-24T23:09:49.000Z</time></trkpt>
        <trkpt lat="28.224171" lon="105.055695"><ele>1274.7185</ele><time>2026-04-24T23:09:53.000Z</time></trkpt>
        <trkpt lat="28.224209" lon="105.055731"><ele>1277.1494</ele><time>2026-04-24T23:09:58.000Z</time></trkpt>
        <trkpt lat="28.224243" lon="105.055775"><ele>1276.4485</ele><time>2026-04-24T23:10:03.000Z</time></trkpt>
        <trkpt lat="28.224281" lon="105.055805"><ele>1276.6041</ele><time>2026-04-24T23:10:13.000Z</time></trkpt>
        <trkpt lat="28.22431" lon="105.055856"><ele>1277.6821</ele><time>2026-04-24T23:10:18.000Z</time></trkpt>
        <trkpt lat="28.224331" lon="105.055909"><ele>1277.7247</ele><time>2026-04-24T23:10:24.000Z</time></trkpt>
        <trkpt lat="28.224363" lon="105.055953"><ele>1275.2378</ele><time>2026-04-24T23:10:29.000Z</time></trkpt>
        <trkpt lat="28.224406" lon="105.056002"><ele>1278.6577</ele><time>2026-04-24T23:10:34.000Z</time></trkpt>
        <trkpt lat="28.224442" lon="105.056038"><ele>1279.2793</ele><time>2026-04-24T23:10:38.000Z</time></trkpt>
        <trkpt lat="28.224472" lon="105.056077"><ele>1280.3301</ele><time>2026-04-24T23:10:42.000Z</time></trkpt>
        <trkpt lat="28.224514" lon="105.056102"><ele>1280.7075</ele><time>2026-04-24T23:10:46.000Z</time></trkpt>
        <trkpt lat="28.224553" lon="105.05613"><ele>1281.9629</ele><time>2026-04-24T23:10:50.000Z</time></trkpt>
        <trkpt lat="28.224587" lon="105.056175"><ele>1281.147</ele><time>2026-04-24T23:10:55.000Z</time></trkpt>
        <trkpt lat="28.224595" lon="105.056236"><ele>1283.372</ele><time>2026-04-24T23:10:59.000Z</time></trkpt>
        <trkpt lat="28.224581" lon="105.0563"><ele>1284.181</ele><time>2026-04-24T23:11:05.000Z</time></trkpt>
        <trkpt lat="28.224564" lon="105.056349"><ele>1284.8258</ele><time>2026-04-24T23:11:10.000Z</time></trkpt>
        <trkpt lat="28.224572" lon="105.056404"><ele>1290.52</ele><time>2026-04-24T23:12:06.000Z</time></trkpt>
        <trkpt lat="28.224571" lon="105.056466"><ele>1289.473</ele><time>2026-04-24T23:12:10.000Z</time></trkpt>
        <trkpt lat="28.224568" lon="105.056518"><ele>1288.7368</ele><time>2026-04-24T23:12:15.000Z</time></trkpt>
        <trkpt lat="28.224565" lon="105.056577"><ele>1289.9299</ele><time>2026-04-24T23:12:19.000Z</time></trkpt>
        <trkpt lat="28.224592" lon="105.056626"><ele>1288.1335</ele><time>2026-04-24T23:12:25.000Z</time></trkpt>
        <trkpt lat="28.224624" lon="105.056671"><ele>1287.0657</ele><time>2026-04-24T23:12:30.000Z</time></trkpt>
        <trkpt lat="28.224638" lon="105.056727"><ele>1287.6377</ele><time>2026-04-24T23:12:34.000Z</time></trkpt>
        <trkpt lat="28.224653" lon="105.056785"><ele>1287.1643</ele><time>2026-04-24T23:12:39.000Z</time></trkpt>
        <trkpt lat="28.224657" lon="105.056847"><ele>1287.3589</ele><time>2026-04-24T23:12:44.000Z</time></trkpt>
        <trkpt lat="28.224679" lon="105.05691"><ele>1286.9071</ele><time>2026-04-24T23:12:49.000Z</time></trkpt>
        <trkpt lat="28.224685" lon="105.056969"><ele>1285.3184</ele><time>2026-04-24T23:12:54.000Z</time></trkpt>
        <trkpt lat="28.224686" lon="105.057026"><ele>1287.5013</ele><time>2026-04-24T23:12:57.000Z</time></trkpt>
        <trkpt lat="28.224707" lon="105.057075"><ele>1285.3374</ele><time>2026-04-24T23:13:02.000Z</time></trkpt>
        <trkpt lat="28.224712" lon="105.057142"><ele>1285.2593</ele><time>2026-04-24T23:13:06.000Z</time></trkpt>
        <trkpt lat="28.224719" lon="105.057197"><ele>1285.5321</ele><time>2026-04-24T23:13:10.000Z</time></trkpt>
        <trkpt lat="28.224727" lon="105.057251"><ele>1285.489</ele><time>2026-04-24T23:13:14.000Z</time></trkpt>
        <trkpt lat="28.224729" lon="105.057306"><ele>1285.8223</ele><time>2026-04-24T23:13:18.000Z</time></trkpt>
        <trkpt lat="28.224727" lon="105.05737"><ele>1288.2982</ele><time>2026-04-24T23:13:22.000Z</time></trkpt>
        <trkpt lat="28.224726" lon="105.057422"><ele>1288.9138</ele><time>2026-04-24T23:13:26.000Z</time></trkpt>
        <trkpt lat="28.224714" lon="105.057481"><ele>1290.3655</ele><time>2026-04-24T23:13:30.000Z</time></trkpt>
        <trkpt lat="28.224692" lon="105.057537"><ele>1289.8751</ele><time>2026-04-24T23:13:35.000Z</time></trkpt>
        <trkpt lat="28.224654" lon="105.057583"><ele>1291.463</ele><time>2026-04-24T23:13:39.000Z</time></trkpt>
        <trkpt lat="28.22462" lon="105.057616"><ele>1289.85</ele><time>2026-04-24T23:13:44.000Z</time></trkpt>
        <trkpt lat="28.224589" lon="105.05766"><ele>1291.8911</ele><time>2026-04-24T23:13:47.000Z</time></trkpt>
        <trkpt lat="28.224572" lon="105.057711"><ele>1292.7064</ele><time>2026-04-24T23:13:51.000Z</time></trkpt>
        <trkpt lat="28.224559" lon="105.057766"><ele>1293.1708</ele><time>2026-04-24T23:13:55.000Z</time></trkpt>
        <trkpt lat="28.224565" lon="105.057826"><ele>1291.7205</ele><time>2026-04-24T23:13:59.000Z</time></trkpt>
        <trkpt lat="28.224598" lon="105.057866"><ele>1289.4545</ele><time>2026-04-24T23:14:05.000Z</time></trkpt>
        <trkpt lat="28.224642" lon="105.057905"><ele>1288.1387</ele><time>2026-04-24T23:14:12.000Z</time></trkpt>
        <trkpt lat="28.224654" lon="105.057957"><ele>1287.2175</ele><time>2026-04-24T23:14:19.000Z</time></trkpt>
        <trkpt lat="28.224693" lon="105.057991"><ele>1289.025</ele><time>2026-04-24T23:14:23.000Z</time></trkpt>
        <trkpt lat="28.224739" lon="105.058006"><ele>1287.7216</ele><time>2026-04-24T23:14:26.000Z</time></trkpt>
        <trkpt lat="28.224786" lon="105.058018"><ele>1287.4325</ele><time>2026-04-24T23:14:31.000Z</time></trkpt>
        <trkpt lat="28.224843" lon="105.058007"><ele>1289.7025</ele><time>2026-04-24T23:14:36.000Z</time></trkpt>
        <trkpt lat="28.224873" lon="105.057967"><ele>1291.7867</ele><time>2026-04-24T23:14:41.000Z</time></trkpt>
        <trkpt lat="28.22488" lon="105.057901"><ele>1295.151</ele><time>2026-04-24T23:14:48.000Z</time></trkpt>
        <trkpt lat="28.224905" lon="105.057856"><ele>1296.5895</ele><time>2026-04-24T23:14:53.000Z</time></trkpt>
        <trkpt lat="28.224933" lon="105.057804"><ele>1294.632</ele><time>2026-04-24T23:14:59.000Z</time></trkpt>
        <trkpt lat="28.224949" lon="105.057748"><ele>1297.6132</ele><time>2026-04-24T23:15:03.000Z</time></trkpt>
        <trkpt lat="28.224951" lon="105.057677"><ele>1299.3906</ele><time>2026-04-24T23:15:08.000Z</time></trkpt>
        <trkpt lat="28.224975" lon="105.057627"><ele>1299.6265</ele><time>2026-04-24T23:15:12.000Z</time></trkpt>
        <trkpt lat="28.225005" lon="105.057578"><ele>1301.65</ele><time>2026-04-24T23:15:18.000Z</time></trkpt>
        <trkpt lat="28.225027" lon="105.057517"><ele>1301.3119</ele><time>2026-04-24T23:15:24.000Z</time></trkpt>
        <trkpt lat="28.225058" lon="105.057463"><ele>1301.8354</ele><time>2026-04-24T23:15:30.000Z</time></trkpt>
        <trkpt lat="28.225081" lon="105.057413"><ele>1301.7385</ele><time>2026-04-24T23:15:35.000Z</time></trkpt>
        <trkpt lat="28.225125" lon="105.057383"><ele>1302.1655</ele><time>2026-04-24T23:15:40.000Z</time></trkpt>
        <trkpt lat="28.225116" lon="105.057332"><ele>1303.986</ele><time>2026-04-24T23:15:49.000Z</time></trkpt>
        <trkpt lat="28.225092" lon="105.057377"><ele>1310.3174</ele><time>2026-04-24T23:17:08.000Z</time></trkpt>
        <trkpt lat="28.225124" lon="105.057318"><ele>1302.9227</ele><time>2026-04-24T23:17:42.000Z</time></trkpt>
        <trkpt lat="28.22509" lon="105.05736"><ele>1308.4757</ele><time>2026-04-24T23:19:05.000Z</time></trkpt>
        <trkpt lat="28.225133" lon="105.057345"><ele>1307.1779</ele><time>2026-04-24T23:21:12.000Z</time></trkpt>
        <trkpt lat="28.225169" lon="105.057293"><ele>1303.6859</ele><time>2026-04-24T23:22:35.000Z</time></trkpt>
        <trkpt lat="28.225189" lon="105.057247"><ele>1304.0643</ele><time>2026-04-24T23:22:39.000Z</time></trkpt>
        <trkpt lat="28.225212" lon="105.057201"><ele>1305.8529</ele><time>2026-04-24T23:22:42.000Z</time></trkpt>
        <trkpt lat="28.225234" lon="105.057153"><ele>1305.4142</ele><time>2026-04-24T23:22:48.000Z</time></trkpt>
        <trkpt lat="28.225226" lon="105.057098"><ele>1304.7515</ele><time>2026-04-24T23:22:53.000Z</time></trkpt>
        <trkpt lat="28.225249" lon="105.057047"><ele>1306.499</ele><time>2026-04-24T23:22:57.000Z</time></trkpt>
        <trkpt lat="28.225267" lon="105.056989"><ele>1309.4973</ele><time>2026-04-24T23:23:02.000Z</time></trkpt>
        <trkpt lat="28.225279" lon="105.056933"><ele>1308.8718</ele><time>2026-04-24T23:23:08.000Z</time></trkpt>
        <trkpt lat="28.225319" lon="105.056901"><ele>1305.5835</ele><time>2026-04-24T23:23:14.000Z</time></trkpt>
        <trkpt lat="28.225365" lon="105.056871"><ele>1302.7894</ele><time>2026-04-24T23:23:20.000Z</time></trkpt>
        <trkpt lat="28.225424" lon="105.056834"><ele>1302.2546</ele><time>2026-04-24T23:23:25.000Z</time></trkpt>
        <trkpt lat="28.225479" lon="105.056831"><ele>1304.3142</ele><time>2026-04-24T23:23:31.000Z</time></trkpt>
        <trkpt lat="28.225533" lon="105.05682"><ele>1305.0759</ele><time>2026-04-24T23:23:37.000Z</time></trkpt>
        <trkpt lat="28.22558" lon="105.056812"><ele>1306.6517</ele><time>2026-04-24T23:23:43.000Z</time></trkpt>
        <trkpt lat="28.225629" lon="105.056782"><ele>1306.8694</ele><time>2026-04-24T23:23:47.000Z</time></trkpt>
        <trkpt lat="28.225671" lon="105.05676"><ele>1306.9712</ele><time>2026-04-24T23:23:52.000Z</time></trkpt>
        <trkpt lat="28.225714" lon="105.056743"><ele>1307.8947</ele><time>2026-04-24T23:23:58.000Z</time></trkpt>
        <trkpt lat="28.225761" lon="105.056729"><ele>1308.5988</ele><time>2026-04-24T23:24:02.000Z</time></trkpt>
        <trkpt lat="28.225806" lon="105.056701"><ele>1309.1201</ele><time>2026-04-24T23:24:08.000Z</time></trkpt>
        <trkpt lat="28.225836" lon="105.056658"><ele>1311.8551</ele><time>2026-04-24T23:24:12.000Z</time></trkpt>
        <trkpt lat="28.225891" lon="105.056637"><ele>1312.9855</ele><time>2026-04-24T23:24:18.000Z</time></trkpt>
        <trkpt lat="28.225934" lon="105.056603"><ele>1314.8141</ele><time>2026-04-24T23:24:23.000Z</time></trkpt>
        <trkpt lat="28.225959" lon="105.056554"><ele>1315.2446</ele><time>2026-04-24T23:24:28.000Z</time></trkpt>
        <trkpt lat="28.225995" lon="105.056519"><ele>1318.9937</ele><time>2026-04-24T23:24:33.000Z</time></trkpt>
        <trkpt lat="28.226028" lon="105.056478"><ele>1316.8418</ele><time>2026-04-24T23:24:38.000Z</time></trkpt>
        <trkpt lat="28.226057" lon="105.056438"><ele>1316.7562</ele><time>2026-04-24T23:24:42.000Z</time></trkpt>
        <trkpt lat="28.226101" lon="105.056418"><ele>1315.647</ele><time>2026-04-24T23:24:47.000Z</time></trkpt>
        <trkpt lat="28.226144" lon="105.056387"><ele>1316.9758</ele><time>2026-04-24T23:24:49.000Z</time></trkpt>
        <trkpt lat="28.226179" lon="105.05642"><ele>1317.0652</ele><time>2026-04-24T23:24:57.000Z</time></trkpt>
        <trkpt lat="28.226226" lon="105.056415"><ele>1315.7802</ele><time>2026-04-24T23:24:59.000Z</time></trkpt>
        <trkpt lat="28.226277" lon="105.056423"><ele>1315.353</ele><time>2026-04-24T23:25:05.000Z</time></trkpt>
        <trkpt lat="28.226322" lon="105.056427"><ele>1315.817</ele><time>2026-04-24T23:25:08.000Z</time></trkpt>
        <trkpt lat="28.226382" lon="105.056429"><ele>1316.9865</ele><time>2026-04-24T23:25:15.000Z</time></trkpt>
        <trkpt lat="28.226438" lon="105.056432"><ele>1317.4569</ele><time>2026-04-24T23:25:19.000Z</time></trkpt>
        <trkpt lat="28.226492" lon="105.056419"><ele>1316.3981</ele><time>2026-04-24T23:25:23.000Z</time></trkpt>
        <trkpt lat="28.226519" lon="105.056364"><ele>1321.4249</ele><time>2026-04-24T23:25:29.000Z</time></trkpt>
        <trkpt lat="28.226548" lon="105.056305"><ele>1320.091</ele><time>2026-04-24T23:25:32.000Z</time></trkpt>
        <trkpt lat="28.226563" lon="105.056242"><ele>1319.8063</ele><time>2026-04-24T23:25:38.000Z</time></trkpt>
        <trkpt lat="28.226569" lon="105.056191"><ele>1321.9705</ele><time>2026-04-24T23:25:43.000Z</time></trkpt>
        <trkpt lat="28.226598" lon="105.05614"><ele>1321.9319</ele><time>2026-04-24T23:25:49.000Z</time></trkpt>
        <trkpt lat="28.226636" lon="105.056099"><ele>1323.7368</ele><time>2026-04-24T23:25:55.000Z</time></trkpt>
        <trkpt lat="28.226687" lon="105.056089"><ele>1321.6006</ele><time>2026-04-24T23:26:00.000Z</time></trkpt>
        <trkpt lat="28.226733" lon="105.056112"><ele>1321.3005</ele><time>2026-04-24T23:26:06.000Z</time></trkpt>
        <trkpt lat="28.226783" lon="105.056122"><ele>1321.7242</ele><time>2026-04-24T23:26:10.000Z</time></trkpt>
        <trkpt lat="28.22684" lon="105.056122"><ele>1321.826</ele><time>2026-04-24T23:26:15.000Z</time></trkpt>
        <trkpt lat="28.226883" lon="105.056138"><ele>1322.8478</ele><time>2026-04-24T23:26:19.000Z</time></trkpt>
        <trkpt lat="28.226933" lon="105.05616"><ele>1323.5808</ele><time>2026-04-24T23:26:26.000Z</time></trkpt>
        <trkpt lat="28.226983" lon="105.056172"><ele>1324.1754</ele><time>2026-04-24T23:26:31.000Z</time></trkpt>
        <trkpt lat="28.22703" lon="105.056179"><ele>1323.8988</ele><time>2026-04-24T23:26:37.000Z</time></trkpt>
        <trkpt lat="28.227081" lon="105.05619"><ele>1324.5406</ele><time>2026-04-24T23:26:42.000Z</time></trkpt>
        <trkpt lat="28.227132" lon="105.056233"><ele>1323.8839</ele><time>2026-04-24T23:26:47.000Z</time></trkpt>
        <trkpt lat="28.227182" lon="105.056256"><ele>1326.4047</ele><time>2026-04-24T23:26:50.000Z</time></trkpt>
        <trkpt lat="28.227228" lon="105.05627"><ele>1325.0592</ele><time>2026-04-24T23:26:56.000Z</time></trkpt>
        <trkpt lat="28.227286" lon="105.056289"><ele>1326.8933</ele><time>2026-04-24T23:27:01.000Z</time></trkpt>
        <trkpt lat="28.227345" lon="105.056308"><ele>1326.2919</ele><time>2026-04-24T23:27:07.000Z</time></trkpt>
        <trkpt lat="28.227398" lon="105.056341"><ele>1326.5479</ele><time>2026-04-24T23:27:13.000Z</time></trkpt>
        <trkpt lat="28.227446" lon="105.056364"><ele>1324.5968</ele><time>2026-04-24T23:27:19.000Z</time></trkpt>
        <trkpt lat="28.227489" lon="105.056388"><ele>1326.2917</ele><time>2026-04-24T23:27:23.000Z</time></trkpt>
        <trkpt lat="28.227544" lon="105.056426"><ele>1325.9089</ele><time>2026-04-24T23:27:33.000Z</time></trkpt>
        <trkpt lat="28.227584" lon="105.056466"><ele>1326.2161</ele><time>2026-04-24T23:27:37.000Z</time></trkpt>
        <trkpt lat="28.227621" lon="105.056508"><ele>1326.3998</ele><time>2026-04-24T23:27:43.000Z</time></trkpt>
        <trkpt lat="28.227654" lon="105.056553"><ele>1326.2244</ele><time>2026-04-24T23:27:48.000Z</time></trkpt>
        <trkpt lat="28.227693" lon="105.056592"><ele>1323.5625</ele><time>2026-04-24T23:27:55.000Z</time></trkpt>
        <trkpt lat="28.227729" lon="105.056634"><ele>1325.1033</ele><time>2026-04-24T23:27:59.000Z</time></trkpt>
        <trkpt lat="28.227764" lon="105.056672"><ele>1324.3225</ele><time>2026-04-24T23:28:05.000Z</time></trkpt>
        <trkpt lat="28.227802" lon="105.056704"><ele>1324.8662</ele><time>2026-04-24T23:28:09.000Z</time></trkpt>
        <trkpt lat="28.227853" lon="105.056728"><ele>1325.4384</ele><time>2026-04-24T23:28:15.000Z</time></trkpt>
        <trkpt lat="28.227902" lon="105.05674"><ele>1325.2666</ele><time>2026-04-24T23:28:20.000Z</time></trkpt>
        <trkpt lat="28.227961" lon="105.056749"><ele>1326.5507</ele><time>2026-04-24T23:28:26.000Z</time></trkpt>
        <trkpt lat="28.228012" lon="105.056751"><ele>1326.9878</ele><time>2026-04-24T23:28:31.000Z</time></trkpt>
        <trkpt lat="28.228054" lon="105.056729"><ele>1326.9594</ele><time>2026-04-24T23:28:36.000Z</time></trkpt>
        <trkpt lat="28.228105" lon="105.056703"><ele>1328.7605</ele><time>2026-04-24T23:28:41.000Z</time></trkpt>
        <trkpt lat="28.228144" lon="105.056677"><ele>1329.8439</ele><time>2026-04-24T23:28:45.000Z</time></trkpt>
        <trkpt lat="28.228192" lon="105.056644"><ele>1329.9006</ele><time>2026-04-24T23:28:52.000Z</time></trkpt>
        <trkpt lat="28.228244" lon="105.056621"><ele>1330.4794</ele><time>2026-04-24T23:28:58.000Z</time></trkpt>
        <trkpt lat="28.228291" lon="105.05659"><ele>1329.5259</ele><time>2026-04-24T23:29:04.000Z</time></trkpt>
        <trkpt lat="28.228336" lon="105.056551"><ele>1331.1428</ele><time>2026-04-24T23:29:09.000Z</time></trkpt>
        <trkpt lat="28.228384" lon="105.056524"><ele>1330.099</ele><time>2026-04-24T23:29:14.000Z</time></trkpt>
        <trkpt lat="28.22843" lon="105.056504"><ele>1330.2953</ele><time>2026-04-24T23:29:19.000Z</time></trkpt>
        <trkpt lat="28.228479" lon="105.0565"><ele>1331.7427</ele><time>2026-04-24T23:29:24.000Z</time></trkpt>
        <trkpt lat="28.228525" lon="105.056507"><ele>1331.2771</ele><time>2026-04-24T23:29:27.000Z</time></trkpt>
        <trkpt lat="28.228573" lon="105.056516"><ele>1329.8434</ele><time>2026-04-24T23:29:33.000Z</time></trkpt>
        <trkpt lat="28.228637" lon="105.056519"><ele>1330.2225</ele><time>2026-04-24T23:29:37.000Z</time></trkpt>
        <trkpt lat="28.228685" lon="105.056534"><ele>1330.4838</ele><time>2026-04-24T23:29:49.000Z</time></trkpt>
        <trkpt lat="28.228693" lon="105.056594"><ele>1330.0455</ele><time>2026-04-24T23:29:54.000Z</time></trkpt>
        <trkpt lat="28.228689" lon="105.056654"><ele>1330.5406</ele><time>2026-04-24T23:29:59.000Z</time></trkpt>
        <trkpt lat="28.228722" lon="105.056612"><ele>1331.1434</ele><time>2026-04-24T23:30:49.000Z</time></trkpt>
        <trkpt lat="28.228757" lon="105.056679"><ele>1329.4758</ele><time>2026-04-24T23:30:54.000Z</time></trkpt>
        <trkpt lat="28.228752" lon="105.056731"><ele>1329.6676</ele><time>2026-04-24T23:30:58.000Z</time></trkpt>
        <trkpt lat="28.228786" lon="105.056775"><ele>1331.2106</ele><time>2026-04-24T23:31:01.000Z</time></trkpt>
        <trkpt lat="28.228801" lon="105.056833"><ele>1330.9512</ele><time>2026-04-24T23:31:06.000Z</time></trkpt>
        <trkpt lat="28.228812" lon="105.056884"><ele>1331.3118</ele><time>2026-04-24T23:31:10.000Z</time></trkpt>
        <trkpt lat="28.228835" lon="105.056937"><ele>1331.441</ele><time>2026-04-24T23:31:15.000Z</time></trkpt>
        <trkpt lat="28.228843" lon="105.056997"><ele>1332.6948</ele><time>2026-04-24T23:31:20.000Z</time></trkpt>
        <trkpt lat="28.228849" lon="105.057052"><ele>1332.3835</ele><time>2026-04-24T23:31:24.000Z</time></trkpt>
        <trkpt lat="28.228874" lon="105.057103"><ele>1333.6289</ele><time>2026-04-24T23:31:29.000Z</time></trkpt>
        <trkpt lat="28.228878" lon="105.057158"><ele>1334.1301</ele><time>2026-04-24T23:31:33.000Z</time></trkpt>
        <trkpt lat="28.228888" lon="105.057208"><ele>1333.7957</ele><time>2026-04-24T23:31:37.000Z</time></trkpt>
        <trkpt lat="28.228906" lon="105.057271"><ele>1332.3116</ele><time>2026-04-24T23:31:42.000Z</time></trkpt>
        <trkpt lat="28.228927" lon="105.057317"><ele>1333.482</ele><time>2026-04-24T23:31:46.000Z</time></trkpt>
        <trkpt lat="28.228934" lon="105.05737"><ele>1334.3722</ele><time>2026-04-24T23:31:50.000Z</time></trkpt>
        <trkpt lat="28.228956" lon="105.05742"><ele>1334.8705</ele><time>2026-04-24T23:31:54.000Z</time></trkpt>
        <trkpt lat="28.228977" lon="105.057465"><ele>1334.9486</ele><time>2026-04-24T23:31:58.000Z</time></trkpt>
        <trkpt lat="28.228996" lon="105.057523"><ele>1334.8018</ele><time>2026-04-24T23:32:03.000Z</time></trkpt>
        <trkpt lat="28.229015" lon="105.057576"><ele>1335.2372</ele><time>2026-04-24T23:32:08.000Z</time></trkpt>
        <trkpt lat="28.229038" lon="105.057628"><ele>1335.5793</ele><time>2026-04-24T23:32:13.000Z</time></trkpt>
        <trkpt lat="28.229055" lon="105.057685"><ele>1335.3162</ele><time>2026-04-24T23:32:18.000Z</time></trkpt>
        <trkpt lat="28.229077" lon="105.05774"><ele>1335.1096</ele><time>2026-04-24T23:32:23.000Z</time></trkpt>
        <trkpt lat="28.229095" lon="105.057788"><ele>1335.0021</ele><time>2026-04-24T23:32:27.000Z</time></trkpt>
        <trkpt lat="28.229116" lon="105.057837"><ele>1335.4812</ele><time>2026-04-24T23:32:31.000Z</time></trkpt>
        <trkpt lat="28.229148" lon="105.057878"><ele>1335.3008</ele><time>2026-04-24T23:32:35.000Z</time></trkpt>
        <trkpt lat="28.229145" lon="105.057933"><ele>1335.904</ele><time>2026-04-24T23:32:58.000Z</time></trkpt>
        <trkpt lat="28.229163" lon="105.057983"><ele>1333.822</ele><time>2026-04-24T23:33:02.000Z</time></trkpt>
        <trkpt lat="28.229186" lon="105.05803"><ele>1333.9893</ele><time>2026-04-24T23:33:06.000Z</time></trkpt>
        <trkpt lat="28.229199" lon="105.058085"><ele>1334.2202</ele><time>2026-04-24T23:33:09.000Z</time></trkpt>
        <trkpt lat="28.22922" lon="105.058131"><ele>1333.7184</ele><time>2026-04-24T23:33:13.000Z</time></trkpt>
        <trkpt lat="28.229238" lon="105.058187"><ele>1334.4202</ele><time>2026-04-24T23:33:17.000Z</time></trkpt>
        <trkpt lat="28.229261" lon="105.058237"><ele>1332.8768</ele><time>2026-04-24T23:33:22.000Z</time></trkpt>
        <trkpt lat="28.229265" lon="105.058299"><ele>1334.0989</ele><time>2026-04-24T23:33:26.000Z</time></trkpt>
        <trkpt lat="28.229273" lon="105.058362"><ele>1332.6287</ele><time>2026-04-24T23:33:31.000Z</time></trkpt>
        <trkpt lat="28.229282" lon="105.058429"><ele>1334.2214</ele><time>2026-04-24T23:33:35.000Z</time></trkpt>
        <trkpt lat="28.229289" lon="105.058489"><ele>1332.4686</ele><time>2026-04-24T23:33:40.000Z</time></trkpt>
        <trkpt lat="28.229293" lon="105.058552"><ele>1333.0846</ele><time>2026-04-24T23:33:44.000Z</time></trkpt>
        <trkpt lat="28.229308" lon="105.058601"><ele>1332.8745</ele><time>2026-04-24T23:33:48.000Z</time></trkpt>
        <trkpt lat="28.229316" lon="105.058657"><ele>1332.4858</ele><time>2026-04-24T23:33:52.000Z</time></trkpt>
        <trkpt lat="28.229325" lon="105.058708"><ele>1332.6415</ele><time>2026-04-24T23:33:56.000Z</time></trkpt>
        <trkpt lat="28.229331" lon="105.058766"><ele>1332.737</ele><time>2026-04-24T23:34:00.000Z</time></trkpt>
        <trkpt lat="28.229339" lon="105.058822"><ele>1332.7784</ele><time>2026-04-24T23:34:04.000Z</time></trkpt>
        <trkpt lat="28.229348" lon="105.058884"><ele>1332.3545</ele><time>2026-04-24T23:34:09.000Z</time></trkpt>
        <trkpt lat="28.229355" lon="105.058945"><ele>1332.5161</ele><time>2026-04-24T23:34:13.000Z</time></trkpt>
        <trkpt lat="28.229364" lon="105.058997"><ele>1331.267</ele><time>2026-04-24T23:34:17.000Z</time></trkpt>
        <trkpt lat="28.229377" lon="105.059053"><ele>1331.972</ele><time>2026-04-24T23:34:21.000Z</time></trkpt>
        <trkpt lat="28.229399" lon="105.0591"><ele>1331.4757</ele><time>2026-04-24T23:34:25.000Z</time></trkpt>
        <trkpt lat="28.22943" lon="105.059147"><ele>1332.919</ele><time>2026-04-24T23:34:29.000Z</time></trkpt>
        <trkpt lat="28.229466" lon="105.059183"><ele>1332.7714</ele><time>2026-04-24T23:34:33.000Z</time></trkpt>
        <trkpt lat="28.229506" lon="105.059222"><ele>1331.7214</ele><time>2026-04-24T23:34:38.000Z</time></trkpt>
        <trkpt lat="28.229545" lon="105.059257"><ele>1331.2814</ele><time>2026-04-24T23:34:42.000Z</time></trkpt>
        <trkpt lat="28.229587" lon="105.059284"><ele>1331.2494</ele><time>2026-04-24T23:34:46.000Z</time></trkpt>
        <trkpt lat="28.229636" lon="105.059317"><ele>1330.9647</ele><time>2026-04-24T23:34:51.000Z</time></trkpt>
        <trkpt lat="28.22968" lon="105.059346"><ele>1331.2656</ele><time>2026-04-24T23:34:55.000Z</time></trkpt>
        <trkpt lat="28.229722" lon="105.059367"><ele>1330.198</ele><time>2026-04-24T23:34:59.000Z</time></trkpt>
        <trkpt lat="28.229772" lon="105.059398"><ele>1331.2037</ele><time>2026-04-24T23:35:03.000Z</time></trkpt>
        <trkpt lat="28.229817" lon="105.059423"><ele>1332.1172</ele><time>2026-04-24T23:35:07.000Z</time></trkpt>
        <trkpt lat="28.229864" lon="105.059449"><ele>1331.7385</ele><time>2026-04-24T23:35:12.000Z</time></trkpt>
        <trkpt lat="28.229909" lon="105.059483"><ele>1332.1731</ele><time>2026-04-24T23:35:17.000Z</time></trkpt>
        <trkpt lat="28.229949" lon="105.059522"><ele>1330.6931</ele><time>2026-04-24T23:35:22.000Z</time></trkpt>
        <trkpt lat="28.229992" lon="105.059554"><ele>1331.6561</ele><time>2026-04-24T23:35:25.000Z</time></trkpt>
        <trkpt lat="28.230039" lon="105.059592"><ele>1331.5807</ele><time>2026-04-24T23:35:31.000Z</time></trkpt>
        <trkpt lat="28.230072" lon="105.059627"><ele>1333.6816</ele><time>2026-04-24T23:35:34.000Z</time></trkpt>
        <trkpt lat="28.230119" lon="105.059631"><ele>1332.3783</ele><time>2026-04-24T23:35:41.000Z</time></trkpt>
        <trkpt lat="28.230162" lon="105.059649"><ele>1333.9921</ele><time>2026-04-24T23:35:45.000Z</time></trkpt>
        <trkpt lat="28.230207" lon="105.059674"><ele>1334.1697</ele><time>2026-04-24T23:36:00.000Z</time></trkpt>
        <trkpt lat="28.230232" lon="105.059721"><ele>1334.579</ele><time>2026-04-24T23:36:04.000Z</time></trkpt>
        <trkpt lat="28.230258" lon="105.059767"><ele>1335.4523</ele><time>2026-04-24T23:36:08.000Z</time></trkpt>
        <trkpt lat="28.230303" lon="105.059789"><ele>1334.8727</ele><time>2026-04-24T23:36:17.000Z</time></trkpt>
        <trkpt lat="28.230342" lon="105.059827"><ele>1336.7943</ele><time>2026-04-24T23:36:20.000Z</time></trkpt>
        <trkpt lat="28.230397" lon="105.059832"><ele>1336.4603</ele><time>2026-04-24T23:36:24.000Z</time></trkpt>
        <trkpt lat="28.230443" lon="105.059826"><ele>1335.9814</ele><time>2026-04-24T23:36:28.000Z</time></trkpt>
        <trkpt lat="28.230465" lon="105.059887"><ele>1341.4839</ele><time>2026-04-24T23:38:11.000Z</time></trkpt>
        <trkpt lat="28.230529" lon="105.059887"><ele>1340.7693</ele><time>2026-04-24T23:38:16.000Z</time></trkpt>
        <trkpt lat="28.230585" lon="105.059904"><ele>1339.1222</ele><time>2026-04-24T23:38:21.000Z</time></trkpt>
        <trkpt lat="28.230649" lon="105.059902"><ele>1336.6555</ele><time>2026-04-24T23:38:24.000Z</time></trkpt>
        <trkpt lat="28.230685" lon="105.059939"><ele>1335.3037</ele><time>2026-04-24T23:38:30.000Z</time></trkpt>
        <trkpt lat="28.230729" lon="105.059958"><ele>1335.0537</ele><time>2026-04-24T23:38:34.000Z</time></trkpt>
        <trkpt lat="28.230776" lon="105.059971"><ele>1334.699</ele><time>2026-04-24T23:38:38.000Z</time></trkpt>
        <trkpt lat="28.230826" lon="105.059975"><ele>1335.031</ele><time>2026-04-24T23:38:42.000Z</time></trkpt>
        <trkpt lat="28.230871" lon="105.059992"><ele>1335.8068</ele><time>2026-04-24T23:38:46.000Z</time></trkpt>
        <trkpt lat="28.230919" lon="105.060017"><ele>1334.3971</ele><time>2026-04-24T23:38:51.000Z</time></trkpt>
        <trkpt lat="28.230964" lon="105.060035"><ele>1334.7142</ele><time>2026-04-24T23:38:55.000Z</time></trkpt>
        <trkpt lat="28.231019" lon="105.060052"><ele>1334.6141</ele><time>2026-04-24T23:39:00.000Z</time></trkpt>
        <trkpt lat="28.23107" lon="105.060075"><ele>1334.2637</ele><time>2026-04-24T23:39:05.000Z</time></trkpt>
        <trkpt lat="28.231122" lon="105.060072"><ele>1333.4075</ele><time>2026-04-24T23:39:10.000Z</time></trkpt>
        <trkpt lat="28.231165" lon="105.060089"><ele>1337.4819</ele><time>2026-04-24T23:39:17.000Z</time></trkpt>
        <trkpt lat="28.231214" lon="105.060106"><ele>1339.6879</ele><time>2026-04-24T23:39:23.000Z</time></trkpt>
        <trkpt lat="28.23126" lon="105.060127"><ele>1341.5433</ele><time>2026-04-24T23:39:29.000Z</time></trkpt>
        <trkpt lat="28.231284" lon="105.06017"><ele>1346.3254</ele><time>2026-04-24T23:40:39.000Z</time></trkpt>
        <trkpt lat="28.231241" lon="105.060152"><ele>1345.1714</ele><time>2026-04-24T23:40:52.000Z</time></trkpt>
        <trkpt lat="28.231195" lon="105.060139"><ele>1344.1442</ele><time>2026-04-24T23:40:56.000Z</time></trkpt>
        <trkpt lat="28.231144" lon="105.060137"><ele>1343.4575</ele><time>2026-04-24T23:41:00.000Z</time></trkpt>
        <trkpt lat="28.231099" lon="105.060153"><ele>1343.6171</ele><time>2026-04-24T23:41:04.000Z</time></trkpt>
        <trkpt lat="28.231053" lon="105.060166"><ele>1343.8854</ele><time>2026-04-24T23:41:07.000Z</time></trkpt>
        <trkpt lat="28.231012" lon="105.060188"><ele>1343.7733</ele><time>2026-04-24T23:41:11.000Z</time></trkpt>
        <trkpt lat="28.23099" lon="105.060235"><ele>1342.5668</ele><time>2026-04-24T23:41:17.000Z</time></trkpt>
        <trkpt lat="28.231012" lon="105.06029"><ele>1341.8793</ele><time>2026-04-24T23:41:22.000Z</time></trkpt>
        <trkpt lat="28.231024" lon="105.060346"><ele>1341.171</ele><time>2026-04-24T23:41:28.000Z</time></trkpt>
        <trkpt lat="28.231031" lon="105.060397"><ele>1340.727</ele><time>2026-04-24T23:41:32.000Z</time></trkpt>
        <trkpt lat="28.231038" lon="105.060448"><ele>1340.2927</ele><time>2026-04-24T23:41:36.000Z</time></trkpt>
        <trkpt lat="28.231042" lon="105.060506"><ele>1339.918</ele><time>2026-04-24T23:41:42.000Z</time></trkpt>
        <trkpt lat="28.231053" lon="105.060558"><ele>1339.9355</ele><time>2026-04-24T23:41:46.000Z</time></trkpt>
        <trkpt lat="28.231056" lon="105.060616"><ele>1339.4435</ele><time>2026-04-24T23:41:50.000Z</time></trkpt>
        <trkpt lat="28.231059" lon="105.060675"><ele>1338.6653</ele><time>2026-04-24T23:41:54.000Z</time></trkpt>
        <trkpt lat="28.231062" lon="105.06073"><ele>1338.7661</ele><time>2026-04-24T23:41:58.000Z</time></trkpt>
        <trkpt lat="28.231055" lon="105.060789"><ele>1337.305</ele><time>2026-04-24T23:42:02.000Z</time></trkpt>
        <trkpt lat="28.23105" lon="105.060844"><ele>1337.3145</ele><time>2026-04-24T23:42:06.000Z</time></trkpt>
        <trkpt lat="28.231063" lon="105.060903"><ele>1337.2344</ele><time>2026-04-24T23:42:10.000Z</time></trkpt>
        <trkpt lat="28.231076" lon="105.06096"><ele>1335.9844</ele><time>2026-04-24T23:42:14.000Z</time></trkpt>
        <trkpt lat="28.231087" lon="105.061018"><ele>1335.0454</ele><time>2026-04-24T23:42:18.000Z</time></trkpt>
        <trkpt lat="28.231102" lon="105.061073"><ele>1334.5099</ele><time>2026-04-24T23:42:22.000Z</time></trkpt>
        <trkpt lat="28.231129" lon="105.061119"><ele>1332.8196</ele><time>2026-04-24T23:42:26.000Z</time></trkpt>
        <trkpt lat="28.231124" lon="105.06118"><ele>1332.6041</ele><time>2026-04-24T23:42:30.000Z</time></trkpt>
        <trkpt lat="28.231111" lon="105.061234"><ele>1331.8125</ele><time>2026-04-24T23:42:34.000Z</time></trkpt>
        <trkpt lat="28.231109" lon="105.061289"><ele>1331.4208</ele><time>2026-04-24T23:42:38.000Z</time></trkpt>
        <trkpt lat="28.231125" lon="105.061341"><ele>1330.2628</ele><time>2026-04-24T23:42:42.000Z</time></trkpt>
        <trkpt lat="28.231168" lon="105.061362"><ele>1332.6132</ele><time>2026-04-24T23:42:46.000Z</time></trkpt>
        <trkpt lat="28.231209" lon="105.061383"><ele>1336.5132</ele><time>2026-04-24T23:42:50.000Z</time></trkpt>
        <trkpt lat="28.231217" lon="105.061332"><ele>1337.9222</ele><time>2026-04-24T23:43:13.000Z</time></trkpt>
        <trkpt lat="28.231205" lon="105.061387"><ele>1339.3777</ele><time>2026-04-24T23:43:20.000Z</time></trkpt>
        <trkpt lat="28.231177" lon="105.061427"><ele>1340.6084</ele><time>2026-04-24T23:45:03.000Z</time></trkpt>
        <trkpt lat="28.231135" lon="105.061394"><ele>1338.9653</ele><time>2026-04-24T23:45:06.000Z</time></trkpt>
        <trkpt lat="28.231086" lon="105.061378"><ele>1337.12</ele><time>2026-04-24T23:45:09.000Z</time></trkpt>
        <trkpt lat="28.231072" lon="105.061329"><ele>1336.9761</ele><time>2026-04-24T23:45:12.000Z</time></trkpt>
        <trkpt lat="28.231081" lon="105.061273"><ele>1336.7975</ele><time>2026-04-24T23:45:15.000Z</time></trkpt>
        <trkpt lat="28.231091" lon="105.06122"><ele>1336.7906</ele><time>2026-04-24T23:45:19.000Z</time></trkpt>
        <trkpt lat="28.231104" lon="105.061159"><ele>1336.7593</ele><time>2026-04-24T23:45:23.000Z</time></trkpt>
        <trkpt lat="28.231114" lon="105.06108"><ele>1336.8347</ele><time>2026-04-24T23:45:25.000Z</time></trkpt>
        <trkpt lat="28.231108" lon="105.061027"><ele>1336.8767</ele><time>2026-04-24T23:45:26.000Z</time></trkpt>
        <trkpt lat="28.231098" lon="105.060968"><ele>1336.928</ele><time>2026-04-24T23:45:27.000Z</time></trkpt>
        <trkpt lat="28.231086" lon="105.060906"><ele>1337.1738</ele><time>2026-04-24T23:45:28.000Z</time></trkpt>
        <trkpt lat="28.231072" lon="105.060835"><ele>1337.4</ele><time>2026-04-24T23:45:29.000Z</time></trkpt>
        <trkpt lat="28.231053" lon="105.06076"><ele>1337.6326</ele><time>2026-04-24T23:45:30.000Z</time></trkpt>
        <trkpt lat="28.231038" lon="105.060682"><ele>1337.8177</ele><time>2026-04-24T23:45:31.000Z</time></trkpt>
        <trkpt lat="28.231031" lon="105.06061"><ele>1337.8031</ele><time>2026-04-24T23:45:32.000Z</time></trkpt>
        <trkpt lat="28.231078" lon="105.060527"><ele>1337.6946</ele><time>2026-04-24T23:45:33.000Z</time></trkpt>
        <trkpt lat="28.231064" lon="105.060453"><ele>1337.5424</ele><time>2026-04-24T23:45:34.000Z</time></trkpt>
        <trkpt lat="28.231051" lon="105.060377"><ele>1337.7721</ele><time>2026-04-24T23:45:35.000Z</time></trkpt>
        <trkpt lat="28.231037" lon="105.060299"><ele>1337.7073</ele><time>2026-04-24T23:45:36.000Z</time></trkpt>
        <trkpt lat="28.231023" lon="105.060223"><ele>1337.4758</ele><time>2026-04-24T23:45:37.000Z</time></trkpt>
        <trkpt lat="28.231011" lon="105.060154"><ele>1337.6317</ele><time>2026-04-24T23:45:38.000Z</time></trkpt>
        <trkpt lat="28.230999" lon="105.060087"><ele>1337.5083</ele><time>2026-04-24T23:45:39.000Z</time></trkpt>
        <trkpt lat="28.23099" lon="105.060033"><ele>1337.8096</ele><time>2026-04-24T23:45:41.000Z</time></trkpt>
        <trkpt lat="28.230847" lon="105.059992"><ele>1337.7168</ele><time>2026-04-24T23:45:42.000Z</time></trkpt>
        <trkpt lat="28.230795" lon="105.059967"><ele>1337.8951</ele><time>2026-04-24T23:45:43.000Z</time></trkpt>
        <trkpt lat="28.230741" lon="105.059942"><ele>1338.2622</ele><time>2026-04-24T23:45:44.000Z</time></trkpt>
        <trkpt lat="28.230675" lon="105.059916"><ele>1338.6432</ele><time>2026-04-24T23:45:45.000Z</time></trkpt>
        <trkpt lat="28.230605" lon="105.059896"><ele>1339.0043</ele><time>2026-04-24T23:45:46.000Z</time></trkpt>
        <trkpt lat="28.230534" lon="105.059877"><ele>1339.4294</ele><time>2026-04-24T23:45:47.000Z</time></trkpt>
        <trkpt lat="28.230458" lon="105.059855"><ele>1339.5254</ele><time>2026-04-24T23:45:48.000Z</time></trkpt>
        <trkpt lat="28.230379" lon="105.059828"><ele>1339.404</ele><time>2026-04-24T23:45:49.000Z</time></trkpt>
        <trkpt lat="28.230306" lon="105.059784"><ele>1339.2029</ele><time>2026-04-24T23:45:50.000Z</time></trkpt>
        <trkpt lat="28.230232" lon="105.059733"><ele>1338.9929</ele><time>2026-04-24T23:45:51.000Z</time></trkpt>
        <trkpt lat="28.230151" lon="105.059679"><ele>1338.6057</ele><time>2026-04-24T23:45:52.000Z</time></trkpt>
        <trkpt lat="28.230066" lon="105.059623"><ele>1338.1808</ele><time>2026-04-24T23:45:53.000Z</time></trkpt>
        <trkpt lat="28.229978" lon="105.059565"><ele>1337.7456</ele><time>2026-04-24T23:45:54.000Z</time></trkpt>
        <trkpt lat="28.229886" lon="105.059504"><ele>1337.6931</ele><time>2026-04-24T23:45:55.000Z</time></trkpt>
        <trkpt lat="28.229793" lon="105.059442"><ele>1337.4635</ele><time>2026-04-24T23:45:56.000Z</time></trkpt>
        <trkpt lat="28.229695" lon="105.059377"><ele>1337.4277</ele><time>2026-04-24T23:45:57.000Z</time></trkpt>
        <trkpt lat="28.229601" lon="105.05931"><ele>1337.349</ele><time>2026-04-24T23:45:58.000Z</time></trkpt>
        <trkpt lat="28.229515" lon="105.059246"><ele>1337.4791</ele><time>2026-04-24T23:45:59.000Z</time></trkpt>
        <trkpt lat="28.229437" lon="105.059182"><ele>1337.5854</ele><time>2026-04-24T23:46:00.000Z</time></trkpt>
        <trkpt lat="28.229379" lon="105.059114"><ele>1337.5648</ele><time>2026-04-24T23:46:01.000Z</time></trkpt>
        <trkpt lat="28.229343" lon="105.05904"><ele>1337.7388</ele><time>2026-04-24T23:46:02.000Z</time></trkpt>
        <trkpt lat="28.229318" lon="105.05896"><ele>1337.8809</ele><time>2026-04-24T23:46:03.000Z</time></trkpt>
        <trkpt lat="28.229302" lon="105.058878"><ele>1338.2238</ele><time>2026-04-24T23:46:04.000Z</time></trkpt>
        <trkpt lat="28.229292" lon="105.058794"><ele>1338.6326</ele><time>2026-04-24T23:46:05.000Z</time></trkpt>
        <trkpt lat="28.229281" lon="105.058707"><ele>1338.9498</ele><time>2026-04-24T23:46:06.000Z</time></trkpt>
        <trkpt lat="28.229271" lon="105.058621"><ele>1339.2285</ele><time>2026-04-24T23:46:07.000Z</time></trkpt>
        <trkpt lat="28.22926" lon="105.058535"><ele>1339.3002</ele><time>2026-04-24T23:46:08.000Z</time></trkpt>
        <trkpt lat="28.229249" lon="105.05845"><ele>1339.6523</ele><time>2026-04-24T23:46:09.000Z</time></trkpt>
        <trkpt lat="28.229236" lon="105.058363"><ele>1339.8226</ele><time>2026-04-24T23:46:10.000Z</time></trkpt>
        <trkpt lat="28.229223" lon="105.058278"><ele>1339.9971</ele><time>2026-04-24T23:46:11.000Z</time></trkpt>
        <trkpt lat="28.229205" lon="105.058197"><ele>1339.8915</ele><time>2026-04-24T23:46:12.000Z</time></trkpt>
        <trkpt lat="28.229169" lon="105.058126"><ele>1340.0208</ele><time>2026-04-24T23:46:13.000Z</time></trkpt>
        <trkpt lat="28.22916" lon="105.058042"><ele>1340.055</ele><time>2026-04-24T23:46:14.000Z</time></trkpt>
        <trkpt lat="28.229128" lon="105.057963"><ele>1340.2842</ele><time>2026-04-24T23:46:15.000Z</time></trkpt>
        <trkpt lat="28.229097" lon="105.057884"><ele>1340.4413</ele><time>2026-04-24T23:46:16.000Z</time></trkpt>
        <trkpt lat="28.229067" lon="105.057805"><ele>1340.6724</ele><time>2026-04-24T23:46:17.000Z</time></trkpt>
        <trkpt lat="28.229035" lon="105.057724"><ele>1340.8405</ele><time>2026-04-24T23:46:18.000Z</time></trkpt>
        <trkpt lat="28.229006" lon="105.057643"><ele>1341.0247</ele><time>2026-04-24T23:46:19.000Z</time></trkpt>
        <trkpt lat="28.228975" lon="105.057554"><ele>1340.9698</ele><time>2026-04-24T23:46:20.000Z</time></trkpt>
        <trkpt lat="28.228943" lon="105.057464"><ele>1340.489</ele><time>2026-04-24T23:46:21.000Z</time></trkpt>
        <trkpt lat="28.228914" lon="105.057377"><ele>1339.8328</ele><time>2026-04-24T23:46:22.000Z</time></trkpt>
        <trkpt lat="28.228886" lon="105.057279"><ele>1339.6594</ele><time>2026-04-24T23:46:23.000Z</time></trkpt>
        <trkpt lat="28.228858" lon="105.05718"><ele>1339.4537</ele><time>2026-04-24T23:46:24.000Z</time></trkpt>
        <trkpt lat="28.228832" lon="105.057079"><ele>1339.2611</ele><time>2026-04-24T23:46:25.000Z</time></trkpt>
        <trkpt lat="28.228805" lon="105.056976"><ele>1338.7726</ele><time>2026-04-24T23:46:26.000Z</time></trkpt>
        <trkpt lat="28.228778" lon="105.056871"><ele>1338.3083</ele><time>2026-04-24T23:46:27.000Z</time></trkpt>
        <trkpt lat="28.22875" lon="105.056765"><ele>1337.8298</ele><time>2026-04-24T23:46:28.000Z</time></trkpt>
        <trkpt lat="28.228722" lon="105.056657"><ele>1337.1709</ele><time>2026-04-24T23:46:29.000Z</time></trkpt>
        <trkpt lat="28.228694" lon="105.056546"><ele>1336.7448</ele><time>2026-04-24T23:46:30.000Z</time></trkpt>
        <trkpt lat="28.228665" lon="105.056437"><ele>1336.4172</ele><time>2026-04-24T23:46:31.000Z</time></trkpt>
        <trkpt lat="28.228642" lon="105.056326"><ele>1336.1968</ele><time>2026-04-24T23:46:32.000Z</time></trkpt>
        <trkpt lat="28.228623" lon="105.056215"><ele>1335.8329</ele><time>2026-04-24T23:46:33.000Z</time></trkpt>
        <trkpt lat="28.228607" lon="105.056096"><ele>1335.4895</ele><time>2026-04-24T23:46:34.000Z</time></trkpt>
        <trkpt lat="28.228591" lon="105.055974"><ele>1335.4458</ele><time>2026-04-24T23:46:35.000Z</time></trkpt>
        <trkpt lat="28.228579" lon="105.055851"><ele>1335.2233</ele><time>2026-04-24T23:46:36.000Z</time></trkpt>
        <trkpt lat="28.228569" lon="105.055721"><ele>1334.8235</ele><time>2026-04-24T23:46:37.000Z</time></trkpt>
        <trkpt lat="28.228559" lon="105.055589"><ele>1334.6687</ele><time>2026-04-24T23:46:38.000Z</time></trkpt>
        <trkpt lat="28.228551" lon="105.055453"><ele>1334.6659</ele><time>2026-04-24T23:46:39.000Z</time></trkpt>
        <trkpt lat="28.228543" lon="105.055315"><ele>1334.4816</ele><time>2026-04-24T23:46:40.000Z</time></trkpt>
        <trkpt lat="28.228536" lon="105.055179"><ele>1334.0869</ele><time>2026-04-24T23:46:41.000Z</time></trkpt>
        <trkpt lat="28.228528" lon="105.055044"><ele>1333.8575</ele><time>2026-04-24T23:46:42.000Z</time></trkpt>
        <trkpt lat="28.228523" lon="105.054911"><ele>1333.7188</ele><time>2026-04-24T23:46:43.000Z</time></trkpt>
        <trkpt lat="28.22852" lon="105.054775"><ele>1333.755</ele><time>2026-04-24T23:46:44.000Z</time></trkpt>
        <trkpt lat="28.228521" lon="105.054639"><ele>1333.7017</ele><time>2026-04-24T23:46:45.000Z</time></trkpt>
        <trkpt lat="28.228526" lon="105.054496"><ele>1333.8507</ele><time>2026-04-24T23:46:46.000Z</time></trkpt>
        <trkpt lat="28.228537" lon="105.054352"><ele>1333.9471</ele><time>2026-04-24T23:46:47.000Z</time></trkpt>
        <trkpt lat="28.228551" lon="105.054206"><ele>1334.0356</ele><time>2026-04-24T23:46:48.000Z</time></trkpt>
        <trkpt lat="28.228565" lon="105.054063"><ele>1333.9185</ele><time>2026-04-24T23:46:49.000Z</time></trkpt>
        <trkpt lat="28.228578" lon="105.053923"><ele>1333.7168</ele><time>2026-04-24T23:46:50.000Z</time></trkpt>
        <trkpt lat="28.228591" lon="105.053784"><ele>1333.7179</ele><time>2026-04-24T23:46:51.000Z</time></trkpt>
        <trkpt lat="28.228604" lon="105.053648"><ele>1333.7394</ele><time>2026-04-24T23:46:52.000Z</time></trkpt>
        <trkpt lat="28.228613" lon="105.053513"><ele>1333.7574</ele><time>2026-04-24T23:46:53.000Z</time></trkpt>
        <trkpt lat="28.228619" lon="105.053381"><ele>1333.6544</ele><time>2026-04-24T23:46:54.000Z</time></trkpt>
        <trkpt lat="28.228594" lon="105.053248"><ele>1333.2609</ele><time>2026-04-24T23:46:55.000Z</time></trkpt>
        <trkpt lat="28.2286" lon="105.05312"><ele>1332.9385</ele><time>2026-04-24T23:46:56.000Z</time></trkpt>
        <trkpt lat="28.228573" lon="105.052993"><ele>1332.5219</ele><time>2026-04-24T23:46:57.000Z</time></trkpt>
        <trkpt lat="28.228547" lon="105.052865"><ele>1332.0688</ele><time>2026-04-24T23:46:58.000Z</time></trkpt>
        <trkpt lat="28.228513" lon="105.052738"><ele>1331.4994</ele><time>2026-04-24T23:46:59.000Z</time></trkpt>
        <trkpt lat="28.228479" lon="105.052611"><ele>1330.9606</ele><time>2026-04-24T23:47:00.000Z</time></trkpt>
        <trkpt lat="28.228445" lon="105.052485"><ele>1330.3295</ele><time>2026-04-24T23:47:01.000Z</time></trkpt>
        <trkpt lat="28.228413" lon="105.052367"><ele>1329.362</ele><time>2026-04-24T23:47:02.000Z</time></trkpt>
        <trkpt lat="28.228384" lon="105.052258"><ele>1328.7484</ele><time>2026-04-24T23:47:03.000Z</time></trkpt>
        <trkpt lat="28.228359" lon="105.052165"><ele>1327.8875</ele><time>2026-04-24T23:47:04.000Z</time></trkpt>
        <trkpt lat="28.228337" lon="105.052084"><ele>1327.5707</ele><time>2026-04-24T23:47:05.000Z</time></trkpt>
        <trkpt lat="28.228318" lon="105.052013"><ele>1327.4645</ele><time>2026-04-24T23:47:06.000Z</time></trkpt>
        <trkpt lat="28.2283" lon="105.051945"><ele>1327.2568</ele><time>2026-04-24T23:47:07.000Z</time></trkpt>
        <trkpt lat="28.228283" lon="105.051881"><ele>1326.7638</ele><time>2026-04-24T23:47:08.000Z</time></trkpt>
      </trkseg>
      <trkseg>
        <trkpt lat="28.238136" lon="105.058785"><ele>1364.2301</ele><time>2026-04-25T00:07:10.000Z</time></trkpt>
        <trkpt lat="28.238165" lon="105.05883"><ele>1363.7799</ele><time>2026-04-25T00:07:19.000Z</time></trkpt>
        <trkpt lat="28.238172" lon="105.058884"><ele>1363.841</ele><time>2026-04-25T00:07:23.000Z</time></trkpt>
        <trkpt lat="28.238209" lon="105.058926"><ele>1365.2362</ele><time>2026-04-25T00:07:27.000Z</time></trkpt>
        <trkpt lat="28.238253" lon="105.058903"><ele>1365.9626</ele><time>2026-04-25T00:07:32.000Z</time></trkpt>
        <trkpt lat="28.238263" lon="105.05884"><ele>1365.624</ele><time>2026-04-25T00:07:37.000Z</time></trkpt>
        <trkpt lat="28.238266" lon="105.058775"><ele>1366.1207</ele><time>2026-04-25T00:07:42.000Z</time></trkpt>
        <trkpt lat="28.238269" lon="105.058723"><ele>1367.4883</ele><time>2026-04-25T00:07:47.000Z</time></trkpt>
        <trkpt lat="28.238236" lon="105.05868"><ele>1369.2515</ele><time>2026-04-25T00:07:55.000Z</time></trkpt>
        <trkpt lat="28.238207" lon="105.058623"><ele>1368.4225</ele><time>2026-04-25T00:08:01.000Z</time></trkpt>
        <trkpt lat="28.23819" lon="105.058571"><ele>1367.9707</ele><time>2026-04-25T00:08:06.000Z</time></trkpt>
        <trkpt lat="28.238152" lon="105.058524"><ele>1367.866</ele><time>2026-04-25T00:08:11.000Z</time></trkpt>
        <trkpt lat="28.238148" lon="105.058467"><ele>1367.6527</ele><time>2026-04-25T00:08:15.000Z</time></trkpt>
        <trkpt lat="28.238128" lon="105.058412"><ele>1368.936</ele><time>2026-04-25T00:08:19.000Z</time></trkpt>
        <trkpt lat="28.238126" lon="105.058356"><ele>1370.2847</ele><time>2026-04-25T00:08:23.000Z</time></trkpt>
        <trkpt lat="28.238137" lon="105.058296"><ele>1369.925</ele><time>2026-04-25T00:08:32.000Z</time></trkpt>
        <trkpt lat="28.238146" lon="105.058236"><ele>1370.5824</ele><time>2026-04-25T00:08:37.000Z</time></trkpt>
        <trkpt lat="28.238166" lon="105.058187"><ele>1370.8848</ele><time>2026-04-25T00:08:47.000Z</time></trkpt>
        <trkpt lat="28.238193" lon="105.058145"><ele>1370.3999</ele><time>2026-04-25T00:08:51.000Z</time></trkpt>
        <trkpt lat="28.238234" lon="105.058108"><ele>1372.2462</ele><time>2026-04-25T00:08:55.000Z</time></trkpt>
        <trkpt lat="28.238283" lon="105.058064"><ele>1371.2867</ele><time>2026-04-25T00:09:00.000Z</time></trkpt>
        <trkpt lat="28.238286" lon="105.058005"><ele>1370.8671</ele><time>2026-04-25T00:09:04.000Z</time></trkpt>
        <trkpt lat="28.238269" lon="105.057951"><ele>1370.0817</ele><time>2026-04-25T00:09:08.000Z</time></trkpt>
        <trkpt lat="28.23825" lon="105.0579"><ele>1370.5844</ele><time>2026-04-25T00:09:12.000Z</time></trkpt>
        <trkpt lat="28.238224" lon="105.057839"><ele>1370.2611</ele><time>2026-04-25T00:09:17.000Z</time></trkpt>
        <trkpt lat="28.238223" lon="105.057782"><ele>1370.5018</ele><time>2026-04-25T00:09:21.000Z</time></trkpt>
        <trkpt lat="28.238238" lon="105.057729"><ele>1370.5675</ele><time>2026-04-25T00:09:26.000Z</time></trkpt>
        <trkpt lat="28.23826" lon="105.057681"><ele>1370.8975</ele><time>2026-04-25T00:09:30.000Z</time></trkpt>
        <trkpt lat="28.23829" lon="105.057638"><ele>1371.6582</ele><time>2026-04-25T00:09:34.000Z</time></trkpt>
        <trkpt lat="28.238316" lon="105.057594"><ele>1374.271</ele><time>2026-04-25T00:09:38.000Z</time></trkpt>
        <trkpt lat="28.238359" lon="105.057562"><ele>1373.2423</ele><time>2026-04-25T00:09:43.000Z</time></trkpt>
        <trkpt lat="28.238405" lon="105.057544"><ele>1376.0566</ele><time>2026-04-25T00:09:47.000Z</time></trkpt>
        <trkpt lat="28.238466" lon="105.057559"><ele>1374.9243</ele><time>2026-04-25T00:09:52.000Z</time></trkpt>
        <trkpt lat="28.238515" lon="105.057559"><ele>1372.5583</ele><time>2026-04-25T00:09:57.000Z</time></trkpt>
        <trkpt lat="28.238566" lon="105.057553"><ele>1376.0453</ele><time>2026-04-25T00:10:02.000Z</time></trkpt>
        <trkpt lat="28.238618" lon="105.057545"><ele>1377.6051</ele><time>2026-04-25T00:10:07.000Z</time></trkpt>
        <trkpt lat="28.238667" lon="105.057544"><ele>1378.7393</ele><time>2026-04-25T00:10:12.000Z</time></trkpt>
        <trkpt lat="28.238718" lon="105.057546"><ele>1379.0956</ele><time>2026-04-25T00:10:17.000Z</time></trkpt>
        <trkpt lat="28.238771" lon="105.057555"><ele>1381.9111</ele><time>2026-04-25T00:10:22.000Z</time></trkpt>
        <trkpt lat="28.238817" lon="105.057552"><ele>1383.2772</ele><time>2026-04-25T00:10:26.000Z</time></trkpt>
        <trkpt lat="28.238867" lon="105.057531"><ele>1384.5605</ele><time>2026-04-25T00:10:32.000Z</time></trkpt>
        <trkpt lat="28.238918" lon="105.057512"><ele>1386.3987</ele><time>2026-04-25T00:10:36.000Z</time></trkpt>
        <trkpt lat="28.238961" lon="105.057483"><ele>1386.2</ele><time>2026-04-25T00:10:41.000Z</time></trkpt>
        <trkpt lat="28.238981" lon="105.057424"><ele>1389.2462</ele><time>2026-04-25T00:10:45.000Z</time></trkpt>
        <trkpt lat="28.239015" lon="105.057373"><ele>1390.8105</ele><time>2026-04-25T00:10:51.000Z</time></trkpt>
        <trkpt lat="28.23905" lon="105.057414"><ele>1390.4165</ele><time>2026-04-25T00:10:56.000Z</time></trkpt>
        <trkpt lat="28.239089" lon="105.057442"><ele>1390.5159</ele><time>2026-04-25T00:11:00.000Z</time></trkpt>
        <trkpt lat="28.239111" lon="105.057495"><ele>1390.271</ele><time>2026-04-25T00:11:04.000Z</time></trkpt>
        <trkpt lat="28.239097" lon="105.057559"><ele>1389.5225</ele><time>2026-04-25T00:11:09.000Z</time></trkpt>
        <trkpt lat="28.239062" lon="105.057598"><ele>1391.0206</ele><time>2026-04-25T00:11:13.000Z</time></trkpt>
        <trkpt lat="28.239019" lon="105.05764"><ele>1391.8157</ele><time>2026-04-25T00:11:17.000Z</time></trkpt>
        <trkpt lat="28.238977" lon="105.057668"><ele>1393.0651</ele><time>2026-04-25T00:11:21.000Z</time></trkpt>
        <trkpt lat="28.238944" lon="105.057714"><ele>1392.3792</ele><time>2026-04-25T00:11:26.000Z</time></trkpt>
        <trkpt lat="28.238929" lon="105.057775"><ele>1391.5209</ele><time>2026-04-25T00:11:31.000Z</time></trkpt>
        <trkpt lat="28.238948" lon="105.057845"><ele>1395.289</ele><time>2026-04-25T00:11:37.000Z</time></trkpt>
        <trkpt lat="28.238981" lon="105.057883"><ele>1394.5718</ele><time>2026-04-25T00:11:41.000Z</time></trkpt>
        <trkpt lat="28.239015" lon="105.057921"><ele>1393.5277</ele><time>2026-04-25T00:11:45.000Z</time></trkpt>
        <trkpt lat="28.239041" lon="105.057972"><ele>1396.4136</ele><time>2026-04-25T00:11:50.000Z</time></trkpt>
        <trkpt lat="28.239061" lon="105.058025"><ele>1394.7225</ele><time>2026-04-25T00:11:54.000Z</time></trkpt>
        <trkpt lat="28.239071" lon="105.058076"><ele>1394.7843</ele><time>2026-04-25T00:11:58.000Z</time></trkpt>
        <trkpt lat="28.239043" lon="105.058132"><ele>1395.3705</ele><time>2026-04-25T00:12:02.000Z</time></trkpt>
        <trkpt lat="28.239018" lon="105.058192"><ele>1394.5167</ele><time>2026-04-25T00:12:06.000Z</time></trkpt>
        <trkpt lat="28.239004" lon="105.058246"><ele>1394.2391</ele><time>2026-04-25T00:12:10.000Z</time></trkpt>
        <trkpt lat="28.238989" lon="105.058299"><ele>1395.4901</ele><time>2026-04-25T00:12:14.000Z</time></trkpt>
        <trkpt lat="28.238992" lon="105.058355"><ele>1395.514</ele><time>2026-04-25T00:12:18.000Z</time></trkpt>
        <trkpt lat="28.23901" lon="105.058408"><ele>1395.7354</ele><time>2026-04-25T00:12:22.000Z</time></trkpt>
        <trkpt lat="28.23905" lon="105.058436"><ele>1396.2527</ele><time>2026-04-25T00:12:28.000Z</time></trkpt>
        <trkpt lat="28.239003" lon="105.058419"><ele>1396.8873</ele><time>2026-04-25T00:12:58.000Z</time></trkpt>
        <trkpt lat="28.238986" lon="105.058368"><ele>1395.8116</ele><time>2026-04-25T00:13:03.000Z</time></trkpt>
        <trkpt lat="28.239019" lon="105.058407"><ele>1396.1631</ele><time>2026-04-25T00:13:19.000Z</time></trkpt>
        <trkpt lat="28.239055" lon="105.058447"><ele>1395.8939</ele><time>2026-04-25T00:13:23.000Z</time></trkpt>
        <trkpt lat="28.239095" lon="105.058488"><ele>1395.7827</ele><time>2026-04-25T00:13:27.000Z</time></trkpt>
        <trkpt lat="28.239143" lon="105.058534"><ele>1395.7181</ele><time>2026-04-25T00:13:31.000Z</time></trkpt>
        <trkpt lat="28.239163" lon="105.058581"><ele>1395.0057</ele><time>2026-04-25T00:13:34.000Z</time></trkpt>
        <trkpt lat="28.23917" lon="105.058645"><ele>1394.5608</ele><time>2026-04-25T00:13:38.000Z</time></trkpt>
        <trkpt lat="28.239186" lon="105.058705"><ele>1394.9962</ele><time>2026-04-25T00:13:42.000Z</time></trkpt>
        <trkpt lat="28.239195" lon="105.05877"><ele>1395.7238</ele><time>2026-04-25T00:13:46.000Z</time></trkpt>
        <trkpt lat="28.239194" lon="105.058827"><ele>1396.6986</ele><time>2026-04-25T00:13:50.000Z</time></trkpt>
        <trkpt lat="28.239188" lon="105.058886"><ele>1397.7887</ele><time>2026-04-25T00:13:54.000Z</time></trkpt>
        <trkpt lat="28.239176" lon="105.058944"><ele>1398.86</ele><time>2026-04-25T00:13:58.000Z</time></trkpt>
        <trkpt lat="28.239153" lon="105.058998"><ele>1399.9745</ele><time>2026-04-25T00:14:02.000Z</time></trkpt>
        <trkpt lat="28.23916" lon="105.059052"><ele>1400.5422</ele><time>2026-04-25T00:14:06.000Z</time></trkpt>
        <trkpt lat="28.239197" lon="105.05909"><ele>1400.9988</ele><time>2026-04-25T00:14:38.000Z</time></trkpt>
        <trkpt lat="28.239231" lon="105.059128"><ele>1401.1538</ele><time>2026-04-25T00:14:41.000Z</time></trkpt>
        <trkpt lat="28.239278" lon="105.059149"><ele>1401.6735</ele><time>2026-04-25T00:14:45.000Z</time></trkpt>
        <trkpt lat="28.239324" lon="105.059182"><ele>1402.3212</ele><time>2026-04-25T00:14:49.000Z</time></trkpt>
        <trkpt lat="28.239373" lon="105.059209"><ele>1403.0043</ele><time>2026-04-25T00:14:53.000Z</time></trkpt>
        <trkpt lat="28.239422" lon="105.059229"><ele>1403.896</ele><time>2026-04-25T00:14:57.000Z</time></trkpt>
        <trkpt lat="28.239471" lon="105.059254"><ele>1404.4845</ele><time>2026-04-25T00:15:01.000Z</time></trkpt>
        <trkpt lat="28.23952" lon="105.059286"><ele>1404.9417</ele><time>2026-04-25T00:15:05.000Z</time></trkpt>
        <trkpt lat="28.23956" lon="105.05933"><ele>1406.0382</ele><time>2026-04-25T00:15:09.000Z</time></trkpt>
        <trkpt lat="28.239594" lon="105.059381"><ele>1407.1461</ele><time>2026-04-25T00:15:13.000Z</time></trkpt>
        <trkpt lat="28.23962" lon="105.05943"><ele>1408.1458</ele><time>2026-04-25T00:15:17.000Z</time></trkpt>
        <trkpt lat="28.23966" lon="105.059469"><ele>1409.0925</ele><time>2026-04-25T00:15:21.000Z</time></trkpt>
        <trkpt lat="28.2397" lon="105.059504"><ele>1409.5518</ele><time>2026-04-25T00:15:25.000Z</time></trkpt>
        <trkpt lat="28.239745" lon="105.059537"><ele>1410.2036</ele><time>2026-04-25T00:15:29.000Z</time></trkpt>
        <trkpt lat="28.239792" lon="105.05955"><ele>1411.2849</ele><time>2026-04-25T00:15:33.000Z</time></trkpt>
        <trkpt lat="28.239838" lon="105.059575"><ele>1413.4343</ele><time>2026-04-25T00:15:38.000Z</time></trkpt>
        <trkpt lat="28.239889" lon="105.059594"><ele>1414.3716</ele><time>2026-04-25T00:15:43.000Z</time></trkpt>
        <trkpt lat="28.239942" lon="105.059596"><ele>1415.6925</ele><time>2026-04-25T00:15:48.000Z</time></trkpt>
        <trkpt lat="28.239989" lon="105.059598"><ele>1417.5017</ele><time>2026-04-25T00:15:53.000Z</time></trkpt>
        <trkpt lat="28.240032" lon="105.059624"><ele>1419.4705</ele><time>2026-04-25T00:15:58.000Z</time></trkpt>
        <trkpt lat="28.240077" lon="105.059646"><ele>1420.9635</ele><time>2026-04-25T00:16:02.000Z</time></trkpt>
        <trkpt lat="28.240101" lon="105.059701"><ele>1423.027</ele><time>2026-04-25T00:16:07.000Z</time></trkpt>
        <trkpt lat="28.240135" lon="105.059751"><ele>1424.7656</ele><time>2026-04-25T00:16:13.000Z</time></trkpt>
        <trkpt lat="28.240162" lon="105.059794"><ele>1424.8105</ele><time>2026-04-25T00:16:17.000Z</time></trkpt>
        <trkpt lat="28.240197" lon="105.059827"><ele>1425.7477</ele><time>2026-04-25T00:16:22.000Z</time></trkpt>
        <trkpt lat="28.240244" lon="105.059853"><ele>1426.7977</ele><time>2026-04-25T00:16:27.000Z</time></trkpt>
        <trkpt lat="28.240288" lon="105.059877"><ele>1425.672</ele><time>2026-04-25T00:16:32.000Z</time></trkpt>
        <trkpt lat="28.240324" lon="105.059922"><ele>1425.574</ele><time>2026-04-25T00:16:37.000Z</time></trkpt>
        <trkpt lat="28.240343" lon="105.059984"><ele>1424.4684</ele><time>2026-04-25T00:16:42.000Z</time></trkpt>
        <trkpt lat="28.240335" lon="105.060036"><ele>1424.9338</ele><time>2026-04-25T00:16:46.000Z</time></trkpt>
        <trkpt lat="28.240326" lon="105.060088"><ele>1426.4924</ele><time>2026-04-25T00:16:50.000Z</time></trkpt>
        <trkpt lat="28.240325" lon="105.06014"><ele>1426.0198</ele><time>2026-04-25T00:16:54.000Z</time></trkpt>
        <trkpt lat="28.240318" lon="105.0602"><ele>1427.0292</ele><time>2026-04-25T00:16:59.000Z</time></trkpt>
        <trkpt lat="28.240325" lon="105.060255"><ele>1428.045</ele><time>2026-04-25T00:17:04.000Z</time></trkpt>
        <trkpt lat="28.24036" lon="105.060305"><ele>1427.9855</ele><time>2026-04-25T00:17:09.000Z</time></trkpt>
        <trkpt lat="28.240387" lon="105.060352"><ele>1427.5198</ele><time>2026-04-25T00:17:14.000Z</time></trkpt>
        <trkpt lat="28.24041" lon="105.060405"><ele>1427.9263</ele><time>2026-04-25T00:17:18.000Z</time></trkpt>
        <trkpt lat="28.240429" lon="105.06046"><ele>1427.6862</ele><time>2026-04-25T00:17:22.000Z</time></trkpt>
        <trkpt lat="28.240421" lon="105.060517"><ele>1427.2395</ele><time>2026-04-25T00:17:26.000Z</time></trkpt>
        <trkpt lat="28.2404" lon="105.060574"><ele>1426.714</ele><time>2026-04-25T00:17:30.000Z</time></trkpt>
        <trkpt lat="28.240358" lon="105.06062"><ele>1426.5847</ele><time>2026-04-25T00:17:34.000Z</time></trkpt>
        <trkpt lat="28.240313" lon="105.060658"><ele>1427.6383</ele><time>2026-04-25T00:17:38.000Z</time></trkpt>
        <trkpt lat="28.240286" lon="105.060712"><ele>1428.9478</ele><time>2026-04-25T00:17:42.000Z</time></trkpt>
        <trkpt lat="28.240272" lon="105.060762"><ele>1429.5604</ele><time>2026-04-25T00:17:46.000Z</time></trkpt>
        <trkpt lat="28.240291" lon="105.060813"><ele>1430.1067</ele><time>2026-04-25T00:17:50.000Z</time></trkpt>
        <trkpt lat="28.24032" lon="105.06086"><ele>1432.0061</ele><time>2026-04-25T00:17:55.000Z</time></trkpt>
        <trkpt lat="28.240363" lon="105.060884"><ele>1433.228</ele><time>2026-04-25T00:17:59.000Z</time></trkpt>
        <trkpt lat="28.240412" lon="105.060898"><ele>1433.607</ele><time>2026-04-25T00:18:04.000Z</time></trkpt>
        <trkpt lat="28.24046" lon="105.060901"><ele>1435.0831</ele><time>2026-04-25T00:18:09.000Z</time></trkpt>
        <trkpt lat="28.240505" lon="105.060896"><ele>1435.6216</ele><time>2026-04-25T00:18:13.000Z</time></trkpt>
        <trkpt lat="28.240552" lon="105.060895"><ele>1435.5396</ele><time>2026-04-25T00:18:17.000Z</time></trkpt>
        <trkpt lat="28.2406" lon="105.060901"><ele>1435.2491</ele><time>2026-04-25T00:18:22.000Z</time></trkpt>
        <trkpt lat="28.240649" lon="105.060929"><ele>1435.0654</ele><time>2026-04-25T00:18:26.000Z</time></trkpt>
        <trkpt lat="28.24068" lon="105.060981"><ele>1435.1477</ele><time>2026-04-25T00:18:31.000Z</time></trkpt>
        <trkpt lat="28.240723" lon="105.061015"><ele>1435.4438</ele><time>2026-04-25T00:18:36.000Z</time></trkpt>
        <trkpt lat="28.240771" lon="105.061043"><ele>1436.0005</ele><time>2026-04-25T00:18:41.000Z</time></trkpt>
        <trkpt lat="28.240816" lon="105.061063"><ele>1437.3733</ele><time>2026-04-25T00:18:46.000Z</time></trkpt>
        <trkpt lat="28.240866" lon="105.061052"><ele>1438.9543</ele><time>2026-04-25T00:18:51.000Z</time></trkpt>
        <trkpt lat="28.240911" lon="105.061023"><ele>1440.6339</ele><time>2026-04-25T00:18:57.000Z</time></trkpt>
        <trkpt lat="28.240943" lon="105.060987"><ele>1442.1699</ele><time>2026-04-25T00:19:02.000Z</time></trkpt>
        <trkpt lat="28.240989" lon="105.060974"><ele>1444.3644</ele><time>2026-04-25T00:19:07.000Z</time></trkpt>
        <trkpt lat="28.241039" lon="105.060981"><ele>1445.9637</ele><time>2026-04-25T00:19:12.000Z</time></trkpt>
        <trkpt lat="28.241089" lon="105.060978"><ele>1447.3113</ele><time>2026-04-25T00:19:17.000Z</time></trkpt>
        <trkpt lat="28.241131" lon="105.061008"><ele>1447.181</ele><time>2026-04-25T00:19:22.000Z</time></trkpt>
        <trkpt lat="28.241163" lon="105.061044"><ele>1448.0242</ele><time>2026-04-25T00:19:26.000Z</time></trkpt>
        <trkpt lat="28.241205" lon="105.061084"><ele>1448.9167</ele><time>2026-04-25T00:19:31.000Z</time></trkpt>
        <trkpt lat="28.241251" lon="105.06111"><ele>1449.302</ele><time>2026-04-25T00:19:36.000Z</time></trkpt>
        <trkpt lat="28.241304" lon="105.061122"><ele>1450.0653</ele><time>2026-04-25T00:19:41.000Z</time></trkpt>
        <trkpt lat="28.241348" lon="105.061145"><ele>1451.0365</ele><time>2026-04-25T00:19:46.000Z</time></trkpt>
        <trkpt lat="28.24139" lon="105.061169"><ele>1451.8204</ele><time>2026-04-25T00:19:50.000Z</time></trkpt>
        <trkpt lat="28.24143" lon="105.06122"><ele>1452.205</ele><time>2026-04-25T00:19:55.000Z</time></trkpt>
        <trkpt lat="28.241455" lon="105.061262"><ele>1452.1644</ele><time>2026-04-25T00:19:59.000Z</time></trkpt>
        <trkpt lat="28.241473" lon="105.061311"><ele>1452.5615</ele><time>2026-04-25T00:20:03.000Z</time></trkpt>
        <trkpt lat="28.241479" lon="105.061366"><ele>1452.1129</ele><time>2026-04-25T00:20:07.000Z</time></trkpt>
        <trkpt lat="28.241489" lon="105.061431"><ele>1453.643</ele><time>2026-04-25T00:20:12.000Z</time></trkpt>
        <trkpt lat="28.241491" lon="105.061494"><ele>1454.328</ele><time>2026-04-25T00:20:17.000Z</time></trkpt>
        <trkpt lat="28.241491" lon="105.061553"><ele>1454.8976</ele><time>2026-04-25T00:20:21.000Z</time></trkpt>
        <trkpt lat="28.241496" lon="105.061614"><ele>1456.0385</ele><time>2026-04-25T00:20:26.000Z</time></trkpt>
        <trkpt lat="28.241524" lon="105.061662"><ele>1457.3573</ele><time>2026-04-25T00:20:31.000Z</time></trkpt>
        <trkpt lat="28.241564" lon="105.061693"><ele>1457.9736</ele><time>2026-04-25T00:20:36.000Z</time></trkpt>
        <trkpt lat="28.241605" lon="105.061717"><ele>1458.6754</ele><time>2026-04-25T00:20:40.000Z</time></trkpt>
        <trkpt lat="28.241653" lon="105.061741"><ele>1459.9285</ele><time>2026-04-25T00:20:45.000Z</time></trkpt>
        <trkpt lat="28.241698" lon="105.061758"><ele>1460.2023</ele><time>2026-04-25T00:20:49.000Z</time></trkpt>
        <trkpt lat="28.241743" lon="105.061782"><ele>1462.2466</ele><time>2026-04-25T00:20:54.000Z</time></trkpt>
        <trkpt lat="28.241794" lon="105.061786"><ele>1462.8993</ele><time>2026-04-25T00:20:59.000Z</time></trkpt>
        <trkpt lat="28.241839" lon="105.061782"><ele>1464.9187</ele><time>2026-04-25T00:21:05.000Z</time></trkpt>
        <trkpt lat="28.24189" lon="105.061787"><ele>1464.3931</ele><time>2026-04-25T00:21:10.000Z</time></trkpt>
        <trkpt lat="28.241907" lon="105.061843"><ele>1464.3748</ele><time>2026-04-25T00:21:14.000Z</time></trkpt>
        <trkpt lat="28.241895" lon="105.061895"><ele>1465.6205</ele><time>2026-04-25T00:21:18.000Z</time></trkpt>
        <trkpt lat="28.241878" lon="105.061944"><ele>1466.4094</ele><time>2026-04-25T00:21:22.000Z</time></trkpt>
        <trkpt lat="28.241864" lon="105.061994"><ele>1466.0095</ele><time>2026-04-25T00:21:26.000Z</time></trkpt>
        <trkpt lat="28.241857" lon="105.062056"><ele>1467.1111</ele><time>2026-04-25T00:21:30.000Z</time></trkpt>
        <trkpt lat="28.24185" lon="105.062125"><ele>1466.1802</ele><time>2026-04-25T00:21:35.000Z</time></trkpt>
        <trkpt lat="28.241856" lon="105.062179"><ele>1466.3407</ele><time>2026-04-25T00:21:39.000Z</time></trkpt>
        <trkpt lat="28.241855" lon="105.062236"><ele>1466.599</ele><time>2026-04-25T00:21:43.000Z</time></trkpt>
        <trkpt lat="28.241858" lon="105.062291"><ele>1466.7721</ele><time>2026-04-25T00:21:47.000Z</time></trkpt>
        <trkpt lat="28.241881" lon="105.062349"><ele>1467.5223</ele><time>2026-04-25T00:21:51.000Z</time></trkpt>
        <trkpt lat="28.241893" lon="105.062403"><ele>1466.4713</ele><time>2026-04-25T00:21:55.000Z</time></trkpt>
        <trkpt lat="28.241904" lon="105.06246"><ele>1466.983</ele><time>2026-04-25T00:21:59.000Z</time></trkpt>
        <trkpt lat="28.2419" lon="105.06252"><ele>1466.7477</ele><time>2026-04-25T00:22:03.000Z</time></trkpt>
        <trkpt lat="28.241897" lon="105.062578"><ele>1467.1383</ele><time>2026-04-25T00:22:07.000Z</time></trkpt>
        <trkpt lat="28.241892" lon="105.062636"><ele>1467.8197</ele><time>2026-04-25T00:22:11.000Z</time></trkpt>
        <trkpt lat="28.241879" lon="105.062687"><ele>1468.4786</ele><time>2026-04-25T00:22:15.000Z</time></trkpt>
        <trkpt lat="28.24188" lon="105.06274"><ele>1468.6744</ele><time>2026-04-25T00:22:19.000Z</time></trkpt>
        <trkpt lat="28.241906" lon="105.062789"><ele>1468.9005</ele><time>2026-04-25T00:22:23.000Z</time></trkpt>
        <trkpt lat="28.241934" lon="105.062837"><ele>1468.7577</ele><time>2026-04-25T00:22:27.000Z</time></trkpt>
        <trkpt lat="28.241972" lon="105.062878"><ele>1469.7449</ele><time>2026-04-25T00:22:31.000Z</time></trkpt>
        <trkpt lat="28.242009" lon="105.062917"><ele>1470.3998</ele><time>2026-04-25T00:22:35.000Z</time></trkpt>
        <trkpt lat="28.242046" lon="105.062962"><ele>1471.4375</ele><time>2026-04-25T00:22:39.000Z</time></trkpt>
        <trkpt lat="28.242076" lon="105.063008"><ele>1472.127</ele><time>2026-04-25T00:22:43.000Z</time></trkpt>
        <trkpt lat="28.242107" lon="105.063057"><ele>1473.0177</ele><time>2026-04-25T00:22:47.000Z</time></trkpt>
        <trkpt lat="28.242129" lon="105.063111"><ele>1473.8304</ele><time>2026-04-25T00:22:51.000Z</time></trkpt>
        <trkpt lat="28.242149" lon="105.063168"><ele>1475.4099</ele><time>2026-04-25T00:22:56.000Z</time></trkpt>
        <trkpt lat="28.242161" lon="105.063222"><ele>1477.4451</ele><time>2026-04-25T00:23:00.000Z</time></trkpt>
        <trkpt lat="28.242187" lon="105.063266"><ele>1477.8453</ele><time>2026-04-25T00:23:05.000Z</time></trkpt>
        <trkpt lat="28.242224" lon="105.063296"><ele>1479.2964</ele><time>2026-04-25T00:23:10.000Z</time></trkpt>
        <trkpt lat="28.242262" lon="105.063324"><ele>1480.4984</ele><time>2026-04-25T00:23:14.000Z</time></trkpt>
        <trkpt lat="28.242307" lon="105.063355"><ele>1481.0634</ele><time>2026-04-25T00:23:19.000Z</time></trkpt>
        <trkpt lat="28.242355" lon="105.063374"><ele>1482.8733</ele><time>2026-04-25T00:23:24.000Z</time></trkpt>
        <trkpt lat="28.242395" lon="105.063399"><ele>1484.8705</ele><time>2026-04-25T00:23:28.000Z</time></trkpt>
        <trkpt lat="28.242435" lon="105.063424"><ele>1485.9028</ele><time>2026-04-25T00:23:32.000Z</time></trkpt>
        <trkpt lat="28.242476" lon="105.063453"><ele>1486.6755</ele><time>2026-04-25T00:23:37.000Z</time></trkpt>
        <trkpt lat="28.242525" lon="105.063447"><ele>1488.4045</ele><time>2026-04-25T00:23:44.000Z</time></trkpt>
        <trkpt lat="28.242547" lon="105.0634"><ele>1489.6508</ele><time>2026-04-25T00:23:49.000Z</time></trkpt>
        <trkpt lat="28.242546" lon="105.063342"><ele>1491.1013</ele><time>2026-04-25T00:23:55.000Z</time></trkpt>
        <trkpt lat="28.24254" lon="105.063291"><ele>1492.8894</ele><time>2026-04-25T00:24:01.000Z</time></trkpt>
        <trkpt lat="28.242532" lon="105.06324"><ele>1493.5167</ele><time>2026-04-25T00:24:06.000Z</time></trkpt>
        <trkpt lat="28.242517" lon="105.063186"><ele>1493.985</ele><time>2026-04-25T00:24:12.000Z</time></trkpt>
        <trkpt lat="28.242497" lon="105.06314"><ele>1493.6635</ele><time>2026-04-25T00:24:19.000Z</time></trkpt>
        <trkpt lat="28.24248" lon="105.06309"><ele>1492.4209</ele><time>2026-04-25T00:24:27.000Z</time></trkpt>
        <trkpt lat="28.242476" lon="105.063037"><ele>1491.9036</ele><time>2026-04-25T00:24:32.000Z</time></trkpt>
        <trkpt lat="28.242483" lon="105.06298"><ele>1492.162</ele><time>2026-04-25T00:24:37.000Z</time></trkpt>
        <trkpt lat="28.242511" lon="105.062926"><ele>1492.692</ele><time>2026-04-25T00:25:52.000Z</time></trkpt>
        <trkpt lat="28.24247" lon="105.062959"><ele>1495.0404</ele><time>2026-04-25T00:28:38.000Z</time></trkpt>
        <trkpt lat="28.24252" lon="105.06295"><ele>1488.9382</ele><time>2026-04-25T00:33:24.000Z</time></trkpt>
        <trkpt lat="28.242493" lon="105.063012"><ele>1491.8529</ele><time>2026-04-25T00:34:04.000Z</time></trkpt>
        <trkpt lat="28.242512" lon="105.063068"><ele>1489.953</ele><time>2026-04-25T00:34:11.000Z</time></trkpt>
        <trkpt lat="28.242511" lon="105.063119"><ele>1489.6196</ele><time>2026-04-25T00:34:14.000Z</time></trkpt>
        <trkpt lat="28.242519" lon="105.063192"><ele>1488.5891</ele><time>2026-04-25T00:34:19.000Z</time></trkpt>
        <trkpt lat="28.242536" lon="105.063246"><ele>1486.951</ele><time>2026-04-25T00:34:23.000Z</time></trkpt>
        <trkpt lat="28.242542" lon="105.063298"><ele>1486.2172</ele><time>2026-04-25T00:34:26.000Z</time></trkpt>
        <trkpt lat="28.242539" lon="105.06335"><ele>1486.9279</ele><time>2026-04-25T00:34:30.000Z</time></trkpt>
        <trkpt lat="28.24254" lon="105.063411"><ele>1486.2002</ele><time>2026-04-25T00:34:35.000Z</time></trkpt>
        <trkpt lat="28.24252" lon="105.063462"><ele>1487.4</ele><time>2026-04-25T00:34:38.000Z</time></trkpt>
        <trkpt lat="28.242467" lon="105.063489"><ele>1488.3307</ele><time>2026-04-25T00:34:42.000Z</time></trkpt>
        <trkpt lat="28.242423" lon="105.063452"><ele>1488.1576</ele><time>2026-04-25T00:34:46.000Z</time></trkpt>
        <trkpt lat="28.242379" lon="105.0634"><ele>1487.7849</ele><time>2026-04-25T00:34:50.000Z</time></trkpt>
        <trkpt lat="28.242347" lon="105.063362"><ele>1488.1248</ele><time>2026-04-25T00:34:54.000Z</time></trkpt>
        <trkpt lat="28.242301" lon="105.063358"><ele>1486.7207</ele><time>2026-04-25T00:34:58.000Z</time></trkpt>
        <trkpt lat="28.242259" lon="105.06334"><ele>1485.9628</ele><time>2026-04-25T00:35:02.000Z</time></trkpt>
        <trkpt lat="28.242212" lon="105.063319"><ele>1483.0458</ele><time>2026-04-25T00:35:07.000Z</time></trkpt>
        <trkpt lat="28.242176" lon="105.063271"><ele>1480.7783</ele><time>2026-04-25T00:35:12.000Z</time></trkpt>
        <trkpt lat="28.242145" lon="105.063226"><ele>1479.2936</ele><time>2026-04-25T00:35:16.000Z</time></trkpt>
        <trkpt lat="28.24213" lon="105.063162"><ele>1477.8235</ele><time>2026-04-25T00:35:21.000Z</time></trkpt>
        <trkpt lat="28.24211" lon="105.063102"><ele>1476.2156</ele><time>2026-04-25T00:35:26.000Z</time></trkpt>
        <trkpt lat="28.242086" lon="105.06305"><ele>1476.4163</ele><time>2026-04-25T00:35:30.000Z</time></trkpt>
        <trkpt lat="28.242061" lon="105.063006"><ele>1476.1469</ele><time>2026-04-25T00:35:33.000Z</time></trkpt>
        <trkpt lat="28.24203" lon="105.062965"><ele>1476.6434</ele><time>2026-04-25T00:35:37.000Z</time></trkpt>
        <trkpt lat="28.241994" lon="105.062923"><ele>1475.5334</ele><time>2026-04-25T00:35:41.000Z</time></trkpt>
        <trkpt lat="28.241966" lon="105.062875"><ele>1474.5281</ele><time>2026-04-25T00:35:45.000Z</time></trkpt>
        <trkpt lat="28.24193" lon="105.062822"><ele>1473.8632</ele><time>2026-04-25T00:35:49.000Z</time></trkpt>
        <trkpt lat="28.241904" lon="105.062769"><ele>1473.9626</ele><time>2026-04-25T00:35:53.000Z</time></trkpt>
        <trkpt lat="28.241886" lon="105.062721"><ele>1473.3712</ele><time>2026-04-25T00:35:56.000Z</time></trkpt>
        <trkpt lat="28.241884" lon="105.062658"><ele>1472.9406</ele><time>2026-04-25T00:36:00.000Z</time></trkpt>
        <trkpt lat="28.24189" lon="105.062582"><ele>1472.6807</ele><time>2026-04-25T00:36:04.000Z</time></trkpt>
        <trkpt lat="28.241898" lon="105.062531"><ele>1471.6886</ele><time>2026-04-25T00:36:07.000Z</time></trkpt>
        <trkpt lat="28.241904" lon="105.06247"><ele>1470.7137</ele><time>2026-04-25T00:36:11.000Z</time></trkpt>
        <trkpt lat="28.241898" lon="105.062404"><ele>1469.8353</ele><time>2026-04-25T00:36:15.000Z</time></trkpt>
        <trkpt lat="28.241883" lon="105.06234"><ele>1469.1449</ele><time>2026-04-25T00:36:19.000Z</time></trkpt>
        <trkpt lat="28.241871" lon="105.062277"><ele>1468.0715</ele><time>2026-04-25T00:36:23.000Z</time></trkpt>
        <trkpt lat="28.241873" lon="105.062212"><ele>1467.38</ele><time>2026-04-25T00:36:27.000Z</time></trkpt>
        <trkpt lat="28.241858" lon="105.062146"><ele>1467.3904</ele><time>2026-04-25T00:36:31.000Z</time></trkpt>
        <trkpt lat="28.241858" lon="105.06209"><ele>1467.0338</ele><time>2026-04-25T00:36:34.000Z</time></trkpt>
        <trkpt lat="28.241856" lon="105.062025"><ele>1467.3773</ele><time>2026-04-25T00:36:38.000Z</time></trkpt>
        <trkpt lat="28.241874" lon="105.061978"><ele>1466.9541</ele><time>2026-04-25T00:36:41.000Z</time></trkpt>
        <trkpt lat="28.241908" lon="105.061923"><ele>1465.7539</ele><time>2026-04-25T00:36:45.000Z</time></trkpt>
        <trkpt lat="28.241922" lon="105.061872"><ele>1465.326</ele><time>2026-04-25T00:36:48.000Z</time></trkpt>
        <trkpt lat="28.241895" lon="105.061824"><ele>1465.0311</ele><time>2026-04-25T00:36:51.000Z</time></trkpt>
        <trkpt lat="28.241844" lon="105.06181"><ele>1465.0444</ele><time>2026-04-25T00:36:54.000Z</time></trkpt>
        <trkpt lat="28.241798" lon="105.061815"><ele>1464.0992</ele><time>2026-04-25T00:36:57.000Z</time></trkpt>
        <trkpt lat="28.24174" lon="105.061803"><ele>1463.0702</ele><time>2026-04-25T00:37:01.000Z</time></trkpt>
        <trkpt lat="28.241694" lon="105.061784"><ele>1463.068</ele><time>2026-04-25T00:37:04.000Z</time></trkpt>
        <trkpt lat="28.241658" lon="105.06175"><ele>1462.31</ele><time>2026-04-25T00:37:07.000Z</time></trkpt>
        <trkpt lat="28.241615" lon="105.061712"><ele>1461.5386</ele><time>2026-04-25T00:37:11.000Z</time></trkpt>
        <trkpt lat="28.241559" lon="105.061695"><ele>1461.283</ele><time>2026-04-25T00:37:15.000Z</time></trkpt>
        <trkpt lat="28.241523" lon="105.061662"><ele>1460.2626</ele><time>2026-04-25T00:37:18.000Z</time></trkpt>
        <trkpt lat="28.241495" lon="105.061622"><ele>1459.3152</ele><time>2026-04-25T00:37:21.000Z</time></trkpt>
        <trkpt lat="28.241482" lon="105.061567"><ele>1458.5614</ele><time>2026-04-25T00:37:24.000Z</time></trkpt>
        <trkpt lat="28.241488" lon="105.061511"><ele>1457.9904</ele><time>2026-04-25T00:37:27.000Z</time></trkpt>
        <trkpt lat="28.241494" lon="105.061456"><ele>1456.9697</ele><time>2026-04-25T00:37:30.000Z</time></trkpt>
        <trkpt lat="28.241497" lon="105.061401"><ele>1457.1451</ele><time>2026-04-25T00:37:33.000Z</time></trkpt>
        <trkpt lat="28.241485" lon="105.061344"><ele>1456.5548</ele><time>2026-04-25T00:37:36.000Z</time></trkpt>
        <trkpt lat="28.241467" lon="105.061297"><ele>1456.0632</ele><time>2026-04-25T00:37:39.000Z</time></trkpt>
        <trkpt lat="28.24144" lon="105.061254"><ele>1455.7512</ele><time>2026-04-25T00:37:42.000Z</time></trkpt>
        <trkpt lat="28.241404" lon="105.061199"><ele>1455.0735</ele><time>2026-04-25T00:37:46.000Z</time></trkpt>
        <trkpt lat="28.241369" lon="105.061165"><ele>1454.6526</ele><time>2026-04-25T00:37:49.000Z</time></trkpt>
        <trkpt lat="28.241324" lon="105.06115"><ele>1453.8873</ele><time>2026-04-25T00:37:52.000Z</time></trkpt>
        <trkpt lat="28.241268" lon="105.061125"><ele>1452.4797</ele><time>2026-04-25T00:37:56.000Z</time></trkpt>
        <trkpt lat="28.241223" lon="105.061112"><ele>1451.7594</ele><time>2026-04-25T00:37:59.000Z</time></trkpt>
        <trkpt lat="28.241186" lon="105.061084"><ele>1450.923</ele><time>2026-04-25T00:38:02.000Z</time></trkpt>
        <trkpt lat="28.241149" lon="105.061033"><ele>1449.5184</ele><time>2026-04-25T00:38:06.000Z</time></trkpt>
        <trkpt lat="28.241115" lon="105.060997"><ele>1448.468</ele><time>2026-04-25T00:38:09.000Z</time></trkpt>
        <trkpt lat="28.241077" lon="105.060963"><ele>1447.6074</ele><time>2026-04-25T00:38:12.000Z</time></trkpt>
        <trkpt lat="28.241032" lon="105.06095"><ele>1447.5491</ele><time>2026-04-25T00:38:15.000Z</time></trkpt>
        <trkpt lat="28.24098" lon="105.060969"><ele>1446.0575</ele><time>2026-04-25T00:38:19.000Z</time></trkpt>
        <trkpt lat="28.240936" lon="105.061009"><ele>1444.6674</ele><time>2026-04-25T00:38:23.000Z</time></trkpt>
        <trkpt lat="28.240904" lon="105.061053"><ele>1443.0342</ele><time>2026-04-25T00:38:27.000Z</time></trkpt>
        <trkpt lat="28.240854" lon="105.06108"><ele>1441.8713</ele><time>2026-04-25T00:38:31.000Z</time></trkpt>
        <trkpt lat="28.240803" lon="105.061079"><ele>1440.0284</ele><time>2026-04-25T00:38:35.000Z</time></trkpt>
        <trkpt lat="28.240762" lon="105.061056"><ele>1438.5201</ele><time>2026-04-25T00:38:39.000Z</time></trkpt>
        <trkpt lat="28.24072" lon="105.061015"><ele>1437.2748</ele><time>2026-04-25T00:38:45.000Z</time></trkpt>
        <trkpt lat="28.240698" lon="105.060969"><ele>1435.9231</ele><time>2026-04-25T00:38:49.000Z</time></trkpt>
        <trkpt lat="28.240667" lon="105.06093"><ele>1434.4348</ele><time>2026-04-25T00:38:53.000Z</time></trkpt>
        <trkpt lat="28.240626" lon="105.060901"><ele>1434.3539</ele><time>2026-04-25T00:38:57.000Z</time></trkpt>
        <trkpt lat="28.240575" lon="105.060896"><ele>1434.1885</ele><time>2026-04-25T00:39:01.000Z</time></trkpt>
        <trkpt lat="28.240523" lon="105.060889"><ele>1434.0182</ele><time>2026-04-25T00:39:05.000Z</time></trkpt>
        <trkpt lat="28.240466" lon="105.060903"><ele>1434.0374</ele><time>2026-04-25T00:39:09.000Z</time></trkpt>
        <trkpt lat="28.24042" lon="105.060909"><ele>1433.8519</ele><time>2026-04-25T00:39:13.000Z</time></trkpt>
        <trkpt lat="28.240376" lon="105.060889"><ele>1433.2579</ele><time>2026-04-25T00:39:17.000Z</time></trkpt>
        <trkpt lat="28.240331" lon="105.060859"><ele>1432.7731</ele><time>2026-04-25T00:39:22.000Z</time></trkpt>
        <trkpt lat="28.240302" lon="105.060806"><ele>1432.3424</ele><time>2026-04-25T00:39:27.000Z</time></trkpt>
        <trkpt lat="28.240287" lon="105.060756"><ele>1431.9763</ele><time>2026-04-25T00:39:31.000Z</time></trkpt>
        <trkpt lat="28.240292" lon="105.060705"><ele>1431.2035</ele><time>2026-04-25T00:39:35.000Z</time></trkpt>
        <trkpt lat="28.240324" lon="105.060665"><ele>1431.341</ele><time>2026-04-25T00:39:39.000Z</time></trkpt>
        <trkpt lat="28.240357" lon="105.060622"><ele>1431.3492</ele><time>2026-04-25T00:39:43.000Z</time></trkpt>
        <trkpt lat="28.240397" lon="105.06058"><ele>1431.7219</ele><time>2026-04-25T00:39:47.000Z</time></trkpt>
        <trkpt lat="28.240441" lon="105.060546"><ele>1432.0376</ele><time>2026-04-25T00:39:51.000Z</time></trkpt>
        <trkpt lat="28.240445" lon="105.060481"><ele>1432.754</ele><time>2026-04-25T00:39:55.000Z</time></trkpt>
        <trkpt lat="28.240434" lon="105.060423"><ele>1432.8855</ele><time>2026-04-25T00:39:59.000Z</time></trkpt>
        <trkpt lat="28.240421" lon="105.060369"><ele>1431.9747</ele><time>2026-04-25T00:40:03.000Z</time></trkpt>
        <trkpt lat="28.240401" lon="105.060317"><ele>1432.625</ele><time>2026-04-25T00:40:07.000Z</time></trkpt>
        <trkpt lat="28.240367" lon="105.060276"><ele>1432.0428</ele><time>2026-04-25T00:40:11.000Z</time></trkpt>
        <trkpt lat="28.240344" lon="105.060231"><ele>1430.4128</ele><time>2026-04-25T00:40:15.000Z</time></trkpt>
        <trkpt lat="28.240331" lon="105.060181"><ele>1429.1353</ele><time>2026-04-25T00:40:19.000Z</time></trkpt>
        <trkpt lat="28.240331" lon="105.060128"><ele>1428.4528</ele><time>2026-04-25T00:40:23.000Z</time></trkpt>
        <trkpt lat="28.240337" lon="105.060063"><ele>1428.6267</ele><time>2026-04-25T00:40:27.000Z</time></trkpt>
        <trkpt lat="28.240353" lon="105.06"><ele>1428.9374</ele><time>2026-04-25T00:40:31.000Z</time></trkpt>
        <trkpt lat="28.240355" lon="105.059936"><ele>1429.5181</ele><time>2026-04-25T00:40:35.000Z</time></trkpt>
        <trkpt lat="28.240341" lon="105.05988"><ele>1429.1866</ele><time>2026-04-25T00:40:39.000Z</time></trkpt>
        <trkpt lat="28.240292" lon="105.059861"><ele>1428.3319</ele><time>2026-04-25T00:40:43.000Z</time></trkpt>
        <trkpt lat="28.240244" lon="105.059839"><ele>1427.5157</ele><time>2026-04-25T00:40:47.000Z</time></trkpt>
        <trkpt lat="28.240197" lon="105.05981"><ele>1425.9591</ele><time>2026-04-25T00:40:51.000Z</time></trkpt>
        <trkpt lat="28.240168" lon="105.059769"><ele>1424.6481</ele><time>2026-04-25T00:41:04.000Z</time></trkpt>
        <trkpt lat="28.240137" lon="105.059722"><ele>1423.4198</ele><time>2026-04-25T00:41:09.000Z</time></trkpt>
        <trkpt lat="28.240114" lon="105.059678"><ele>1422.2588</ele><time>2026-04-25T00:41:13.000Z</time></trkpt>
        <trkpt lat="28.240088" lon="105.059635"><ele>1421.1613</ele><time>2026-04-25T00:41:17.000Z</time></trkpt>
        <trkpt lat="28.240045" lon="105.059605"><ele>1420.9929</ele><time>2026-04-25T00:41:21.000Z</time></trkpt>
        <trkpt lat="28.239998" lon="105.059595"><ele>1419.6915</ele><time>2026-04-25T00:41:25.000Z</time></trkpt>
        <trkpt lat="28.239951" lon="105.0596"><ele>1418.7228</ele><time>2026-04-25T00:41:29.000Z</time></trkpt>
        <trkpt lat="28.239897" lon="105.05959"><ele>1416.5919</ele><time>2026-04-25T00:41:34.000Z</time></trkpt>
        <trkpt lat="28.23985" lon="105.059579"><ele>1415.3345</ele><time>2026-04-25T00:41:38.000Z</time></trkpt>
        <trkpt lat="28.239795" lon="105.059562"><ele>1413.95</ele><time>2026-04-25T00:41:43.000Z</time></trkpt>
        <trkpt lat="28.239753" lon="105.05954"><ele>1412.8071</ele><time>2026-04-25T00:41:47.000Z</time></trkpt>
        <trkpt lat="28.239713" lon="105.059503"><ele>1411.3141</ele><time>2026-04-25T00:41:52.000Z</time></trkpt>
        <trkpt lat="28.239678" lon="105.059469"><ele>1409.9869</ele><time>2026-04-25T00:41:56.000Z</time></trkpt>
        <trkpt lat="28.239642" lon="105.059419"><ele>1409.844</ele><time>2026-04-25T00:42:00.000Z</time></trkpt>
        <trkpt lat="28.239606" lon="105.059362"><ele>1408.9115</ele><time>2026-04-25T00:42:04.000Z</time></trkpt>
        <trkpt lat="28.239581" lon="105.059319"><ele>1408.8727</ele><time>2026-04-25T00:42:07.000Z</time></trkpt>
        <trkpt lat="28.239548" lon="105.059272"><ele>1409.491</ele><time>2026-04-25T00:42:10.000Z</time></trkpt>
        <trkpt lat="28.239499" lon="105.059253"><ele>1409.617</ele><time>2026-04-25T00:42:13.000Z</time></trkpt>
        <trkpt lat="28.239458" lon="105.05923"><ele>1410.2816</ele><time>2026-04-25T00:42:16.000Z</time></trkpt>
        <trkpt lat="28.23941" lon="105.059196"><ele>1411.6313</ele><time>2026-04-25T00:42:19.000Z</time></trkpt>
        <trkpt lat="28.239352" lon="105.059184"><ele>1410.1561</ele><time>2026-04-25T00:42:23.000Z</time></trkpt>
        <trkpt lat="28.239299" lon="105.059155"><ele>1408.6814</ele><time>2026-04-25T00:42:27.000Z</time></trkpt>
        <trkpt lat="28.239245" lon="105.059124"><ele>1407.7286</ele><time>2026-04-25T00:42:31.000Z</time></trkpt>
        <trkpt lat="28.239211" lon="105.059079"><ele>1407.2378</ele><time>2026-04-25T00:42:34.000Z</time></trkpt>
        <trkpt lat="28.239186" lon="105.059026"><ele>1407.6608</ele><time>2026-04-25T00:42:37.000Z</time></trkpt>
        <trkpt lat="28.239182" lon="105.058966"><ele>1407.8075</ele><time>2026-04-25T00:42:40.000Z</time></trkpt>
        <trkpt lat="28.239196" lon="105.058916"><ele>1406.666</ele><time>2026-04-25T00:42:43.000Z</time></trkpt>
        <trkpt lat="28.239205" lon="105.058864"><ele>1406.0508</ele><time>2026-04-25T00:42:46.000Z</time></trkpt>
        <trkpt lat="28.239214" lon="105.058798"><ele>1405.1122</ele><time>2026-04-25T00:42:49.000Z</time></trkpt>
        <trkpt lat="28.239207" lon="105.058735"><ele>1403.4604</ele><time>2026-04-25T00:42:53.000Z</time></trkpt>
        <trkpt lat="28.239192" lon="105.058676"><ele>1401.3105</ele><time>2026-04-25T00:42:57.000Z</time></trkpt>
        <trkpt lat="28.239182" lon="105.058613"><ele>1400.2653</ele><time>2026-04-25T00:43:01.000Z</time></trkpt>
        <trkpt lat="28.239163" lon="105.058548"><ele>1400.3163</ele><time>2026-04-25T00:43:05.000Z</time></trkpt>
        <trkpt lat="28.239127" lon="105.058509"><ele>1401.3704</ele><time>2026-04-25T00:43:08.000Z</time></trkpt>
        <trkpt lat="28.239097" lon="105.058465"><ele>1401.2834</ele><time>2026-04-25T00:43:12.000Z</time></trkpt>
        <trkpt lat="28.239059" lon="105.058427"><ele>1401.196</ele><time>2026-04-25T00:43:16.000Z</time></trkpt>
        <trkpt lat="28.239028" lon="105.058381"><ele>1401.4282</ele><time>2026-04-25T00:43:20.000Z</time></trkpt>
        <trkpt lat="28.239013" lon="105.058324"><ele>1399.9258</ele><time>2026-04-25T00:43:23.000Z</time></trkpt>
        <trkpt lat="28.239014" lon="105.058253"><ele>1401.5934</ele><time>2026-04-25T00:43:27.000Z</time></trkpt>
        <trkpt lat="28.239036" lon="105.058189"><ele>1402.1381</ele><time>2026-04-25T00:43:31.000Z</time></trkpt>
        <trkpt lat="28.239061" lon="105.058134"><ele>1403.1942</ele><time>2026-04-25T00:43:35.000Z</time></trkpt>
        <trkpt lat="28.239085" lon="105.058085"><ele>1403.9026</ele><time>2026-04-25T00:43:38.000Z</time></trkpt>
        <trkpt lat="28.239098" lon="105.058023"><ele>1403.805</ele><time>2026-04-25T00:43:42.000Z</time></trkpt>
        <trkpt lat="28.239081" lon="105.057968"><ele>1402.3094</ele><time>2026-04-25T00:43:46.000Z</time></trkpt>
        <trkpt lat="28.239037" lon="105.057931"><ele>1402.12</ele><time>2026-04-25T00:43:50.000Z</time></trkpt>
        <trkpt lat="28.239003" lon="105.057894"><ele>1400.2839</ele><time>2026-04-25T00:43:54.000Z</time></trkpt>
        <trkpt lat="28.238974" lon="105.057837"><ele>1397.8756</ele><time>2026-04-25T00:43:59.000Z</time></trkpt>
        <trkpt lat="28.238962" lon="105.057782"><ele>1397.2637</ele><time>2026-04-25T00:44:03.000Z</time></trkpt>
        <trkpt lat="28.238964" lon="105.057718"><ele>1395.9576</ele><time>2026-04-25T00:44:07.000Z</time></trkpt>
        <trkpt lat="28.238992" lon="105.057667"><ele>1395.6289</ele><time>2026-04-25T00:44:11.000Z</time></trkpt>
        <trkpt lat="28.239029" lon="105.057636"><ele>1395.4102</ele><time>2026-04-25T00:44:14.000Z</time></trkpt>
        <trkpt lat="28.239069" lon="105.057605"><ele>1395.4652</ele><time>2026-04-25T00:44:17.000Z</time></trkpt>
        <trkpt lat="28.239097" lon="105.057555"><ele>1396.631</ele><time>2026-04-25T00:44:20.000Z</time></trkpt>
        <trkpt lat="28.239123" lon="105.057479"><ele>1394.8577</ele><time>2026-04-25T00:44:25.000Z</time></trkpt>
        <trkpt lat="28.239119" lon="105.057414"><ele>1395.0032</ele><time>2026-04-25T00:44:28.000Z</time></trkpt>
        <trkpt lat="28.239095" lon="105.057357"><ele>1395.8422</ele><time>2026-04-25T00:44:31.000Z</time></trkpt>
        <trkpt lat="28.239045" lon="105.057343"><ele>1395.988</ele><time>2026-04-25T00:44:34.000Z</time></trkpt>
        <trkpt lat="28.239" lon="105.057364"><ele>1394.999</ele><time>2026-04-25T00:44:37.000Z</time></trkpt>
        <trkpt lat="28.238983" lon="105.057425"><ele>1395.0497</ele><time>2026-04-25T00:44:40.000Z</time></trkpt>
        <trkpt lat="28.238969" lon="105.057479"><ele>1394.006</ele><time>2026-04-25T00:44:43.000Z</time></trkpt>
        <trkpt lat="28.238941" lon="105.057533"><ele>1393.94</ele><time>2026-04-25T00:44:46.000Z</time></trkpt>
        <trkpt lat="28.238884" lon="105.057547"><ele>1392.238</ele><time>2026-04-25T00:44:50.000Z</time></trkpt>
        <trkpt lat="28.238834" lon="105.057544"><ele>1391.6401</ele><time>2026-04-25T00:44:53.000Z</time></trkpt>
        <trkpt lat="28.238786" lon="105.057532"><ele>1389.8064</ele><time>2026-04-25T00:44:57.000Z</time></trkpt>
        <trkpt lat="28.238735" lon="105.057525"><ele>1388.4205</ele><time>2026-04-25T00:45:01.000Z</time></trkpt>
        <trkpt lat="28.238682" lon="105.057538"><ele>1386.8752</ele><time>2026-04-25T00:45:06.000Z</time></trkpt>
        <trkpt lat="28.23863" lon="105.057554"><ele>1384.9062</ele><time>2026-04-25T00:45:11.000Z</time></trkpt>
        <trkpt lat="28.23858" lon="105.05755"><ele>1383.1991</ele><time>2026-04-25T00:45:15.000Z</time></trkpt>
        <trkpt lat="28.238523" lon="105.057546"><ele>1381.2386</ele><time>2026-04-25T00:45:19.000Z</time></trkpt>
        <trkpt lat="28.238477" lon="105.057539"><ele>1381.4694</ele><time>2026-04-25T00:45:22.000Z</time></trkpt>
        <trkpt lat="28.238431" lon="105.05754"><ele>1380.8884</ele><time>2026-04-25T00:45:25.000Z</time></trkpt>
        <trkpt lat="28.238376" lon="105.057553"><ele>1379.8613</ele><time>2026-04-25T00:45:29.000Z</time></trkpt>
        <trkpt lat="28.23833" lon="105.057585"><ele>1379.3121</ele><time>2026-04-25T00:45:33.000Z</time></trkpt>
        <trkpt lat="28.238302" lon="105.057636"><ele>1378.6063</ele><time>2026-04-25T00:45:37.000Z</time></trkpt>
        <trkpt lat="28.23827" lon="105.057684"><ele>1376.9396</ele><time>2026-04-25T00:45:41.000Z</time></trkpt>
        <trkpt lat="28.238249" lon="105.05773"><ele>1375.9512</ele><time>2026-04-25T00:45:45.000Z</time></trkpt>
        <trkpt lat="28.238232" lon="105.057786"><ele>1375.5416</ele><time>2026-04-25T00:45:49.000Z</time></trkpt>
        <trkpt lat="28.238235" lon="105.057846"><ele>1375.3458</ele><time>2026-04-25T00:45:53.000Z</time></trkpt>
        <trkpt lat="28.23825" lon="105.057903"><ele>1374.6832</ele><time>2026-04-25T00:45:57.000Z</time></trkpt>
        <trkpt lat="28.238272" lon="105.057949"><ele>1374.6342</ele><time>2026-04-25T00:46:00.000Z</time></trkpt>
        <trkpt lat="28.238293" lon="105.058007"><ele>1374.3992</ele><time>2026-04-25T00:46:04.000Z</time></trkpt>
        <trkpt lat="28.238283" lon="105.058064"><ele>1374.2737</ele><time>2026-04-25T00:46:08.000Z</time></trkpt>
        <trkpt lat="28.23824" lon="105.058108"><ele>1374.419</ele><time>2026-04-25T00:46:12.000Z</time></trkpt>
        <trkpt lat="28.238197" lon="105.058144"><ele>1374.8082</ele><time>2026-04-25T00:46:16.000Z</time></trkpt>
        <trkpt lat="28.238158" lon="105.058197"><ele>1375.2396</ele><time>2026-04-25T00:46:20.000Z</time></trkpt>
        <trkpt lat="28.238133" lon="105.058253"><ele>1375.0038</ele><time>2026-04-25T00:46:24.000Z</time></trkpt>
        <trkpt lat="28.238122" lon="105.058318"><ele>1374.1215</ele><time>2026-04-25T00:46:28.000Z</time></trkpt>
        <trkpt lat="28.238111" lon="105.058385"><ele>1374.2064</ele><time>2026-04-25T00:46:32.000Z</time></trkpt>
        <trkpt lat="28.238112" lon="105.058442"><ele>1373.7764</ele><time>2026-04-25T00:46:36.000Z</time></trkpt>
        <trkpt lat="28.238123" lon="105.058499"><ele>1373.1349</ele><time>2026-04-25T00:46:40.000Z</time></trkpt>
        <trkpt lat="28.238149" lon="105.058556"><ele>1372.2994</ele><time>2026-04-25T00:46:44.000Z</time></trkpt>
        <trkpt lat="28.238185" lon="105.058612"><ele>1371.5227</ele><time>2026-04-25T00:46:48.000Z</time></trkpt>
        <trkpt lat="28.238212" lon="105.058653"><ele>1370.4688</ele><time>2026-04-25T00:46:51.000Z</time></trkpt>
        <trkpt lat="28.238237" lon="105.058698"><ele>1370.1973</ele><time>2026-04-25T00:46:54.000Z</time></trkpt>
        <trkpt lat="28.238248" lon="105.058758"><ele>1369.1243</ele><time>2026-04-25T00:46:58.000Z</time></trkpt>
        <trkpt lat="28.23824" lon="105.058817"><ele>1367.83</ele><time>2026-04-25T00:47:02.000Z</time></trkpt>
        <trkpt lat="28.238225" lon="105.058867"><ele>1368.0515</ele><time>2026-04-25T00:47:05.000Z</time></trkpt>
        <trkpt lat="28.238199" lon="105.058922"><ele>1369.4897</ele><time>2026-04-25T00:47:08.000Z</time></trkpt>
        <trkpt lat="28.238155" lon="105.05895"><ele>1366.5387</ele><time>2026-04-25T00:47:12.000Z</time></trkpt>
        <trkpt lat="28.238141" lon="105.058881"><ele>1365.4851</ele><time>2026-04-25T00:47:15.000Z</time></trkpt>
        <trkpt lat="28.238152" lon="105.05881"><ele>1365.4082</ele><time>2026-04-25T00:47:18.000Z</time></trkpt>
        <trkpt lat="28.238125" lon="105.058759"><ele>1365.8971</ele><time>2026-04-25T00:47:21.000Z</time></trkpt>
        <trkpt lat="28.238082" lon="105.058709"><ele>1370.2451</ele><time>2026-04-25T00:49:26.000Z</time></trkpt>
        <trkpt lat="28.238037" lon="105.058678"><ele>1368.0312</ele><time>2026-04-25T00:49:40.000Z</time></trkpt>
        <trkpt lat="28.237994" lon="105.058645"><ele>1367.3694</ele><time>2026-04-25T00:49:42.000Z</time></trkpt>
        <trkpt lat="28.237919" lon="105.058598"><ele>1365.9486</ele><time>2026-04-25T00:49:44.000Z</time></trkpt>
        <trkpt lat="28.237835" lon="105.058565"><ele>1364.614</ele><time>2026-04-25T00:49:46.000Z</time></trkpt>
        <trkpt lat="28.237789" lon="105.058543"><ele>1363.3801</ele><time>2026-04-25T00:49:47.000Z</time></trkpt>
        <trkpt lat="28.23774" lon="105.058524"><ele>1362.0743</ele><time>2026-04-25T00:49:48.000Z</time></trkpt>
        <trkpt lat="28.237693" lon="105.058504"><ele>1360.5616</ele><time>2026-04-25T00:49:49.000Z</time></trkpt>
        <trkpt lat="28.237647" lon="105.058482"><ele>1359.2048</ele><time>2026-04-25T00:49:50.000Z</time></trkpt>
        <trkpt lat="28.237597" lon="105.058445"><ele>1357.58</ele><time>2026-04-25T00:49:51.000Z</time></trkpt>
        <trkpt lat="28.237547" lon="105.0584"><ele>1355.781</ele><time>2026-04-25T00:49:52.000Z</time></trkpt>
        <trkpt lat="28.237497" lon="105.058353"><ele>1354.2501</ele><time>2026-04-25T00:49:53.000Z</time></trkpt>
        <trkpt lat="28.237445" lon="105.058303"><ele>1352.9891</ele><time>2026-04-25T00:49:54.000Z</time></trkpt>
        <trkpt lat="28.237398" lon="105.058253"><ele>1351.5039</ele><time>2026-04-25T00:49:55.000Z</time></trkpt>
        <trkpt lat="28.237353" lon="105.058204"><ele>1350.0184</ele><time>2026-04-25T00:49:56.000Z</time></trkpt>
        <trkpt lat="28.237323" lon="105.058153"><ele>1348.3821</ele><time>2026-04-25T00:49:57.000Z</time></trkpt>
        <trkpt lat="28.237282" lon="105.058072"><ele>1346.5964</ele><time>2026-04-25T00:49:59.000Z</time></trkpt>
        <trkpt lat="28.23724" lon="105.058019"><ele>1344.5234</ele><time>2026-04-25T00:50:01.000Z</time></trkpt>
        <trkpt lat="28.237153" lon="105.05803"><ele>1342.3507</ele><time>2026-04-25T00:50:03.000Z</time></trkpt>
        <trkpt lat="28.237118" lon="105.058063"><ele>1340.964</ele><time>2026-04-25T00:50:04.000Z</time></trkpt>
        <trkpt lat="28.237075" lon="105.058142"><ele>1338.2308</ele><time>2026-04-25T00:50:06.000Z</time></trkpt>
        <trkpt lat="28.23706" lon="105.05822"><ele>1336.2242</ele><time>2026-04-25T00:50:08.000Z</time></trkpt>
        <trkpt lat="28.237067" lon="105.058274"><ele>1335.6986</ele><time>2026-04-25T00:50:09.000Z</time></trkpt>
        <trkpt lat="28.23711" lon="105.058333"><ele>1335.1189</ele><time>2026-04-25T00:50:11.000Z</time></trkpt>
        <trkpt lat="28.237143" lon="105.058412"><ele>1334.8821</ele><time>2026-04-25T00:50:12.000Z</time></trkpt>
        <trkpt lat="28.237093" lon="105.058474"><ele>1334.7738</ele><time>2026-04-25T00:50:13.000Z</time></trkpt>
        <trkpt lat="28.236999" lon="105.058421"><ele>1334.7554</ele><time>2026-04-25T00:50:14.000Z</time></trkpt>
        <trkpt lat="28.236926" lon="105.058406"><ele>1335.223</ele><time>2026-04-25T00:50:16.000Z</time></trkpt>
        <trkpt lat="28.236851" lon="105.058377"><ele>1336.0065</ele><time>2026-04-25T00:50:18.000Z</time></trkpt>
        <trkpt lat="28.236775" lon="105.058344"><ele>1337.4153</ele><time>2026-04-25T00:50:20.000Z</time></trkpt>
        <trkpt lat="28.236765" lon="105.058294"><ele>1338.2609</ele><time>2026-04-25T00:50:21.000Z</time></trkpt>
        <trkpt lat="28.236709" lon="105.058224"><ele>1339.8033</ele><time>2026-04-25T00:50:23.000Z</time></trkpt>
        <trkpt lat="28.236675" lon="105.058183"><ele>1340.7463</ele><time>2026-04-25T00:50:24.000Z</time></trkpt>
        <trkpt lat="28.236642" lon="105.058146"><ele>1341.829</ele><time>2026-04-25T00:50:24.000Z</time></trkpt>
        <trkpt lat="28.236608" lon="105.058106"><ele>1343.8448</ele><time>2026-04-25T00:50:25.000Z</time></trkpt>
        <trkpt lat="28.236567" lon="105.05808"><ele>1344.9019</ele><time>2026-04-25T00:50:26.000Z</time></trkpt>
        <trkpt lat="28.236539" lon="105.058039"><ele>1345.722</ele><time>2026-04-25T00:50:27.000Z</time></trkpt>
        <trkpt lat="28.236483" lon="105.057966"><ele>1347.242</ele><time>2026-04-25T00:50:29.000Z</time></trkpt>
        <trkpt lat="28.236407" lon="105.057915"><ele>1348.9503</ele><time>2026-04-25T00:50:31.000Z</time></trkpt>
        <trkpt lat="28.236363" lon="105.057894"><ele>1349.6135</ele><time>2026-04-25T00:50:32.000Z</time></trkpt>
        <trkpt lat="28.236337" lon="105.057846"><ele>1350.1992</ele><time>2026-04-25T00:50:33.000Z</time></trkpt>
        <trkpt lat="28.2363" lon="105.05781"><ele>1351.0647</ele><time>2026-04-25T00:50:34.000Z</time></trkpt>
        <trkpt lat="28.236267" lon="105.057768"><ele>1351.5021</ele><time>2026-04-25T00:50:35.000Z</time></trkpt>
        <trkpt lat="28.236231" lon="105.057728"><ele>1351.9585</ele><time>2026-04-25T00:50:36.000Z</time></trkpt>
        <trkpt lat="28.236196" lon="105.057646"><ele>1352.4749</ele><time>2026-04-25T00:50:39.000Z</time></trkpt>
        <trkpt lat="28.236167" lon="105.057561"><ele>1352.369</ele><time>2026-04-25T00:50:41.000Z</time></trkpt>
        <trkpt lat="28.236152" lon="105.057513"><ele>1352.5586</ele><time>2026-04-25T00:50:42.000Z</time></trkpt>
        <trkpt lat="28.236111" lon="105.057454"><ele>1352.4065</ele><time>2026-04-25T00:50:44.000Z</time></trkpt>
        <trkpt lat="28.236081" lon="105.057413"><ele>1352.5833</ele><time>2026-04-25T00:50:46.000Z</time></trkpt>
        <trkpt lat="28.236036" lon="105.057387"><ele>1352.6803</ele><time>2026-04-25T00:50:49.000Z</time></trkpt>
        <trkpt lat="28.236078" lon="105.057411"><ele>1352.6891</ele><time>2026-04-25T00:51:03.000Z</time></trkpt>
        <trkpt lat="28.236117" lon="105.057441"><ele>1351.8292</ele><time>2026-04-25T00:51:28.000Z</time></trkpt>
        <trkpt lat="28.236165" lon="105.057487"><ele>1351.6342</ele><time>2026-04-25T00:51:31.000Z</time></trkpt>
        <trkpt lat="28.236202" lon="105.057572"><ele>1351.2518</ele><time>2026-04-25T00:51:33.000Z</time></trkpt>
        <trkpt lat="28.236194" lon="105.057649"><ele>1351.0741</ele><time>2026-04-25T00:51:34.000Z</time></trkpt>
        <trkpt lat="28.236221" lon="105.057739"><ele>1350.4657</ele><time>2026-04-25T00:51:36.000Z</time></trkpt>
        <trkpt lat="28.236254" lon="105.057781"><ele>1349.8108</ele><time>2026-04-25T00:51:37.000Z</time></trkpt>
        <trkpt lat="28.236295" lon="105.057823"><ele>1348.9403</ele><time>2026-04-25T00:51:38.000Z</time></trkpt>
        <trkpt lat="28.236342" lon="105.057852"><ele>1347.9357</ele><time>2026-04-25T00:51:39.000Z</time></trkpt>
        <trkpt lat="28.236377" lon="105.057891"><ele>1346.9822</ele><time>2026-04-25T00:51:40.000Z</time></trkpt>
        <trkpt lat="28.236421" lon="105.057927"><ele>1345.9156</ele><time>2026-04-25T00:51:41.000Z</time></trkpt>
        <trkpt lat="28.236458" lon="105.057981"><ele>1344.677</ele><time>2026-04-25T00:51:42.000Z</time></trkpt>
        <trkpt lat="28.236532" lon="105.058033"><ele>1342.627</ele><time>2026-04-25T00:51:43.000Z</time></trkpt>
        <trkpt lat="28.236609" lon="105.05811"><ele>1340.2523</ele><time>2026-04-25T00:51:44.000Z</time></trkpt>
        <trkpt lat="28.236616" lon="105.058217"><ele>1339.0778</ele><time>2026-04-25T00:51:45.000Z</time></trkpt>
        <trkpt lat="28.236654" lon="105.058272"><ele>1338.0505</ele><time>2026-04-25T00:51:46.000Z</time></trkpt>
        <trkpt lat="28.236703" lon="105.058318"><ele>1336.959</ele><time>2026-04-25T00:51:47.000Z</time></trkpt>
        <trkpt lat="28.236755" lon="105.058348"><ele>1335.9927</ele><time>2026-04-25T00:51:48.000Z</time></trkpt>
        <trkpt lat="28.236809" lon="105.058371"><ele>1335.3512</ele><time>2026-04-25T00:51:49.000Z</time></trkpt>
        <trkpt lat="28.236861" lon="105.058389"><ele>1334.7098</ele><time>2026-04-25T00:51:50.000Z</time></trkpt>
        <trkpt lat="28.236934" lon="105.058404"><ele>1334.1493</ele><time>2026-04-25T00:51:52.000Z</time></trkpt>
        <trkpt lat="28.23698" lon="105.058407"><ele>1333.2166</ele><time>2026-04-25T00:52:14.000Z</time></trkpt>
        <trkpt lat="28.237026" lon="105.05847"><ele>1332.8799</ele><time>2026-04-25T00:52:17.000Z</time></trkpt>
        <trkpt lat="28.237111" lon="105.058297"><ele>1333.9891</ele><time>2026-04-25T00:52:21.000Z</time></trkpt>
        <trkpt lat="28.237104" lon="105.058235"><ele>1334.9042</ele><time>2026-04-25T00:52:24.000Z</time></trkpt>
        <trkpt lat="28.23711" lon="105.058286"><ele>1333.5579</ele><time>2026-04-25T00:53:29.000Z</time></trkpt>
        <trkpt lat="28.237116" lon="105.058339"><ele>1334.1018</ele><time>2026-04-25T00:54:20.000Z</time></trkpt>
        <trkpt lat="28.237134" lon="105.05829"><ele>1334.6586</ele><time>2026-04-25T00:54:34.000Z</time></trkpt>
        <trkpt lat="28.237019" lon="105.058118"><ele>1337.7444</ele><time>2026-04-25T00:54:39.000Z</time></trkpt>
        <trkpt lat="28.236987" lon="105.05807"><ele>1338.5615</ele><time>2026-04-25T00:54:40.000Z</time></trkpt>
        <trkpt lat="28.236656" lon="105.058267"><ele>1339.621</ele><time>2026-04-25T00:54:41.000Z</time></trkpt>
        <trkpt lat="28.236618" lon="105.058214"><ele>1340.8208</ele><time>2026-04-25T00:54:42.000Z</time></trkpt>
        <trkpt lat="28.236584" lon="105.058169"><ele>1341.7316</ele><time>2026-04-25T00:54:43.000Z</time></trkpt>
        <trkpt lat="28.236577" lon="105.058077"><ele>1343.2672</ele><time>2026-04-25T00:54:44.000Z</time></trkpt>
        <trkpt lat="28.236537" lon="105.058038"><ele>1344.2899</ele><time>2026-04-25T00:54:45.000Z</time></trkpt>
        <trkpt lat="28.236494" lon="105.058009"><ele>1345.3651</ele><time>2026-04-25T00:54:46.000Z</time></trkpt>
        <trkpt lat="28.236459" lon="105.057974"><ele>1346.3392</ele><time>2026-04-25T00:54:47.000Z</time></trkpt>
        <trkpt lat="28.23642" lon="105.057945"><ele>1347.3474</ele><time>2026-04-25T00:54:48.000Z</time></trkpt>
        <trkpt lat="28.236395" lon="105.057902"><ele>1348.2867</ele><time>2026-04-25T00:54:49.000Z</time></trkpt>
        <trkpt lat="28.236325" lon="105.057834"><ele>1349.6979</ele><time>2026-04-25T00:54:51.000Z</time></trkpt>
        <trkpt lat="28.236291" lon="105.057796"><ele>1350.2462</ele><time>2026-04-25T00:54:52.000Z</time></trkpt>
        <trkpt lat="28.236253" lon="105.057753"><ele>1350.9039</ele><time>2026-04-25T00:54:53.000Z</time></trkpt>
        <trkpt lat="28.236226" lon="105.057709"><ele>1351.5311</ele><time>2026-04-25T00:54:54.000Z</time></trkpt>
        <trkpt lat="28.236202" lon="105.05766"><ele>1351.8098</ele><time>2026-04-25T00:54:55.000Z</time></trkpt>
        <trkpt lat="28.236176" lon="105.0576"><ele>1352.0356</ele><time>2026-04-25T00:54:56.000Z</time></trkpt>
        <trkpt lat="28.236161" lon="105.057542"><ele>1352.0984</ele><time>2026-04-25T00:54:57.000Z</time></trkpt>
        <trkpt lat="28.236143" lon="105.057484"><ele>1351.9916</ele><time>2026-04-25T00:54:58.000Z</time></trkpt>
        <trkpt lat="28.236109" lon="105.057434"><ele>1352.1194</ele><time>2026-04-25T00:54:59.000Z</time></trkpt>
        <trkpt lat="28.236035" lon="105.057399"><ele>1352.5209</ele><time>2026-04-25T00:55:01.000Z</time></trkpt>
        <trkpt lat="28.236006" lon="105.057343"><ele>1352.4952</ele><time>2026-04-25T00:55:03.000Z</time></trkpt>
        <trkpt lat="28.235981" lon="105.05726"><ele>1351.4614</ele><time>2026-04-25T00:55:05.000Z</time></trkpt>
        <trkpt lat="28.235966" lon="105.057212"><ele>1350.491</ele><time>2026-04-25T00:55:06.000Z</time></trkpt>
        <trkpt lat="28.235922" lon="105.057126"><ele>1348.3859</ele><time>2026-04-25T00:55:08.000Z</time></trkpt>
        <trkpt lat="28.235887" lon="105.057089"><ele>1346.94</ele><time>2026-04-25T00:55:09.000Z</time></trkpt>
        <trkpt lat="28.235848" lon="105.057055"><ele>1345.7384</ele><time>2026-04-25T00:55:10.000Z</time></trkpt>
        <trkpt lat="28.235805" lon="105.057015"><ele>1344.2738</ele><time>2026-04-25T00:55:11.000Z</time></trkpt>
        <trkpt lat="28.235755" lon="105.056969"><ele>1342.5356</ele><time>2026-04-25T00:55:12.000Z</time></trkpt>
        <trkpt lat="28.235705" lon="105.056924"><ele>1340.987</ele><time>2026-04-25T00:55:13.000Z</time></trkpt>
        <trkpt lat="28.235658" lon="105.056881"><ele>1339.5526</ele><time>2026-04-25T00:55:14.000Z</time></trkpt>
        <trkpt lat="28.235611" lon="105.056837"><ele>1338.7334</ele><time>2026-04-25T00:55:15.000Z</time></trkpt>
        <trkpt lat="28.235568" lon="105.05679"><ele>1338.1826</ele><time>2026-04-25T00:55:16.000Z</time></trkpt>
        <trkpt lat="28.235541" lon="105.056729"><ele>1337.7184</ele><time>2026-04-25T00:55:17.000Z</time></trkpt>
        <trkpt lat="28.235535" lon="105.056652"><ele>1337.4762</ele><time>2026-04-25T00:55:18.000Z</time></trkpt>
        <trkpt lat="28.235529" lon="105.056578"><ele>1337.1067</ele><time>2026-04-25T00:55:19.000Z</time></trkpt>
        <trkpt lat="28.235519" lon="105.056501"><ele>1336.6434</ele><time>2026-04-25T00:55:20.000Z</time></trkpt>
        <trkpt lat="28.235506" lon="105.056423"><ele>1336.1621</ele><time>2026-04-25T00:55:21.000Z</time></trkpt>
        <trkpt lat="28.235488" lon="105.05635"><ele>1335.4813</ele><time>2026-04-25T00:55:22.000Z</time></trkpt>
        <trkpt lat="28.23547" lon="105.056281"><ele>1334.4882</ele><time>2026-04-25T00:55:23.000Z</time></trkpt>
        <trkpt lat="28.235459" lon="105.056206"><ele>1333.5999</ele><time>2026-04-25T00:55:24.000Z</time></trkpt>
        <trkpt lat="28.235463" lon="105.056128"><ele>1333.036</ele><time>2026-04-25T00:55:25.000Z</time></trkpt>
        <trkpt lat="28.23548" lon="105.056051"><ele>1332.7449</ele><time>2026-04-25T00:55:26.000Z</time></trkpt>
        <trkpt lat="28.2355" lon="105.055979"><ele>1332.7997</ele><time>2026-04-25T00:55:27.000Z</time></trkpt>
        <trkpt lat="28.235495" lon="105.055915"><ele>1332.9867</ele><time>2026-04-25T00:55:28.000Z</time></trkpt>
        <trkpt lat="28.235463" lon="105.055865"><ele>1333.0962</ele><time>2026-04-25T00:55:29.000Z</time></trkpt>
        <trkpt lat="28.23541" lon="105.055852"><ele>1333.5339</ele><time>2026-04-25T00:55:30.000Z</time></trkpt>
        <trkpt lat="28.235371" lon="105.055821"><ele>1333.6471</ele><time>2026-04-25T00:55:31.000Z</time></trkpt>
        <trkpt lat="28.235326" lon="105.055808"><ele>1333.638</ele><time>2026-04-25T00:55:32.000Z</time></trkpt>
        <trkpt lat="28.235282" lon="105.055789"><ele>1333.5457</ele><time>2026-04-25T00:55:33.000Z</time></trkpt>
        <trkpt lat="28.235243" lon="105.055756"><ele>1333.5828</ele><time>2026-04-25T00:55:34.000Z</time></trkpt>
        <trkpt lat="28.235211" lon="105.05571"><ele>1333.3787</ele><time>2026-04-25T00:55:35.000Z</time></trkpt>
        <trkpt lat="28.235182" lon="105.055662"><ele>1333.4056</ele><time>2026-04-25T00:55:36.000Z</time></trkpt>
        <trkpt lat="28.235159" lon="105.055609"><ele>1333.4047</ele><time>2026-04-25T00:55:37.000Z</time></trkpt>
        <trkpt lat="28.235139" lon="105.055558"><ele>1333.573</ele><time>2026-04-25T00:55:38.000Z</time></trkpt>
        <trkpt lat="28.235119" lon="105.055502"><ele>1333.7998</ele><time>2026-04-25T00:55:39.000Z</time></trkpt>
        <trkpt lat="28.235103" lon="105.055442"><ele>1333.8259</ele><time>2026-04-25T00:55:40.000Z</time></trkpt>
        <trkpt lat="28.235109" lon="105.055379"><ele>1333.9686</ele><time>2026-04-25T00:55:41.000Z</time></trkpt>
        <trkpt lat="28.235139" lon="105.055328"><ele>1334.0303</ele><time>2026-04-25T00:55:42.000Z</time></trkpt>
        <trkpt lat="28.235165" lon="105.055277"><ele>1334.1228</ele><time>2026-04-25T00:55:43.000Z</time></trkpt>
        <trkpt lat="28.235199" lon="105.055228"><ele>1334.1272</ele><time>2026-04-25T00:55:44.000Z</time></trkpt>
        <trkpt lat="28.235247" lon="105.055206"><ele>1334.4637</ele><time>2026-04-25T00:55:45.000Z</time></trkpt>
        <trkpt lat="28.235345" lon="105.055199"><ele>1334.8794</ele><time>2026-04-25T00:55:47.000Z</time></trkpt>
        <trkpt lat="28.235399" lon="105.055187"><ele>1334.9387</ele><time>2026-04-25T00:55:48.000Z</time></trkpt>
        <trkpt lat="28.235445" lon="105.055155"><ele>1335.3853</ele><time>2026-04-25T00:55:49.000Z</time></trkpt>
        <trkpt lat="28.23549" lon="105.055141"><ele>1335.7301</ele><time>2026-04-25T00:55:50.000Z</time></trkpt>
        <trkpt lat="28.235566" lon="105.055081"><ele>1336.2267</ele><time>2026-04-25T00:55:52.000Z</time></trkpt>
        <trkpt lat="28.235602" lon="105.055031"><ele>1337.1733</ele><time>2026-04-25T00:55:53.000Z</time></trkpt>
        <trkpt lat="28.235629" lon="105.054972"><ele>1337.8297</ele><time>2026-04-25T00:55:54.000Z</time></trkpt>
        <trkpt lat="28.23566" lon="105.05491"><ele>1338.5986</ele><time>2026-04-25T00:55:55.000Z</time></trkpt>
        <trkpt lat="28.235691" lon="105.054847"><ele>1339.4558</ele><time>2026-04-25T00:55:56.000Z</time></trkpt>
        <trkpt lat="28.235719" lon="105.054779"><ele>1340.169</ele><time>2026-04-25T00:55:57.000Z</time></trkpt>
        <trkpt lat="28.235747" lon="105.054703"><ele>1340.6222</ele><time>2026-04-25T00:55:58.000Z</time></trkpt>
        <trkpt lat="28.235791" lon="105.054634"><ele>1341.4049</ele><time>2026-04-25T00:55:59.000Z</time></trkpt>
        <trkpt lat="28.235811" lon="105.054553"><ele>1341.5569</ele><time>2026-04-25T00:56:00.000Z</time></trkpt>
        <trkpt lat="28.23586" lon="105.054485"><ele>1342.6008</ele><time>2026-04-25T00:56:01.000Z</time></trkpt>
        <trkpt lat="28.235894" lon="105.054412"><ele>1343.5052</ele><time>2026-04-25T00:56:02.000Z</time></trkpt>
        <trkpt lat="28.235911" lon="105.054335"><ele>1344.9156</ele><time>2026-04-25T00:56:03.000Z</time></trkpt>
        <trkpt lat="28.235948" lon="105.054274"><ele>1345.9513</ele><time>2026-04-25T00:56:04.000Z</time></trkpt>
        <trkpt lat="28.235976" lon="105.054217"><ele>1347.2804</ele><time>2026-04-25T00:56:05.000Z</time></trkpt>
        <trkpt lat="28.236" lon="105.054165"><ele>1348.339</ele><time>2026-04-25T00:56:06.000Z</time></trkpt>
        <trkpt lat="28.236035" lon="105.054088"><ele>1349.9404</ele><time>2026-04-25T00:56:08.000Z</time></trkpt>
        <trkpt lat="28.236055" lon="105.054031"><ele>1350.941</ele><time>2026-04-25T00:56:11.000Z</time></trkpt>
        <trkpt lat="28.235966" lon="105.054015"><ele>1351.4893</ele><time>2026-04-25T00:56:14.000Z</time></trkpt>
        <trkpt lat="28.235904" lon="105.05397"><ele>1351.7986</ele><time>2026-04-25T00:56:16.000Z</time></trkpt>
        <trkpt lat="28.235856" lon="105.053957"><ele>1351.8848</ele><time>2026-04-25T00:56:17.000Z</time></trkpt>
        <trkpt lat="28.235816" lon="105.053908"><ele>1351.0653</ele><time>2026-04-25T00:56:18.000Z</time></trkpt>
        <trkpt lat="28.235763" lon="105.05387"><ele>1350.5402</ele><time>2026-04-25T00:56:19.000Z</time></trkpt>
        <trkpt lat="28.235711" lon="105.053831"><ele>1349.7911</ele><time>2026-04-25T00:56:20.000Z</time></trkpt>
        <trkpt lat="28.235659" lon="105.05381"><ele>1348.959</ele><time>2026-04-25T00:56:21.000Z</time></trkpt>
        <trkpt lat="28.235628" lon="105.053761"><ele>1348.1218</ele><time>2026-04-25T00:56:22.000Z</time></trkpt>
        <trkpt lat="28.235555" lon="105.05372"><ele>1347.2217</ele><time>2026-04-25T00:56:24.000Z</time></trkpt>
        <trkpt lat="28.235491" lon="105.053694"><ele>1347.2388</ele><time>2026-04-25T00:56:26.000Z</time></trkpt>
        <trkpt lat="28.23543" lon="105.053681"><ele>1346.7168</ele><time>2026-04-25T00:56:28.000Z</time></trkpt>
        <trkpt lat="28.23534" lon="105.05369"><ele>1346.445</ele><time>2026-04-25T00:56:30.000Z</time></trkpt>
        <trkpt lat="28.235285" lon="105.05371"><ele>1345.6584</ele><time>2026-04-25T00:56:32.000Z</time></trkpt>
        <trkpt lat="28.235242" lon="105.053728"><ele>1344.7983</ele><time>2026-04-25T00:56:36.000Z</time></trkpt>
        <trkpt lat="28.235198" lon="105.053751"><ele>1343.885</ele><time>2026-04-25T00:56:41.000Z</time></trkpt>
        <trkpt lat="28.235158" lon="105.053777"><ele>1343.7489</ele><time>2026-04-25T00:56:43.000Z</time></trkpt>
        <trkpt lat="28.235103" lon="105.053814"><ele>1343.0332</ele><time>2026-04-25T00:56:45.000Z</time></trkpt>
        <trkpt lat="28.235037" lon="105.053877"><ele>1341.5975</ele><time>2026-04-25T00:56:47.000Z</time></trkpt>
        <trkpt lat="28.23498" lon="105.053925"><ele>1339.7451</ele><time>2026-04-25T00:56:49.000Z</time></trkpt>
        <trkpt lat="28.234923" lon="105.053971"><ele>1338.3953</ele><time>2026-04-25T00:56:51.000Z</time></trkpt>
        <trkpt lat="28.234876" lon="105.053978"><ele>1336.1578</ele><time>2026-04-25T00:56:53.000Z</time></trkpt>
        <trkpt lat="28.234796" lon="105.053979"><ele>1333.6556</ele><time>2026-04-25T00:56:55.000Z</time></trkpt>
        <trkpt lat="28.23473" lon="105.053945"><ele>1331.3412</ele><time>2026-04-25T00:56:57.000Z</time></trkpt>
        <trkpt lat="28.234642" lon="105.05392"><ele>1329.0582</ele><time>2026-04-25T00:56:59.000Z</time></trkpt>
        <trkpt lat="28.234563" lon="105.053884"><ele>1327.2706</ele><time>2026-04-25T00:57:01.000Z</time></trkpt>
        <trkpt lat="28.234519" lon="105.053862"><ele>1326.1241</ele><time>2026-04-25T00:57:02.000Z</time></trkpt>
        <trkpt lat="28.234455" lon="105.053796"><ele>1323.2648</ele><time>2026-04-25T00:57:04.000Z</time></trkpt>
        <trkpt lat="28.234399" lon="105.053695"><ele>1320.8872</ele><time>2026-04-25T00:57:06.000Z</time></trkpt>
        <trkpt lat="28.234373" lon="105.053622"><ele>1319.3365</ele><time>2026-04-25T00:57:07.000Z</time></trkpt>
        <trkpt lat="28.234351" lon="105.053534"><ele>1318.0953</ele><time>2026-04-25T00:57:08.000Z</time></trkpt>
        <trkpt lat="28.234317" lon="105.05345"><ele>1317.4308</ele><time>2026-04-25T00:57:09.000Z</time></trkpt>
        <trkpt lat="28.2343" lon="105.053372"><ele>1316.9357</ele><time>2026-04-25T00:57:10.000Z</time></trkpt>
        <trkpt lat="28.234303" lon="105.0533"><ele>1316.1123</ele><time>2026-04-25T00:57:11.000Z</time></trkpt>
        <trkpt lat="28.234294" lon="105.053245"><ele>1315.2797</ele><time>2026-04-25T00:57:12.000Z</time></trkpt>
        <trkpt lat="28.234279" lon="105.053142"><ele>1313.1937</ele><time>2026-04-25T00:57:14.000Z</time></trkpt>
        <trkpt lat="28.234261" lon="105.053081"><ele>1311.6714</ele><time>2026-04-25T00:57:15.000Z</time></trkpt>
        <trkpt lat="28.23427" lon="105.053011"><ele>1310.2538</ele><time>2026-04-25T00:57:16.000Z</time></trkpt>
        <trkpt lat="28.234254" lon="105.052948"><ele>1309.0785</ele><time>2026-04-25T00:57:17.000Z</time></trkpt>
        <trkpt lat="28.234241" lon="105.052886"><ele>1307.9259</ele><time>2026-04-25T00:57:18.000Z</time></trkpt>
        <trkpt lat="28.234209" lon="105.052807"><ele>1306.9667</ele><time>2026-04-25T00:57:20.000Z</time></trkpt>
        <trkpt lat="28.234167" lon="105.052759"><ele>1305.5332</ele><time>2026-04-25T00:57:23.000Z</time></trkpt>
        <trkpt lat="28.234131" lon="105.052729"><ele>1304.2922</ele><time>2026-04-25T00:57:25.000Z</time></trkpt>
        <trkpt lat="28.234072" lon="105.052717"><ele>1302.7537</ele><time>2026-04-25T00:57:27.000Z</time></trkpt>
        <trkpt lat="28.233969" lon="105.052695"><ele>1300.4326</ele><time>2026-04-25T00:57:29.000Z</time></trkpt>
        <trkpt lat="28.233902" lon="105.052688"><ele>1299.395</ele><time>2026-04-25T00:57:30.000Z</time></trkpt>
        <trkpt lat="28.233832" lon="105.052682"><ele>1298.1678</ele><time>2026-04-25T00:57:31.000Z</time></trkpt>
        <trkpt lat="28.233753" lon="105.052665"><ele>1296.5887</ele><time>2026-04-25T00:57:32.000Z</time></trkpt>
        <trkpt lat="28.23367" lon="105.052652"><ele>1294.8702</ele><time>2026-04-25T00:57:33.000Z</time></trkpt>
        <trkpt lat="28.233589" lon="105.052621"><ele>1293.3298</ele><time>2026-04-25T00:57:34.000Z</time></trkpt>
        <trkpt lat="28.233509" lon="105.052589"><ele>1291.7067</ele><time>2026-04-25T00:57:35.000Z</time></trkpt>
        <trkpt lat="28.233434" lon="105.05256"><ele>1289.8943</ele><time>2026-04-25T00:57:36.000Z</time></trkpt>
        <trkpt lat="28.233364" lon="105.052533"><ele>1288.122</ele><time>2026-04-25T00:57:37.000Z</time></trkpt>
        <trkpt lat="28.2333" lon="105.052508"><ele>1286.6456</ele><time>2026-04-25T00:57:38.000Z</time></trkpt>
        <trkpt lat="28.233247" lon="105.052482"><ele>1285.6143</ele><time>2026-04-25T00:57:39.000Z</time></trkpt>
        <trkpt lat="28.233198" lon="105.05244"><ele>1284.0598</ele><time>2026-04-25T00:57:41.000Z</time></trkpt>
        <trkpt lat="28.233147" lon="105.052426"><ele>1282.2211</ele><time>2026-04-25T00:58:15.000Z</time></trkpt>
        <trkpt lat="28.233104" lon="105.052408"><ele>1282.0082</ele><time>2026-04-25T00:58:20.000Z</time></trkpt>
        <trkpt lat="28.233184" lon="105.052208"><ele>1283.1029</ele><time>2026-04-25T00:58:26.000Z</time></trkpt>
        <trkpt lat="28.233207" lon="105.052127"><ele>1283.085</ele><time>2026-04-25T00:58:28.000Z</time></trkpt>
        <trkpt lat="28.233232" lon="105.05204"><ele>1283.0116</ele><time>2026-04-25T00:58:30.000Z</time></trkpt>
        <trkpt lat="28.233257" lon="105.051954"><ele>1282.356</ele><time>2026-04-25T00:58:32.000Z</time></trkpt>
        <trkpt lat="28.233283" lon="105.051863"><ele>1282.012</ele><time>2026-04-25T00:58:34.000Z</time></trkpt>
        <trkpt lat="28.233282" lon="105.051809"><ele>1281.6481</ele><time>2026-04-25T00:58:35.000Z</time></trkpt>
        <trkpt lat="28.233299" lon="105.051762"><ele>1281.3953</ele><time>2026-04-25T00:58:36.000Z</time></trkpt>
        <trkpt lat="28.233322" lon="105.051668"><ele>1281.4861</ele><time>2026-04-25T00:58:38.000Z</time></trkpt>
        <trkpt lat="28.233343" lon="105.051591"><ele>1282.4606</ele><time>2026-04-25T00:58:40.000Z</time></trkpt>
        <trkpt lat="28.233357" lon="105.051526"><ele>1283.2345</ele><time>2026-04-25T00:58:43.000Z</time></trkpt>
      </trkseg>
  </trk>
</gpx>